GFSSGP_sfc_thetae_000.txt.gz
Theta_e
356 357 357 348 328 318 313 314 323 321 324 331 334 331 323 330 327 321 346 351 354 353 356 361 368 367 367 367 366 366 367 369 369 369 368 368 368 369 369 369 369 368 367 365 364 364 364 363 363
351 356 349 341 316 308 310 320 319 323 327 332 334 335 334 330 339 342 345 352 354 353 356 358 368 368 368 367 367 368 367 368 369 368 368 368 368 369 369 368 368 366 367 364 364 363 361 360 359
348 354 339 325 316 310 312 320 322 325 329 330 331 336 335 335 343 345 351 354 355 359 360 363 369 368 367 368 369 370 369 369 369 369 368 367 367 365 364 365 365 365 366 364 363 362 360 359 358
350 344 340 315 312 316 317 321 323 325 328 333 334 329 339 347 346 350 353 356 357 359 360 366 369 368 369 369 369 370 369 369 370 368 368 367 366 366 364 364 364 364 363 363 362 360 359 359 358
349 339 320 315 315 319 321 323 325 323 325 329 334 330 335 349 352 355 354 355 355 357 360 364 372 372 370 371 370 370 370 369 368 368 366 367 366 365 364 364 363 362 361 360 360 359 358 358 360
332 336 316 313 316 320 321 323 324 324 327 330 331 333 336 349 348 354 356 355 357 355 359 361 369 370 368 370 369 370 369 369 369 368 367 368 365 364 362 362 361 360 359 358 359 359 358 358 359
326 323 317 317 318 317 320 325 323 324 326 329 335 330 337 343 348 353 355 356 356 359 360 362 363 366 369 371 369 369 369 368 367 367 366 365 364 363 362 362 360 358 358 358 360 361 358 360 361
330 328 316 317 319 317 324 324 327 327 326 335 337 328 331 341 349 349 352 352 356 357 361 364 364 364 365 366 370 369 369 368 367 365 363 364 364 364 360 360 361 361 359 359 361 361 361 361 363
335 319 315 316 318 321 328 325 330 332 331 334 337 336 341 344 347 348 350 353 355 355 358 357 361 365 369 366 364 368 368 368 366 364 364 364 359 358 343 341 351 362 361 360 360 361 363 362 362
323 316 317 322 324 322 324 327 330 330 330 331 331 339 342 344 343 345 343 345 348 351 354 357 358 362 364 360 365 366 363 362 363 362 365 362 362 360 353 342 350 362 361 361 362 362 361 358 354
322 316 321 325 327 328 325 330 332 330 327 332 331 336 340 341 342 341 345 345 349 353 352 355 364 367 365 359 363 365 363 362 362 367 367 370 365 353 360 359 358 362 364 360 361 360 357 357 355
319 325 324 323 328 325 324 330 326 326 328 338 337 339 340 339 340 340 342 344 349 350 354 358 358 363 366 360 361 362 361 363 354 364 369 367 363 366 366 361 363 364 360 362 361 359 362 357 358
321 323 324 327 327 326 328 328 332 326 336 337 337 339 339 339 340 342 343 344 350 349 351 358 364 364 372 365 368 357 359 356 361 363 366 365 366 364 364 363 362 361 362 361 361 360 358 357 355
324 324 323 325 324 326 325 328 331 334 338 336 336 337 338 339 340 342 342 344 347 350 352 356 362 367 369 372 372 372 366 361 368 365 362 367 363 364 359 361 358 365 359 364 359 360 357 356 356
324 320 322 322 325 324 326 324 327 335 338 336 337 338 339 340 341 341 343 345 348 349 352 356 357 364 367 368 372 371 366 360 360 364 369 367 367 365 362 361 357 357 362 363 360 358 356 354 352
320 321 314 322 324 322 325 319 331 336 336 335 337 339 340 342 342 344 344 346 349 351 357 357 354 360 366 367 369 366 364 363 366 364 361 364 367 365 363 357 355 357 359 356 353 355 353 352 352
318 312 315 318 323 322 321 320 331 335 334 333 336 337 340 341 345 347 348 349 352 357 358 359 361 361 366 366 368 366 368 368 365 365 365 364 368 364 363 361 359 360 354 353 352 351 354 348 347
312 313 316 316 321 323 320 320 328 330 331 332 334 335 337 338 339 348 350 350 352 358 360 361 362 366 365 369 370 367 367 362 363 365 359 366 366 363 367 362 358 358 357 354 353 351 352 351 349
318 316 315 318 323 322 320 320 325 327 329 331 333 334 334 335 343 346 349 353 353 355 362 360 366 370 370 366 365 367 364 368 362 364 365 365 368 363 364 362 359 360 354 354 355 352 348 347 352
315 314 314 318 322 321 321 320 325 326 327 330 332 333 334 336 338 342 345 345 349 357 361 364 367 370 370 370 371 366 365 364 363 361 365 364 361 361 361 361 357 355 352 352 353 352 347 346 348
314 311 312 314 319 319 318 318 318 325 328 329 331 334 335 335 336 341 344 346 349 353 359 363 368 367 370 370 369 367 364 363 359 360 352 357 354 354 358 358 356 356 355 347 350 350 345 342 347
309 314 314 313 313 308 318 306 318 321 323 327 328 330 332 334 337 339 342 346 348 353 359 363 368 370 369 369 366 361 353 345 356 356 352 352 354 354 353 355 355 354 352 349 348 348 347 348 340
311 315 313 313 311 310 311 309 315 323 319 322 326 329 331 333 335 336 339 344 347 353 354 362 368 368 365 362 358 353 352 346 349 349 352 355 352 353 351 355 354 352 349 349 348 348 347 346 344
316 316 314 313 310 304 309 311 312 317 324 322 324 328 331 333 335 337 340 344 345 350 353 360 363 363 362 358 356 353 352 350 347 348 347 344 348 348 354 351 351 352 348 348 346 348 346 345 344
315 312 305 303 303 302 312 309 315 321 324 327 327 328 331 334 336 337 337 340 345 348 352 358 358 358 358 356 354 350 350 352 351 349 348 348 343 347 348 352 351 347 348 348 346 345 344 343 341
312 312 305 300 301 304 312 307 314 320 326 331 332 333 332 332 337 339 341 342 346 349 354 354 355 355 355 355 355 353 355 350 351 352 347 344 344 346 350 349 349 348 348 348 348 345 344 344 342
312 309 314 308 309 304 308 312 317 320 319 320 323 324 330 332 334 338 342 345 347 349 352 354 355 356 355 352 358 356 355 353 352 353 352 345 353 343 346 347 347 348 347 347 348 343 342 341 341
315 316 307 308 302 300 305 307 308 318 317 319 319 321 326 334 335 336 340 345 350 350 353 353 356 356 352 353 352 352 352 352 353 352 350 350 351 350 348 347 346 346 345 345 343 343 340 341 339
312 311 311 311 308 302 301 305 319 321 321 319 320 323 324 327 336 338 341 347 352 350 350 349 351 353 350 351 353 351 347 348 350 348 348 349 352 351 349 347 345 344 342 344 342 342 342 337 339
315 313 313 307 307 309 308 306 320 320 319 320 322 323 327 330 335 342 342 348 350 349 347 345 344 346 347 349 352 350 349 349 349 348 348 350 349 350 348 347 345 344 342 342 340 339 340 338 336

GFSSGP_sfc_thetae_003.txt.gz
Theta_e
359 357 351 345 327 317 309 313 323 321 324 331 332 327 328 332 326 316 341 350 353 354 359 360 366 367 367 368 367 366 366 369 369 369 370 371 370 370 370 370 370 369 369 365 364 365 364 364 363
349 348 347 335 317 305 306 316 314 325 330 332 331 334 331 327 336 339 344 350 353 355 358 362 366 368 367 368 367 369 369 370 370 370 370 370 370 370 370 368 367 368 367 364 364 364 363 362 361
348 347 334 328 308 306 306 314 318 327 331 331 332 336 334 331 341 343 348 352 355 354 359 362 369 368 368 368 369 370 370 370 369 369 370 370 370 368 366 366 366 367 368 366 363 362 362 361 360
339 337 335 312 306 312 313 317 323 327 331 334 335 331 339 345 342 347 354 356 355 356 361 368 370 369 370 371 370 371 371 370 370 369 368 368 368 367 365 365 365 364 365 366 364 363 362 362 360
342 332 318 307 309 315 317 320 322 324 329 333 337 331 335 344 348 352 353 355 353 357 362 366 370 370 370 370 372 372 371 370 370 369 368 368 370 367 367 365 363 362 361 362 364 362 361 360 359
324 324 315 306 310 312 315 321 325 329 331 334 336 335 336 347 347 350 353 354 356 356 362 364 370 371 371 371 370 372 371 369 369 369 369 368 369 368 366 363 361 360 359 359 360 365 363 360 360
323 319 316 314 312 314 316 323 323 326 329 330 339 332 338 343 349 352 353 355 356 357 359 363 365 367 370 372 371 370 369 370 370 370 369 367 366 365 364 365 363 361 359 359 360 362 365 364 362
326 321 316 316 315 310 319 321 325 325 326 338 339 328 330 342 350 352 354 353 355 356 358 358 361 364 365 366 372 369 369 369 370 369 367 367 365 362 362 356 358 362 363 361 361 361 362 364 362
332 316 312 315 316 315 322 320 326 330 330 334 335 336 339 344 350 348 349 351 352 356 357 357 358 360 361 363 367 371 370 371 369 368 368 365 357 354 351 353 352 359 363 361 360 359 361 361 360
324 317 313 321 323 322 326 327 328 326 328 329 333 338 340 342 343 343 346 345 346 349 355 356 357 358 360 361 361 363 363 363 360 359 359 359 355 353 355 348 347 360 362 361 360 359 360 358 350
325 317 321 321 325 326 324 328 331 330 323 330 330 333 336 340 342 344 343 342 348 350 351 352 354 357 357 360 359 358 356 359 359 358 358 357 353 349 352 351 350 351 358 355 359 355 354 351 349
317 321 324 325 328 326 324 326 322 330 327 336 336 337 337 336 337 339 340 340 346 346 349 355 359 356 355 357 358 357 358 357 356 358 357 355 352 350 353 353 353 353 351 351 352 350 352 349 350
317 318 322 323 324 326 329 325 324 323 329 338 338 338 337 336 336 339 341 344 344 344 353 354 354 356 355 354 356 353 356 356 354 355 356 355 352 350 353 352 352 352 352 350 350 350 349 350 350
320 318 321 321 322 326 325 322 325 325 332 334 335 335 336 336 336 337 339 343 343 343 351 355 354 357 355 356 356 355 356 353 356 355 354 358 355 352 351 350 349 353 349 352 350 349 348 347 349
321 314 318 319 321 324 328 323 325 331 332 331 333 334 335 336 338 337 340 341 343 344 346 351 354 358 355 355 356 357 357 357 352 353 353 354 354 351 351 347 349 349 350 350 350 349 350 347 347
313 312 306 316 318 323 324 316 328 332 330 329 332 334 335 335 337 339 341 341 344 342 347 346 355 356 356 357 357 356 353 355 356 353 354 355 357 353 350 347 348 348 349 346 344 343 342 343 344
309 304 309 313 316 317 318 319 328 332 332 331 332 333 335 336 337 338 341 341 342 346 347 345 347 352 356 356 358 357 357 356 355 356 355 354 355 355 352 350 350 345 344 343 343 342 343 341 340
304 306 311 311 314 315 316 319 327 330 331 331 332 335 336 337 338 340 344 346 347 347 348 350 349 352 355 355 355 357 354 351 355 356 353 352 351 355 350 348 347 347 346 345 344 341 342 342 341
312 310 311 316 318 314 315 320 324 327 328 326 328 331 333 335 341 343 345 346 347 349 349 350 347 353 354 352 351 350 348 350 352 354 355 351 352 352 350 348 347 347 345 344 343 342 339 337 340
309 312 311 316 319 315 314 317 322 323 325 328 329 330 332 333 340 343 344 344 346 347 351 353 353 355 355 355 354 353 352 353 352 355 352 350 348 350 350 348 345 342 342 340 338 339 336 337 340
307 305 311 312 318 318 316 311 316 322 323 328 331 332 332 333 335 340 343 343 346 349 352 354 356 356 356 353 355 352 349 348 344 347 347 341 339 340 343 341 340 341 340 338 338 337 335 333 336
300 310 311 313 312 304 315 302 310 315 316 323 328 329 329 333 334 336 336 337 345 351 354 356 356 354 356 354 351 343 336 326 338 339 339 338 340 339 339 340 341 339 339 338 338 341 336 336 332
305 311 308 307 306 303 307 301 309 314 312 318 323 328 330 332 334 335 337 340 345 351 352 352 355 356 348 337 339 331 326 331 335 336 334 330 334 339 342 343 339 338 338 338 339 337 336 335 333
313 307 305 304 299 293 300 302 306 310 314 319 323 326 329 331 334 336 338 341 345 348 352 356 353 344 342 336 333 329 328 329 329 332 330 332 332 333 340 339 336 337 336 336 335 337 336 335 333
307 302 295 293 293 293 301 300 307 317 320 319 320 321 325 330 332 334 335 339 344 345 350 355 347 342 340 337 337 333 332 331 330 330 333 329 329 334 334 334 335 332 334 336 336 334 333 333 331
303 301 297 292 293 297 304 298 305 321 323 323 324 322 324 328 331 332 334 336 342 344 349 350 345 343 340 339 335 333 332 331 334 338 333 328 329 332 334 332 335 334 336 336 336 333 332 333 330
304 300 305 298 300 296 300 305 314 320 320 322 324 323 321 324 330 330 333 336 341 342 349 348 346 345 342 340 337 335 335 334 335 334 332 331 335 333 333 333 334 335 336 336 335 334 332 330 329
307 309 299 297 292 291 298 303 302 308 312 319 321 321 322 324 329 331 332 335 341 343 347 348 348 345 345 342 341 340 339 336 335 334 332 333 331 335 333 334 335 335 334 334 333 330 330 329 329
304 301 302 301 298 292 292 298 312 313 313 312 312 315 319 326 326 332 333 337 341 344 348 348 348 346 344 343 340 339 337 336 336 334 333 334 336 336 335 335 334 333 333 334 332 330 331 330 329
307 304 304 297 297 299 298 301 315 315 315 315 317 319 318 323 327 331 336 339 341 343 346 346 348 345 342 342 341 333 331 334 334 333 333 333 332 333 333 332 332 334 334 333 332 329 331 329 327

GFSSGP_sfc_thetae_006.txt.gz
Theta_e
361 356 351 344 323 313 310 316 321 321 323 331 333 330 326 330 323 315 341 350 354 356 358 361 366 367 366 367 367 367 369 369 369 369 369 370 369 369 368 368 366 367 365 364 364 363 362 361 361
353 352 347 335 315 303 305 320 320 323 328 333 335 333 330 327 337 337 343 352 356 356 358 361 366 368 367 367 368 368 368 368 369 370 369 369 370 370 368 365 365 365 364 363 362 361 361 360 359
348 348 333 325 309 303 308 321 324 326 330 331 330 336 332 332 340 342 348 353 356 357 359 361 367 368 366 368 369 369 369 367 369 369 370 370 368 366 365 365 364 364 364 362 361 360 360 359 358
341 334 331 315 304 310 319 324 328 326 330 336 336 329 338 344 343 347 351 354 354 357 360 366 368 366 367 369 369 369 368 366 369 369 368 367 366 364 365 365 364 364 363 362 361 360 360 359 358
338 327 314 305 307 313 324 327 329 328 332 333 335 330 333 343 351 353 352 354 353 357 361 362 367 367 368 369 370 370 369 368 367 367 366 367 368 365 365 364 363 362 361 360 360 358 358 358 358
320 321 312 309 309 311 323 329 330 333 334 335 333 332 334 347 349 352 354 353 356 358 361 362 365 367 368 369 368 369 368 367 367 368 368 367 367 366 365 363 363 361 360 359 358 359 360 359 360
322 318 313 312 313 317 324 330 329 333 333 333 338 330 335 342 349 352 353 354 357 361 361 362 362 364 368 370 369 367 367 367 367 368 368 367 366 363 363 363 363 362 360 358 359 360 362 361 362
325 321 314 312 312 309 325 323 331 332 330 342 340 330 330 340 349 352 352 353 354 357 359 361 361 362 363 364 369 366 367 366 366 366 366 365 364 363 362 359 363 362 361 360 359 361 361 361 361
329 314 310 314 313 314 319 322 332 335 336 336 337 337 342 346 349 349 348 350 352 355 356 358 359 360 361 362 365 368 366 368 367 365 366 366 356 354 348 354 356 358 362 362 360 360 361 362 360
321 314 315 321 321 318 321 323 326 329 331 331 335 340 346 347 347 345 346 346 348 350 352 355 357 358 359 365 357 358 361 362 359 359 358 356 353 352 355 352 352 354 361 362 360 360 360 359 350
320 316 322 322 324 326 325 327 331 328 326 331 330 334 343 344 345 345 347 347 348 352 353 353 356 356 357 358 357 355 357 358 357 355 355 354 352 352 349 349 349 350 356 353 357 355 353 351 348
317 323 323 322 329 323 324 325 321 328 329 336 336 339 342 341 342 345 344 345 347 349 351 352 354 355 356 357 357 356 355 355 355 355 355 352 349 346 350 349 351 351 349 350 350 350 350 348 348
318 321 324 326 324 324 325 321 323 328 334 336 336 337 338 340 341 342 343 347 348 346 349 353 355 354 353 354 355 354 355 356 355 354 355 354 350 348 351 349 350 350 350 348 348 346 346 347 348
321 323 324 325 324 324 320 321 322 331 335 334 334 334 335 336 338 338 341 343 344 347 351 354 353 353 352 351 352 351 351 354 353 353 353 352 350 348 350 349 347 347 347 349 348 347 346 346 346
322 318 320 323 323 324 329 322 322 329 334 332 333 334 335 335 337 338 342 341 341 346 351 350 351 354 352 352 353 353 353 353 352 351 352 350 352 351 349 345 343 347 347 347 347 345 345 343 345
312 311 306 315 323 325 323 315 324 331 331 329 332 334 334 335 336 339 343 341 342 344 349 350 354 354 351 352 354 355 354 352 352 351 350 351 353 352 348 344 343 347 345 345 343 340 339 339 340
304 302 307 310 318 322 320 317 325 328 328 327 330 332 333 333 335 338 342 342 342 342 346 347 351 352 352 354 354 354 354 353 353 352 349 351 351 351 348 345 346 345 342 341 341 341 339 339 338
300 304 309 308 313 317 319 318 325 327 327 327 328 330 331 332 334 338 340 342 342 343 344 343 345 351 353 353 353 353 353 349 350 350 348 350 349 350 351 347 345 345 343 342 342 340 338 339 338
306 308 309 312 314 319 318 319 323 327 328 328 328 330 331 332 335 337 339 341 344 344 344 344 345 349 351 349 347 346 345 347 348 349 352 351 350 350 347 346 344 344 341 340 340 338 337 335 336
305 307 309 313 315 312 318 319 323 326 328 329 329 331 332 334 334 337 340 342 343 343 343 346 345 349 350 349 348 348 347 348 349 350 351 349 347 349 347 345 343 340 339 336 335 334 333 334 337
303 307 309 310 315 315 317 313 317 325 328 328 330 333 334 334 334 336 339 340 344 344 346 347 349 350 351 351 351 349 346 344 341 343 344 341 338 339 340 339 336 337 335 334 334 334 333 330 333
298 308 314 313 311 303 313 301 309 318 319 321 326 329 332 334 338 339 339 338 342 346 350 349 350 351 352 350 349 344 337 327 334 337 337 333 335 337 337 337 339 337 335 334 334 338 333 332 328
304 308 307 313 309 305 308 302 310 312 309 313 321 328 330 334 338 339 340 340 345 348 351 351 351 352 352 347 347 334 326 328 334 334 332 330 330 334 337 340 337 334 334 332 334 332 332 332 329
311 305 301 301 299 295 304 302 301 308 313 315 318 328 329 332 338 340 342 341 345 348 351 352 349 347 341 337 330 325 327 326 329 328 326 327 326 334 338 336 333 333 331 332 332 333 331 331 330
304 296 290 290 290 290 295 303 305 314 318 316 318 327 329 332 333 336 336 337 344 346 348 351 349 343 334 331 328 325 327 326 326 326 328 327 331 330 330 331 331 328 330 332 332 331 329 329 328
299 297 291 287 290 293 298 295 302 316 321 320 322 328 330 330 332 334 334 336 342 346 347 349 345 342 334 331 330 329 329 327 327 330 330 324 326 330 331 330 331 331 331 332 332 331 329 329 328
300 296 301 295 295 293 296 302 311 316 317 318 318 321 325 329 331 332 335 337 341 344 347 349 343 340 336 333 331 329 329 332 333 332 329 326 330 330 330 331 331 331 333 331 331 330 332 328 327
304 304 296 293 289 287 294 297 300 310 313 317 317 317 320 327 331 332 334 336 342 343 347 350 344 340 337 336 332 331 331 332 332 331 329 331 329 330 329 330 330 331 331 331 329 328 328 327 326
301 298 297 297 294 290 289 294 306 314 315 317 318 321 319 323 328 330 333 335 341 343 346 348 345 342 338 337 334 333 334 332 331 330 330 330 330 332 333 332 332 330 330 331 330 329 328 327 326
304 301 298 294 292 293 293 296 311 313 314 319 320 322 319 321 326 329 331 333 338 340 345 346 345 343 341 339 337 336 336 333 331 330 330 330 331 330 329 330 330 330 331 330 329 329 329 327 325

GFSSGP_sfc_thetae_009.txt.gz
Theta_e
359 355 350 343 319 312 310 314 322 320 323 331 332 329 326 328 321 314 340 347 351 351 354 358 363 363 363 364 366 365 365 365 366 367 368 368 366 365 365 364 364 364 363 363 363 361 360 360 359
355 350 345 332 307 303 305 318 318 322 328 333 334 332 329 326 334 337 341 353 355 356 356 359 364 365 365 366 367 367 366 366 368 368 369 368 366 366 365 365 364 363 362 362 361 360 358 358 358
350 348 332 323 306 304 307 318 321 326 333 332 330 334 332 329 338 340 347 354 355 355 357 360 366 366 365 365 368 367 367 367 367 367 367 367 366 364 364 363 362 362 362 360 360 358 357 357 357
341 333 328 308 304 311 319 320 323 326 329 335 334 329 337 344 341 345 351 355 354 355 358 364 365 365 366 366 367 367 367 367 368 368 367 365 364 364 363 363 362 362 361 360 358 358 357 357 357
337 324 309 304 306 320 323 325 326 324 330 332 334 329 332 344 347 349 351 353 352 354 359 360 367 366 367 366 365 365 365 366 368 367 364 364 363 363 363 363 362 361 360 359 359 359 358 358 357
318 318 307 305 309 321 324 327 327 331 333 332 331 330 333 347 345 349 352 351 356 356 358 360 365 366 366 366 364 365 364 363 364 364 365 365 365 364 363 362 361 360 358 358 358 359 359 359 359
319 314 310 308 310 318 323 331 331 330 330 330 335 328 337 343 348 351 350 352 355 358 358 357 358 362 366 368 366 364 364 363 363 365 364 365 364 363 363 362 361 360 359 359 360 361 361 360 360
323 316 310 309 311 314 325 327 334 331 330 339 338 327 329 342 350 351 352 353 356 358 359 358 357 358 359 361 366 365 364 363 363 365 364 364 363 362 362 361 362 362 362 362 361 360 360 361 360
328 310 307 311 310 313 326 325 336 338 334 334 337 336 339 347 350 347 348 350 352 356 356 358 358 358 359 359 361 365 364 365 364 364 364 365 356 354 349 352 358 357 360 361 360 359 358 359 358
319 309 312 319 318 316 322 327 329 331 330 331 333 340 343 346 346 344 344 345 347 350 352 355 357 357 357 363 359 358 357 357 356 357 357 355 352 351 352 354 357 352 358 362 359 360 360 357 349
319 314 319 320 322 319 321 324 328 329 325 330 331 336 340 342 344 343 345 346 346 350 352 354 355 357 356 358 355 356 356 354 355 355 353 353 351 351 349 347 348 348 353 352 354 354 352 350 348
310 320 321 321 327 322 322 325 327 328 328 335 339 341 341 341 342 343 344 345 346 349 350 352 355 355 355 355 355 354 355 352 353 353 353 351 348 346 343 347 348 349 348 348 348 348 347 348 349
310 317 322 323 324 324 322 322 325 326 333 337 341 342 341 342 343 345 347 347 349 348 351 351 354 354 355 353 354 353 353 353 352 353 353 352 349 345 347 349 349 349 348 347 346 345 346 345 346
317 320 321 322 321 322 321 325 327 330 335 334 339 339 341 341 342 344 344 344 346 349 348 351 353 353 352 349 352 351 352 352 353 352 353 353 350 347 347 347 345 345 347 346 347 345 344 344 344
322 317 321 321 320 318 325 318 323 331 333 332 336 337 339 340 342 341 342 344 347 347 348 351 352 352 350 349 350 347 351 350 351 351 351 351 351 348 347 344 342 344 346 345 345 342 340 340 341
315 312 311 317 322 324 322 313 326 331 329 328 331 334 336 338 338 339 342 344 345 346 348 351 353 352 350 350 351 351 352 351 350 350 349 349 350 350 348 342 342 345 343 343 342 339 338 338 338
305 307 306 313 320 321 319 314 325 330 329 327 329 331 332 332 335 338 342 342 341 346 348 348 349 350 349 350 351 351 351 350 350 350 348 348 349 350 347 342 343 343 342 341 339 339 337 336 336
306 303 310 311 319 318 317 316 325 328 327 327 329 330 331 332 332 337 342 342 341 346 348 348 349 349 349 350 350 351 350 350 350 348 348 348 348 349 346 345 345 343 341 339 338 337 336 336 336
306 305 310 314 315 317 316 317 321 326 326 325 327 328 329 331 334 337 341 342 341 342 344 343 344 347 348 347 345 345 346 346 347 348 350 350 348 349 346 344 342 341 338 337 337 336 334 333 334
304 303 306 310 317 316 315 316 321 323 324 325 326 326 328 330 331 334 338 339 339 340 342 341 343 345 349 347 345 346 344 345 345 347 349 349 348 347 346 343 341 339 337 334 333 332 330 331 334
301 301 303 307 312 318 317 312 317 323 325 326 328 329 330 330 330 332 335 336 340 339 340 342 342 346 348 348 346 346 344 342 340 342 343 342 344 344 342 340 336 334 333 332 331 332 330 327 330
297 306 308 310 308 304 315 302 310 318 321 324 327 328 330 332 332 333 335 337 339 340 342 343 344 346 348 348 346 343 340 334 331 336 338 336 333 335 336 335 335 334 333 332 332 335 331 329 325
304 307 305 308 306 305 306 302 307 315 314 320 325 327 331 333 333 333 335 338 340 342 344 345 346 347 348 347 347 343 333 329 332 332 332 329 330 333 334 336 336 333 331 330 332 330 330 329 327
309 303 299 299 299 296 305 302 300 310 316 320 323 325 331 332 335 335 337 338 339 343 346 347 346 347 348 346 344 338 328 328 330 328 327 324 326 328 333 337 332 331 330 330 330 330 329 329 328
302 295 289 291 293 294 300 301 303 312 320 322 322 323 329 332 335 336 336 337 338 341 345 347 347 346 346 342 336 331 326 327 329 327 325 326 328 329 331 330 330 327 327 329 329 329 326 327 326
298 296 290 285 287 293 296 298 306 314 320 323 324 324 328 329 335 336 338 338 338 342 344 347 347 345 341 336 329 324 325 324 324 325 326 325 327 329 329 329 329 328 329 330 329 328 328 327 327
297 293 298 291 291 290 293 298 306 312 313 319 319 319 325 328 332 336 338 338 339 342 344 346 347 346 339 332 328 324 325 325 325 328 329 324 325 330 329 329 329 329 330 330 328 328 327 327 327
302 301 293 291 287 286 291 294 297 305 309 315 316 317 323 327 330 334 337 337 340 343 345 346 348 346 340 332 329 328 327 328 330 330 327 326 328 328 328 328 329 328 330 329 326 326 327 325 325
298 295 293 294 291 288 288 293 302 306 311 313 316 319 323 326 329 331 334 336 337 342 344 345 346 345 340 334 331 328 328 330 330 329 328 328 328 327 328 327 328 329 328 327 327 327 327 325 324
300 298 297 294 290 290 291 294 306 309 314 316 317 318 319 324 328 331 332 334 334 337 341 344 345 343 340 335 332 330 330 330 329 328 328 327 327 329 331 330 329 328 328 328 328 327 328 326 324

GFSSGP_sfc_thetae_015.txt.gz
Theta_e
363 361 357 346 323 322 315 317 325 324 324 332 333 329 327 329 323 320 345 350 351 352 356 360 361 361 360 361 361 362 364 364 366 366 365 363 361 362 363 364 364 363 362 362 361 360 359 360 360
359 353 349 339 318 312 314 321 322 325 331 335 335 333 329 326 336 338 343 352 352 352 356 359 362 362 362 361 361 364 362 362 366 366 365 363 362 363 363 363 363 362 362 361 360 360 359 359 359
353 349 339 323 318 311 314 321 326 331 334 332 331 336 331 330 338 341 348 353 355 356 358 362 361 363 363 362 362 363 366 363 363 365 364 363 364 364 363 362 362 361 361 360 359 359 359 359 359
346 343 332 315 313 319 320 325 331 331 334 335 333 328 337 342 340 346 352 354 355 356 359 363 363 363 363 362 363 364 365 365 366 364 363 364 363 362 361 360 360 360 360 359 359 360 359 359 358
342 331 316 314 316 323 326 330 332 329 332 331 333 328 331 344 348 350 352 354 354 356 361 362 364 364 365 365 364 366 365 363 364 364 363 362 363 362 361 361 360 360 359 359 359 359 360 360 359
328 326 314 311 317 323 326 331 333 332 333 332 331 329 334 348 345 349 352 353 354 355 359 361 363 365 365 364 364 365 363 363 363 363 363 362 362 361 360 360 359 359 359 358 359 360 360 361 360
325 321 314 315 319 321 324 333 331 331 331 330 335 328 336 342 346 350 352 354 355 357 358 361 362 365 364 366 363 364 364 363 363 363 363 363 363 361 361 360 360 360 359 360 361 360 359 359 359
328 324 316 317 318 317 328 332 336 332 330 339 339 328 330 343 347 350 352 353 354 356 359 362 364 363 362 362 364 364 364 364 363 363 364 363 363 361 360 361 360 361 361 360 361 360 357 358 357
329 319 314 315 319 321 331 329 336 339 334 335 338 337 339 347 348 347 348 350 354 356 359 360 360 362 365 364 362 362 362 361 361 362 363 362 362 361 361 356 358 359 359 358 360 359 356 359 356
326 319 316 321 324 325 330 332 334 333 331 331 335 341 345 347 345 342 343 344 348 351 356 359 360 360 361 358 365 364 361 360 361 362 364 363 364 363 360 355 359 359 355 358 358 357 357 356 358
324 319 322 323 325 330 330 331 335 331 327 332 334 339 343 344 344 342 343 344 346 351 354 357 361 362 362 363 363 364 363 362 362 364 364 364 362 361 361 362 359 360 358 360 359 360 359 357 358
319 323 324 324 327 329 328 333 330 331 328 336 340 342 343 342 342 342 342 345 347 350 353 356 359 362 363 362 360 361 359 361 359 359 365 362 360 359 360 358 359 363 364 362 361 360 361 359 357
314 316 322 326 327 330 332 329 329 330 334 339 342 342 341 342 343 346 346 347 350 350 353 357 360 361 363 363 361 359 360 358 359 360 362 360 358 363 363 359 361 365 363 360 362 362 360 357 354
315 317 321 326 325 329 327 328 330 331 338 338 340 340 341 342 344 347 346 347 349 351 353 357 359 362 363 362 364 362 361 362 361 361 360 362 361 365 365 363 363 364 361 361 362 361 357 354 353
324 320 324 324 325 325 329 324 325 334 338 336 337 339 341 343 346 345 347 348 350 351 352 354 357 360 362 362 362 363 362 365 360 360 364 362 364 364 363 366 364 361 360 359 359 357 357 353 352
319 321 315 322 324 326 325 316 327 335 336 334 335 337 339 342 344 347 349 350 353 352 352 355 354 356 359 361 362 362 362 361 363 363 366 363 363 364 365 366 362 362 360 358 356 356 353 352 349
317 312 314 318 325 325 323 318 328 335 335 333 334 336 338 341 344 348 350 352 354 355 355 356 357 357 360 362 362 363 366 366 367 362 362 364 364 363 363 362 362 359 357 360 357 355 352 345 343
311 313 315 316 321 324 321 321 328 333 333 333 335 337 338 340 344 348 351 352 354 355 357 358 358 360 362 362 362 360 363 361 362 366 365 363 365 362 360 362 360 358 359 354 355 353 352 347 346
316 315 315 319 323 321 320 321 326 331 332 331 334 337 338 339 344 348 349 351 352 354 356 357 358 361 361 358 357 357 355 361 361 367 361 363 363 362 362 361 358 357 353 353 354 351 348 346 349
316 315 315 319 322 322 320 320 325 329 330 332 333 335 337 339 342 345 348 349 350 352 354 357 358 361 361 359 359 359 359 360 360 362 363 363 362 362 360 359 354 355 351 351 350 350 345 345 349
314 314 315 315 319 322 321 317 321 328 331 332 333 335 336 337 339 341 344 346 349 350 352 355 359 361 361 362 360 359 360 360 357 357 358 360 361 361 360 357 354 354 350 344 349 348 345 341 346
307 315 318 316 315 309 320 307 318 324 326 329 331 332 333 335 338 340 341 344 346 348 352 357 359 360 360 361 358 358 353 352 354 354 356 359 360 358 358 355 352 351 347 349 348 348 348 345 339
310 313 315 317 315 313 314 310 314 322 321 326 330 332 334 335 337 338 340 343 346 349 349 352 357 360 360 360 361 357 356 356 355 352 356 359 356 355 351 350 349 349 347 349 347 347 347 345 342
311 310 310 313 313 304 311 311 309 317 321 325 329 332 333 335 336 339 341 343 345 348 349 350 355 358 358 358 359 359 358 357 352 350 347 351 350 347 348 347 350 351 349 346 345 347 346 344 344
310 308 301 300 301 300 309 310 312 319 324 326 327 330 333 335 336 337 339 340 345 346 348 350 355 355 356 356 357 358 359 359 355 353 348 349 346 343 344 348 349 348 349 346 346 346 345 344 342
307 307 302 296 297 300 306 304 311 322 324 327 330 331 333 334 337 338 342 343 344 345 350 352 354 355 355 355 358 361 361 356 354 353 348 347 346 343 347 347 348 348 345 345 345 343 343 344 342
306 303 311 303 300 301 305 310 314 319 320 322 325 329 331 334 336 337 340 341 344 347 350 351 354 355 356 355 359 359 360 358 354 352 349 347 348 343 346 347 347 345 342 344 346 342 343 343 343
307 310 301 302 298 295 300 303 305 315 318 323 323 326 330 334 336 338 341 344 346 347 350 352 354 354 356 354 357 357 356 352 355 351 344 346 346 345 346 346 344 343 343 343 345 341 342 342 341
304 303 304 306 304 299 297 301 315 317 321 322 324 326 329 333 335 339 343 344 347 347 348 349 352 354 355 356 358 358 353 351 347 347 344 340 345 344 344 344 343 343 343 343 343 343 342 340 342
307 305 306 302 301 302 302 303 314 317 320 322 324 326 328 332 334 339 341 343 344 346 346 347 351 350 354 355 357 355 351 343 347 334 341 343 341 342 343 343 342 342 341 343 342 341 339 340 340

GFSSGP_sfc_thetae_018.txt.gz
Theta_e
362 362 361 354 330 324 319 320 328 326 328 334 333 328 330 334 328 324 348 352 353 353 357 358 359 361 361 361 361 361 362 361 365 363 363 361 362 364 365 364 363 363 363 362 361 360 360 359 359
362 359 355 342 319 313 317 325 324 328 333 337 336 334 331 330 339 342 346 352 355 353 356 357 362 361 362 362 362 363 361 361 364 364 363 362 362 364 364 363 362 363 362 361 360 360 359 359 359
358 356 342 324 319 315 317 325 329 332 334 333 333 337 334 333 341 344 351 354 354 355 359 362 361 362 362 362 362 364 364 363 363 362 362 362 364 364 363 362 362 362 361 360 360 360 360 359 359
350 348 339 318 313 320 323 328 333 333 335 335 335 331 339 344 343 349 353 354 355 356 359 361 362 363 363 363 363 364 364 363 363 362 363 364 363 362 361 361 362 361 360 360 359 360 360 359 359
349 338 318 314 316 321 327 332 333 331 332 332 334 330 334 345 349 353 355 356 355 356 359 362 363 365 364 364 363 363 363 363 363 363 363 363 363 363 362 362 361 360 358 359 359 360 361 360 360
335 331 314 310 316 322 327 333 333 332 334 333 333 333 337 348 349 353 354 355 356 356 357 360 363 364 364 365 363 364 363 363 363 363 363 363 363 362 361 360 359 359 358 358 360 361 359 359 359
330 323 314 315 317 320 325 333 331 332 332 331 336 332 340 343 350 353 354 354 355 358 356 358 362 364 363 365 364 362 362 362 362 362 362 362 362 361 360 359 359 359 359 360 360 360 358 358 356
333 326 316 317 315 317 327 331 334 332 331 339 338 330 334 343 349 351 352 353 353 356 359 360 363 363 361 362 362 362 362 362 362 362 363 363 362 360 360 360 359 360 359 359 359 358 356 357 356
334 322 317 316 316 322 330 329 335 338 335 336 338 336 342 345 348 348 348 350 352 353 356 359 360 361 361 360 361 363 363 363 362 363 362 361 359 361 358 359 358 360 360 359 358 357 356 357 357
328 323 319 322 325 324 328 329 334 333 332 332 336 340 344 345 346 344 345 347 350 353 355 357 357 359 360 357 364 363 360 358 359 360 363 359 362 362 359 359 357 358 354 356 357 356 358 358 357
327 322 324 324 326 329 328 330 334 329 328 332 334 338 343 344 344 344 346 348 350 354 354 356 358 360 360 359 359 359 359 359 359 364 363 361 361 360 362 360 361 363 359 360 359 359 358 356 359
321 326 326 326 327 329 327 332 330 330 329 335 338 342 343 343 342 343 344 347 350 352 354 356 359 361 361 360 358 358 357 357 356 357 363 361 358 359 365 360 363 364 359 360 360 359 360 359 359
319 321 322 324 326 328 331 330 328 330 334 338 340 342 342 342 343 345 345 347 350 351 354 357 360 363 363 364 358 357 356 356 356 357 360 358 355 360 359 359 359 363 361 359 359 359 359 358 358
320 319 320 323 326 329 329 329 331 332 336 338 340 341 341 342 344 345 346 347 349 351 352 356 359 362 364 363 364 360 359 357 357 356 358 363 358 358 357 358 358 357 361 361 361 360 358 357 356
321 318 323 324 327 328 331 326 327 334 337 339 339 341 341 342 344 345 348 348 350 352 353 355 359 361 363 364 363 362 359 359 358 357 362 365 369 365 363 364 357 357 365 362 362 361 359 354 352
318 319 316 325 327 329 330 319 329 337 336 337 338 339 339 342 344 347 349 350 352 353 354 356 355 359 362 364 363 361 360 361 366 361 365 363 365 364 364 359 357 359 359 361 356 356 352 349 346
317 313 315 322 328 327 327 320 329 337 336 336 336 337 338 341 344 347 349 350 352 354 355 356 357 356 360 364 363 364 366 362 360 360 371 363 364 363 361 358 358 362 364 358 357 352 350 341 338
312 313 315 316 324 327 324 323 329 334 335 334 336 337 337 339 341 347 349 351 354 357 358 359 358 361 364 370 366 367 371 362 361 363 362 364 363 362 363 359 361 360 357 356 354 351 346 342 340
317 316 315 319 326 324 323 322 328 333 334 333 335 337 337 337 342 347 350 352 353 356 359 360 361 364 363 361 358 357 354 358 360 363 363 364 364 364 363 357 360 360 355 354 354 346 342 339 347
316 315 315 320 326 325 323 322 326 330 333 334 335 337 338 338 341 346 349 351 352 355 358 362 363 365 365 363 365 359 358 357 359 362 363 365 363 364 361 361 358 358 352 353 346 347 340 340 346
315 314 315 317 323 325 322 321 324 328 332 335 336 337 340 339 340 343 346 349 352 354 357 360 364 365 367 367 363 363 363 361 358 357 357 360 363 363 363 361 357 356 348 340 347 346 344 337 344
311 317 317 318 318 313 323 309 319 324 326 331 335 335 336 340 342 343 345 347 350 353 357 362 364 366 367 368 366 365 355 351 350 353 353 355 361 359 359 360 356 351 343 347 347 348 345 345 338
312 318 317 318 318 317 317 313 317 323 323 327 333 335 335 337 339 341 343 346 349 352 354 358 364 367 368 368 369 361 360 354 354 353 356 359 360 359 358 358 352 349 344 350 351 348 347 344 338
316 315 316 317 317 309 315 314 314 318 323 326 331 335 336 335 337 339 342 345 347 351 353 355 362 368 368 366 366 366 363 360 353 355 351 350 352 356 359 354 351 350 348 350 348 348 347 345 344
314 312 306 304 305 305 316 313 315 320 323 326 325 333 337 336 336 337 339 341 345 348 351 353 364 367 367 365 364 364 364 363 361 360 351 350 347 346 354 355 351 348 353 352 348 348 346 344 342
310 312 306 300 301 305 314 308 313 323 325 326 328 330 336 338 337 338 340 342 345 348 352 356 362 366 364 363 364 368 367 361 359 361 351 347 344 346 354 354 350 351 351 351 347 343 343 344 343
309 308 315 309 310 306 309 314 319 322 322 324 326 330 333 337 338 337 340 343 345 349 355 360 364 366 365 361 367 366 367 365 361 364 361 351 353 346 352 351 350 350 351 348 347 342 344 343 344
311 315 307 309 303 300 306 309 310 317 319 322 323 327 331 336 338 339 339 343 346 349 353 356 362 366 363 361 362 361 362 364 364 364 360 357 354 352 350 350 349 349 348 347 348 343 344 343 338
307 307 310 312 309 303 302 306 317 317 320 320 322 327 330 333 337 340 341 343 348 350 352 354 357 359 360 362 364 364 361 361 363 361 358 357 355 354 350 351 349 347 345 346 347 344 342 341 342
311 309 311 305 306 308 307 307 319 321 321 321 322 324 326 331 335 340 343 344 345 348 350 353 355 356 358 362 364 363 363 364 359 361 359 355 353 352 350 348 349 346 345 346 344 341 340 341 340

GFSSGP_sfc_thetae_021.txt.gz
Theta_e
360 359 359 353 330 322 317 320 328 326 328 333 334 333 330 333 327 321 346 352 352 353 357 358 361 361 362 362 361 362 362 362 364 364 365 363 364 365 364 364 363 363 362 361 361 360 360 360 358
359 359 358 345 322 311 316 325 322 328 333 336 335 334 331 330 338 340 343 351 351 351 353 356 361 362 362 362 362 361 360 361 361 363 364 362 364 364 363 363 362 362 361 360 360 360 360 359 359
360 359 344 335 319 313 316 324 328 331 334 333 332 337 336 334 341 344 350 350 349 353 356 359 362 362 363 362 363 363 362 362 361 362 362 363 364 363 362 362 362 361 360 360 360 360 359 359 359
356 349 343 320 315 322 323 327 330 330 334 336 336 332 340 345 344 349 354 352 352 355 357 360 362 362 362 363 363 363 363 362 361 361 363 363 362 361 361 361 360 360 360 360 359 360 360 360 360
352 341 323 316 317 323 328 331 331 328 331 333 336 332 335 345 350 351 353 352 352 354 358 359 364 364 363 364 365 364 363 362 361 362 363 362 362 361 361 360 359 359 359 360 361 361 359 359 359
337 332 316 312 315 322 329 331 330 331 332 332 334 334 338 349 349 352 354 354 353 356 358 361 364 364 364 364 363 362 362 362 362 362 362 362 362 361 360 358 358 358 360 360 361 361 358 359 357
333 324 316 316 316 318 324 331 328 329 330 332 338 333 340 345 351 352 354 354 352 355 357 360 361 364 365 364 363 362 362 362 362 361 361 361 361 359 358 357 358 357 359 360 359 359 357 357 356
336 326 316 319 316 316 325 328 330 329 329 338 341 333 334 345 350 351 351 352 352 357 356 358 361 361 364 365 362 361 361 361 361 360 362 362 362 361 359 359 359 358 358 358 358 357 356 357 356
338 320 317 316 318 319 326 325 330 336 332 333 336 339 343 348 349 348 347 349 350 354 356 358 356 357 360 361 362 362 362 361 361 361 363 361 360 361 362 361 357 359 358 359 357 357 358 358 359
330 318 319 323 325 324 325 325 329 329 330 331 333 341 345 347 346 344 344 347 348 351 353 354 355 357 358 354 362 360 359 358 358 359 364 358 361 361 357 359 357 360 357 359 359 360 361 360 359
328 323 324 324 327 329 326 326 330 328 325 331 331 338 341 343 345 344 344 346 349 354 354 354 359 358 357 362 357 357 357 357 358 363 362 361 360 358 357 361 361 361 359 359 360 359 359 358 357
323 327 326 327 326 328 325 330 325 326 328 334 337 341 341 342 342 343 344 347 350 352 352 353 357 361 360 358 356 355 354 355 354 357 363 361 358 357 359 356 362 363 358 362 365 359 361 356 362
322 325 325 325 327 327 329 327 325 325 331 335 339 340 340 341 342 344 345 347 350 350 352 354 357 362 362 364 357 356 354 353 354 355 361 358 356 357 358 360 358 363 363 357 358 359 363 357 356
324 324 322 323 325 327 326 327 327 328 334 335 338 339 340 340 341 343 344 346 349 351 352 355 357 361 363 364 366 359 358 358 355 355 357 363 359 360 356 362 362 359 362 359 359 362 358 359 359
323 318 323 323 324 324 328 323 324 331 335 334 336 338 338 340 342 343 345 346 349 351 353 355 357 359 363 363 363 360 357 356 357 355 362 362 367 364 364 363 358 360 365 362 362 361 359 355 354
319 321 315 322 324 326 325 317 326 333 332 333 334 337 338 339 341 344 346 348 350 351 353 356 355 357 361 365 363 360 358 360 363 356 360 363 365 367 365 359 358 361 362 363 361 356 354 346 343
317 312 315 317 325 326 324 318 327 333 331 330 334 335 337 339 342 344 346 348 350 352 354 355 357 356 360 367 363 363 369 364 360 365 360 363 364 365 363 358 362 364 361 361 356 353 349 344 339
312 313 316 318 321 325 322 322 328 333 331 328 332 334 335 337 339 344 347 348 350 352 355 357 356 361 367 365 371 363 364 361 359 359 362 367 362 366 362 359 361 361 358 356 358 353 348 343 340
318 317 315 319 322 322 322 323 327 332 332 330 329 332 334 335 342 345 347 348 349 352 355 357 361 370 363 358 358 358 355 357 356 359 362 367 365 363 365 359 360 360 356 356 353 347 346 338 345
316 316 316 319 322 322 321 321 327 331 332 333 332 331 333 335 338 342 346 347 349 352 356 363 365 371 367 362 363 361 359 353 355 361 369 364 362 364 362 363 360 362 351 355 349 346 339 338 344
314 315 316 316 322 324 321 319 322 328 333 334 334 334 335 334 335 339 344 347 349 351 355 364 370 372 371 371 366 363 362 358 355 352 355 361 361 362 363 363 358 359 352 340 348 346 345 337 340
311 318 318 317 316 313 321 311 320 324 326 331 334 335 334 336 337 338 342 346 348 351 356 365 370 373 371 375 366 368 357 351 349 351 353 353 356 356 359 356 356 356 346 354 347 344 346 344 338
312 319 318 317 316 316 315 312 316 323 321 325 331 334 336 336 337 337 340 345 348 351 354 359 371 374 374 374 371 362 362 352 352 351 363 362 364 357 353 357 355 351 342 350 349 346 347 345 339
316 317 317 317 315 307 315 312 315 316 322 325 329 333 337 337 338 340 342 344 346 350 352 355 368 374 376 374 373 373 372 362 354 355 352 349 351 352 357 355 354 352 348 349 348 348 347 345 345
313 312 306 305 306 305 317 313 317 322 325 327 327 329 335 339 337 338 340 341 345 349 353 355 367 372 375 372 371 370 372 371 366 362 352 355 347 349 360 359 356 350 352 352 350 349 347 344 342
310 311 306 301 303 306 315 310 316 326 327 329 329 329 332 338 339 337 339 341 344 348 356 358 364 370 373 372 373 374 374 361 359 363 355 348 346 349 365 357 354 351 352 351 351 344 343 347 342
310 308 315 309 311 307 311 315 320 324 325 326 326 326 327 335 339 338 339 339 341 348 355 359 363 369 372 370 375 373 372 371 361 367 367 355 360 348 353 356 353 352 350 351 350 343 345 345 346
310 315 308 311 304 303 308 310 312 319 321 323 324 325 327 331 337 339 339 340 344 345 352 359 363 369 371 371 372 370 371 372 372 371 370 365 363 357 359 354 352 351 351 350 350 347 348 346 342
307 308 311 312 310 304 303 309 320 321 323 322 324 326 327 329 335 339 340 341 345 345 347 353 360 366 368 369 370 370 369 368 371 367 368 367 366 363 358 356 355 351 349 349 351 349 347 345 347
311 309 310 310 308 310 308 309 321 322 323 324 325 326 328 329 331 336 340 341 343 347 346 349 354 356 364 367 371 370 371 368 367 367 368 368 364 363 359 357 355 350 346 343 342 345 343 344 343

GFSSGP_sfc_thetae_027.txt.gz
Theta_e
359 357 354 340 325 321 314 319 326 322 324 332 333 330 327 332 324 316 343 348 351 351 354 355 362 363 363 366 366 366 367 367 368 368 368 367 366 365 366 364 363 362 361 360 360 360 359 358 358
355 354 337 329 318 311 314 323 323 326 331 335 335 332 328 325 336 338 342 350 352 352 353 355 362 364 363 365 366 366 365 365 368 367 368 367 366 366 363 363 362 361 361 360 360 360 359 358 358
353 348 330 321 318 312 315 324 326 331 335 333 330 335 332 330 339 340 347 350 350 349 353 357 363 365 365 364 366 366 365 364 365 367 366 365 363 363 362 362 361 361 361 360 360 359 359 359 358
347 345 340 324 315 320 322 324 329 330 333 335 333 327 336 342 340 345 348 349 350 352 357 363 365 363 364 364 366 364 364 364 366 367 366 364 362 362 361 361 360 360 360 361 361 359 358 358 357
349 341 323 322 317 322 324 328 330 328 331 331 334 328 331 340 345 345 346 350 347 351 357 360 366 367 366 365 366 364 363 364 367 367 366 364 363 362 360 359 359 359 359 360 361 359 357 356 357
336 336 319 316 315 323 324 328 330 330 332 334 332 330 331 342 342 345 349 350 350 351 355 358 365 366 367 365 365 363 363 363 367 366 366 366 364 363 363 359 359 358 358 359 359 359 358 356 355
335 324 319 317 316 316 324 329 330 329 330 331 336 327 333 339 343 346 348 349 350 353 354 356 358 361 366 367 364 363 363 363 366 365 365 364 362 359 360 360 358 358 357 357 358 359 361 361 360
332 325 319 317 313 312 325 325 333 331 330 339 339 329 329 339 345 347 348 349 350 352 354 354 356 357 357 358 363 362 363 363 363 362 362 361 361 360 360 363 362 359 358 357 357 360 362 363 364
335 318 313 315 313 314 321 324 332 337 333 335 337 337 340 345 345 344 345 346 348 352 352 354 355 356 354 354 358 362 363 363 363 361 363 363 355 351 359 360 363 360 359 361 359 364 363 365 362
326 315 316 323 321 315 322 326 327 329 330 331 334 339 343 343 343 341 341 342 344 346 350 353 354 355 353 355 353 353 355 354 353 354 354 356 352 352 356 361 364 361 360 361 360 361 346 357 352
325 318 322 323 325 324 319 321 325 323 325 330 330 334 340 341 342 341 341 342 343 347 349 351 353 355 353 351 352 353 353 352 352 351 353 355 357 351 355 355 356 349 361 354 357 356 346 348 350
319 323 323 323 326 322 320 322 322 324 325 336 336 335 336 339 340 341 341 342 343 343 346 348 348 351 350 353 351 352 352 352 351 354 357 353 351 348 351 354 354 354 354 355 353 349 349 349 352
321 323 324 325 325 323 323 320 323 324 335 338 337 336 335 334 339 342 343 344 345 343 346 350 351 352 352 352 349 350 352 354 353 354 354 351 348 351 354 352 352 353 354 352 349 351 352 349 347
323 325 324 322 322 324 321 320 323 327 336 336 336 335 335 334 334 339 340 344 344 344 347 351 352 355 351 354 355 358 355 351 352 353 354 355 352 353 352 355 352 352 353 352 355 352 351 351 352
317 314 322 321 316 321 324 318 319 327 333 333 334 335 336 336 336 334 342 342 342 343 346 350 351 355 353 353 355 352 354 349 348 354 355 354 354 353 353 352 351 352 356 352 353 353 352 353 353
310 308 304 313 316 318 319 311 320 325 328 329 332 333 335 335 335 337 341 344 343 344 349 352 353 352 352 353 356 352 349 350 352 353 352 356 358 355 352 351 351 355 355 354 348 346 348 346 340
303 300 303 309 317 318 316 312 322 323 326 326 329 331 332 333 335 337 341 343 344 343 348 347 350 351 352 354 357 354 353 354 354 351 352 353 357 357 353 353 353 355 351 349 348 344 344 334 332
298 300 304 306 315 317 314 314 321 322 323 326 327 329 330 331 333 337 339 343 345 345 349 348 349 353 353 356 355 355 353 356 354 350 354 354 357 358 353 351 351 351 349 348 345 343 339 333 334
306 305 305 309 318 316 315 315 318 320 321 322 326 327 329 330 333 337 339 343 344 347 349 346 348 353 354 353 352 351 348 352 352 354 356 355 356 356 352 352 351 351 348 345 348 336 330 332 336
305 304 305 310 317 315 318 316 318 319 319 322 324 327 328 330 331 336 337 340 343 345 348 348 349 356 354 354 352 351 348 351 351 351 352 353 357 355 353 350 349 351 350 345 335 333 330 333 335
304 303 305 307 315 318 317 315 314 319 322 324 325 327 329 329 330 334 336 338 341 343 348 349 351 356 355 355 355 353 352 353 353 351 352 358 357 357 353 352 351 349 345 337 335 333 332 329 335
300 309 309 309 310 305 317 305 313 317 320 323 323 324 326 329 331 333 336 337 340 344 349 350 352 357 354 356 351 348 345 344 348 352 350 353 356 355 355 354 350 345 342 338 335 337 334 331 325
304 310 309 309 306 309 310 305 309 319 317 320 322 324 325 327 330 333 336 338 341 345 348 352 352 356 354 352 354 351 348 348 346 344 350 353 352 353 354 354 347 339 341 341 336 334 333 336 334
309 307 307 307 305 298 307 306 306 310 318 320 323 325 326 327 329 332 336 339 340 345 350 353 352 352 357 352 353 353 351 347 341 347 349 351 347 348 350 351 344 340 339 338 337 338 335 333 333
305 299 296 294 296 295 308 307 308 316 320 324 325 325 326 328 328 329 334 337 339 342 347 352 352 352 355 356 356 355 354 351 347 347 345 344 343 343 345 346 343 339 339 341 339 337 334 333 331
301 300 296 289 292 296 303 302 309 320 323 327 326 326 325 329 329 329 331 336 339 341 346 353 353 352 356 356 355 356 355 358 351 351 347 342 346 344 345 346 344 341 338 344 340 337 336 336 332
300 298 301 294 297 295 300 304 311 320 320 322 322 324 325 326 330 330 331 335 339 340 345 348 355 354 356 358 357 357 355 355 357 352 352 347 344 347 346 348 345 343 339 340 339 337 335 336 333
304 302 296 298 290 291 298 300 303 311 317 319 320 321 323 327 327 331 332 334 339 342 345 349 356 355 358 356 360 360 358 356 356 354 351 351 345 348 347 348 346 346 342 341 339 336 339 336 337
299 300 297 297 298 292 292 298 307 315 319 319 321 324 325 326 330 331 334 335 340 342 344 347 354 356 358 359 357 359 360 359 356 356 353 351 350 349 348 348 347 344 344 343 341 336 336 337 334
307 301 297 294 290 295 295 298 312 313 321 322 322 323 324 326 329 333 335 336 338 341 343 346 355 355 358 360 360 358 359 361 357 354 354 355 349 351 350 348 347 344 342 343 340 336 338 336 335

GFSSGP_sfc_thetae_030.txt.gz
Theta_e
355 356 352 338 324 320 314 319 321 321 324 330 332 330 326 329 322 314 341 347 349 350 353 355 361 363 365 366 367 367 366 366 368 368 365 363 363 363 363 362 362 360 360 360 360 359 358 358 358
356 352 341 331 318 311 312 322 319 326 329 333 332 331 329 325 336 338 340 347 350 351 352 355 361 364 364 365 367 367 365 364 368 367 366 364 364 363 362 361 361 360 360 360 360 359 358 357 357
354 345 333 322 317 311 314 324 326 329 333 331 330 334 330 329 338 339 346 349 349 350 353 356 364 365 364 365 366 366 366 364 366 365 363 362 363 362 361 361 360 360 360 360 360 359 359 357 356
346 342 334 320 316 320 321 327 330 329 332 334 331 327 336 342 340 345 350 349 349 351 354 361 365 362 364 364 365 364 363 363 364 364 363 362 362 361 361 361 360 360 360 361 359 357 357 357 356
348 338 323 319 318 322 326 330 332 327 329 330 331 327 330 340 346 348 348 348 348 351 356 359 365 365 364 364 363 363 362 363 364 364 362 362 362 361 360 360 360 360 360 361 359 357 356 356 356
335 335 317 311 318 323 327 332 331 329 331 331 329 329 330 343 343 345 348 348 351 354 357 359 365 366 365 363 362 362 362 364 364 364 363 362 362 361 360 359 358 358 359 359 358 356 356 355 355
326 324 317 316 317 322 326 333 329 330 329 329 334 325 331 337 342 347 347 350 351 355 356 356 358 360 365 366 363 361 362 363 363 363 363 362 361 361 359 358 357 357 357 357 358 357 356 357 356
333 326 317 317 315 316 328 331 334 332 330 337 337 325 326 336 344 347 348 348 350 352 355 354 354 357 358 359 363 362 362 363 363 362 362 362 362 360 359 363 361 360 358 357 357 358 360 361 361
334 318 312 315 315 317 330 328 334 336 332 333 337 334 337 341 344 344 344 345 347 350 352 354 353 355 354 354 357 362 362 363 363 361 362 363 355 353 356 360 361 361 360 360 358 359 357 360 360
322 316 316 321 319 316 327 329 330 330 330 331 333 338 340 341 341 340 341 342 345 347 350 352 353 353 352 357 352 352 354 355 354 353 353 356 353 348 353 359 363 362 361 361 358 359 352 348 350
324 317 321 323 324 322 328 329 332 329 326 330 330 335 339 339 340 340 342 344 345 347 350 352 353 353 351 351 351 350 351 350 350 350 350 352 354 350 354 354 356 349 356 351 356 355 349 349 349
317 322 322 321 324 320 327 330 329 329 329 335 337 339 339 338 339 340 341 343 344 347 349 351 352 353 350 349 351 349 349 349 348 349 349 350 350 349 349 351 349 350 350 351 352 349 349 349 349
318 321 324 325 322 321 322 322 328 327 333 337 339 339 338 337 340 341 343 344 345 346 348 350 352 352 350 348 348 347 350 349 349 349 351 352 346 347 349 351 351 350 353 351 349 348 348 348 347
323 323 323 323 321 323 317 321 323 330 335 335 336 336 337 339 339 340 341 341 344 345 346 348 347 352 350 349 346 347 350 351 351 351 352 353 348 350 349 350 349 350 349 350 352 348 348 348 352
315 315 322 323 321 319 321 318 324 332 334 331 331 334 338 339 340 339 341 341 343 343 346 346 346 350 349 349 348 352 354 353 351 351 351 352 351 351 350 349 349 349 351 350 349 347 348 349 347
303 303 299 310 320 322 317 311 327 332 331 328 330 332 333 336 339 341 343 343 344 344 345 348 350 350 349 350 352 349 348 347 348 351 352 352 353 352 350 349 348 352 353 352 347 344 341 336 331
298 295 299 303 312 319 316 310 326 332 330 329 329 331 332 332 333 340 343 344 344 343 345 348 349 351 350 349 352 348 347 347 348 349 350 351 354 354 350 349 351 350 350 348 346 342 339 330 328
294 295 298 301 308 318 312 311 322 330 329 329 330 331 331 332 333 335 343 344 342 343 346 348 347 349 349 349 351 349 348 350 351 346 349 350 354 355 351 349 350 349 347 346 342 340 335 330 331
300 299 299 304 309 315 313 313 316 325 327 327 328 329 330 331 335 335 342 344 342 345 347 347 347 347 347 348 347 346 345 348 350 348 352 354 353 356 351 348 349 348 346 343 342 333 327 328 331
301 299 300 303 308 313 313 314 316 321 324 326 327 328 329 331 332 334 338 341 342 342 345 345 347 348 348 349 349 348 347 349 349 349 353 352 353 353 350 349 347 348 347 341 333 330 326 329 331
301 299 300 301 306 315 314 311 313 318 321 325 327 329 329 329 329 332 334 339 341 340 344 344 347 349 350 351 350 348 347 348 347 347 348 349 354 353 351 349 347 347 343 334 332 331 327 326 330
295 305 304 304 301 302 312 300 311 315 314 317 323 326 327 329 330 332 334 337 339 341 345 344 346 351 351 352 350 348 345 342 344 348 351 350 354 353 352 349 347 341 341 334 333 335 332 326 324
300 305 304 304 300 300 306 301 305 314 313 314 319 324 327 329 330 330 334 336 340 342 344 346 346 351 352 352 350 349 345 346 345 344 346 348 351 352 352 350 346 339 337 335 334 331 333 331 329
307 301 300 299 298 295 301 305 301 310 314 317 321 322 327 328 330 331 335 336 338 342 344 346 346 350 352 352 350 348 346 344 342 341 344 347 350 349 350 350 343 338 337 336 334 331 332 332 331
302 293 289 289 290 291 300 301 306 313 319 321 321 322 325 328 329 330 332 334 336 339 342 346 346 348 350 352 350 349 347 347 343 341 345 345 345 343 345 345 340 335 337 336 334 335 332 330 329
296 297 291 285 286 290 297 297 306 315 320 324 325 326 325 325 328 330 332 335 336 338 343 346 345 346 349 348 350 351 350 349 349 344 346 348 347 345 345 344 340 336 338 337 335 333 333 332 329
297 293 298 290 291 290 294 300 307 315 316 323 324 325 324 325 326 329 332 335 336 338 342 346 346 345 350 350 349 349 351 351 351 348 344 344 344 343 345 343 341 337 336 339 336 333 332 334 330
302 299 292 287 287 287 291 295 299 305 313 316 322 324 325 325 326 328 329 333 337 338 342 347 348 346 348 352 352 351 350 351 353 350 347 343 343 344 343 344 341 339 335 338 336 333 333 332 332
299 296 294 293 292 290 286 294 302 304 309 314 321 324 324 325 326 328 329 332 336 339 342 347 348 347 349 351 352 351 352 350 350 353 350 348 343 344 342 345 342 341 337 336 337 333 334 332 332
305 300 295 293 288 290 294 295 305 306 311 318 320 323 325 326 325 329 330 330 333 338 340 344 350 349 351 353 353 352 353 353 351 350 353 350 348 345 345 344 343 342 340 338 338 335 335 334 331

GFSSGP_sfc_thetae_033.txt.gz
Theta_e
355 354 351 337 323 320 312 316 320 321 323 330 333 329 325 328 321 313 340 346 349 350 353 355 361 362 363 363 365 365 364 363 363 363 362 362 362 362 361 361 360 359 360 360 359 358 359 358 358
353 351 341 328 314 307 311 321 317 324 328 332 332 331 327 325 335 336 339 347 349 350 351 354 362 363 363 364 364 365 364 364 363 363 363 363 362 361 361 360 359 359 359 359 359 359 357 357 357
354 347 328 322 315 309 311 322 325 328 332 331 328 333 330 327 336 337 343 348 350 349 351 354 361 364 363 363 364 365 365 364 363 363 363 362 361 360 360 359 359 359 359 360 358 358 358 357 356
343 338 333 320 315 320 320 326 328 327 331 332 331 326 335 340 338 343 347 348 348 350 353 358 362 362 362 362 363 364 363 363 363 362 362 362 361 360 360 359 360 359 359 360 357 357 357 357 356
348 337 322 317 316 322 325 330 330 326 328 329 331 325 329 340 345 345 345 347 346 349 352 356 364 364 363 362 362 361 362 363 363 362 361 362 361 359 359 359 359 358 359 359 358 357 356 357 356
327 333 316 312 316 322 327 331 330 328 329 329 328 328 329 342 342 345 347 346 350 351 354 356 361 362 362 361 361 361 361 363 363 362 361 362 361 359 359 358 357 358 358 357 358 356 356 355 355
324 321 315 316 316 321 325 333 327 327 327 327 332 324 331 338 344 346 346 347 350 355 355 355 354 357 362 362 361 361 362 363 363 362 362 362 361 359 359 357 357 357 357 357 357 356 356 356 355
330 325 316 318 316 318 329 330 332 329 328 336 335 324 326 337 344 346 347 347 351 354 354 353 352 353 355 356 361 361 361 363 363 363 363 362 361 360 359 362 359 359 358 357 357 357 355 357 359
336 314 310 314 318 320 330 328 334 336 330 332 334 332 336 340 344 343 343 344 348 351 352 352 352 353 355 354 356 361 361 362 363 361 362 362 354 353 355 358 360 358 360 359 358 357 355 358 360
320 311 314 319 320 324 329 329 330 329 328 330 331 335 339 341 342 339 339 340 343 346 350 352 351 353 353 357 352 352 353 355 354 354 352 354 352 351 350 356 360 359 359 358 359 359 352 351 350
323 316 320 322 322 329 328 328 331 328 323 329 328 331 336 338 340 339 340 341 342 346 349 352 353 353 352 352 349 350 351 350 350 350 350 350 352 349 351 352 353 349 354 351 354 353 348 347 347
318 323 323 321 326 327 327 330 327 328 327 333 334 335 336 336 338 339 340 342 343 345 347 350 353 352 349 348 350 349 348 347 347 347 347 347 348 348 348 349 349 349 349 349 350 349 347 347 348
319 320 321 324 322 328 331 328 327 329 333 335 336 335 335 335 338 340 342 344 345 344 347 349 351 351 349 345 347 345 346 347 347 346 347 348 347 346 347 349 350 348 352 349 349 346 346 347 347
319 320 318 321 321 329 327 327 328 330 334 335 335 334 335 336 338 340 342 342 344 345 346 349 350 350 349 346 344 345 345 347 347 347 347 350 348 346 348 347 348 347 349 350 349 347 346 346 350
313 311 315 320 319 320 324 319 324 330 332 333 333 334 336 337 339 339 342 342 344 345 347 347 348 350 349 347 346 345 346 349 351 350 349 350 348 349 348 348 347 347 348 348 349 345 346 342 341
302 301 297 306 315 319 318 310 323 331 330 330 333 334 335 336 339 341 342 343 344 345 345 347 350 348 348 348 346 346 348 351 351 349 349 350 349 350 348 346 346 348 350 350 347 343 337 332 329
296 294 297 301 312 315 314 309 325 330 329 329 331 333 334 335 338 340 342 342 344 344 343 344 346 345 348 348 348 347 348 345 346 347 348 349 351 352 349 346 347 348 348 349 345 341 336 328 326
294 294 296 299 305 312 310 311 325 328 328 327 330 332 333 334 336 339 341 342 343 343 344 345 345 346 347 348 349 346 344 345 347 347 348 349 351 352 350 347 348 348 346 344 340 337 333 328 329
299 297 297 301 309 311 309 311 323 326 326 325 326 328 331 333 338 340 341 343 343 343 342 345 344 347 347 346 346 343 342 344 347 346 347 348 353 353 350 346 347 345 344 343 339 332 327 325 329
298 297 298 300 305 304 307 310 323 325 325 326 326 327 328 330 331 334 338 342 342 340 341 344 345 346 347 347 348 346 344 345 346 348 347 351 352 354 350 346 346 346 344 340 338 329 325 327 329
297 296 298 298 303 307 309 307 315 324 327 328 329 330 330 330 329 330 336 339 341 339 341 344 345 345 346 347 346 345 345 345 344 345 346 350 351 353 350 348 346 345 344 338 331 329 326 325 328
293 301 302 300 298 293 309 298 306 317 321 324 326 328 329 330 331 332 334 338 339 339 343 344 346 345 346 346 346 345 342 340 342 345 346 346 350 352 350 348 346 345 343 335 331 331 327 325 325
299 304 301 300 296 293 299 299 303 312 314 317 322 326 328 330 331 331 332 337 340 341 342 344 345 346 347 347 346 345 343 344 342 343 345 346 348 350 351 348 345 341 339 334 332 331 331 325 325
304 300 297 296 293 289 297 299 300 308 312 315 318 324 327 329 330 332 333 335 338 341 341 344 343 345 347 347 347 346 345 343 341 339 342 343 346 348 349 349 344 338 338 334 333 331 331 332 329
299 292 287 285 286 288 295 295 300 307 316 318 318 319 326 328 329 330 330 332 335 338 340 342 342 344 347 347 347 347 346 344 343 341 342 342 343 342 346 347 342 336 336 335 333 329 329 330 328
295 295 286 282 283 288 293 292 299 311 315 320 322 322 323 327 329 330 331 331 334 337 339 341 341 343 347 348 348 348 347 346 345 342 342 344 346 347 348 348 344 336 336 335 332 331 330 329 328
295 293 297 287 288 286 291 296 304 309 311 314 319 321 322 324 328 329 331 331 333 335 338 341 342 343 346 348 348 347 348 347 345 343 343 345 346 348 345 347 343 337 335 335 332 331 330 330 327
300 297 290 284 284 284 287 292 296 304 308 311 316 319 322 324 326 328 330 331 334 335 338 341 343 343 345 348 348 348 348 348 347 346 343 343 344 344 344 344 342 337 334 336 334 330 330 331 329
295 294 291 291 287 286 283 291 299 304 309 311 316 321 323 324 325 327 329 331 333 335 337 340 342 343 344 346 347 348 348 349 349 348 346 344 343 342 342 343 341 338 333 336 335 332 331 329 329
301 297 291 288 287 288 292 292 301 306 307 310 314 319 324 326 326 327 328 330 332 334 336 340 342 343 344 347 347 346 347 347 348 349 349 346 342 342 341 343 341 339 337 333 336 334 334 331 328

GFSSGP_sfc_thetae_036.txt.gz
Theta_e
355 355 351 340 323 319 312 315 319 320 321 329 331 327 324 328 321 315 341 347 348 348 352 354 362 363 363 365 365 364 364 363 364 364 363 362 362 361 361 360 360 360 360 360 358 359 358 357 357
353 350 340 326 313 307 309 319 317 323 328 331 331 330 327 324 333 335 339 348 350 349 351 353 362 364 363 363 365 365 362 362 362 363 363 362 362 361 360 359 359 360 358 358 358 358 358 357 355
352 348 325 320 313 308 310 320 323 327 331 330 327 332 329 327 335 337 343 348 350 349 351 354 362 365 362 362 364 364 362 362 363 363 362 362 361 360 359 359 359 358 360 358 359 359 358 356 356
344 336 332 319 313 318 319 324 326 327 329 331 331 325 334 339 337 342 346 349 348 350 353 360 362 362 362 362 363 364 362 363 362 362 362 361 360 360 359 359 358 359 360 358 358 358 358 356 355
346 335 317 315 314 321 323 328 328 325 327 328 331 325 327 339 343 345 346 347 347 349 352 356 364 363 362 362 363 363 363 362 361 361 361 360 360 359 358 358 358 358 360 359 358 357 356 356 356
325 332 315 311 315 321 326 330 328 327 328 328 327 327 330 341 341 343 345 346 350 350 353 355 362 362 362 362 362 362 362 362 362 361 361 360 359 358 357 357 357 358 359 359 357 357 356 354 355
323 320 315 314 316 319 324 330 326 326 327 326 331 324 332 336 341 343 345 347 349 352 353 352 354 358 362 361 361 361 361 362 362 361 361 360 359 357 357 357 357 357 357 358 357 356 355 355 355
327 320 314 317 314 316 328 329 331 327 327 334 334 323 325 336 343 345 345 346 349 352 353 351 351 352 354 355 361 361 361 362 362 362 361 360 359 357 358 362 358 359 357 357 356 355 355 356 356
335 314 310 315 316 320 329 326 332 334 329 331 333 331 335 342 344 342 341 344 348 351 350 351 351 350 354 354 355 361 361 362 362 361 361 361 357 356 357 358 359 358 357 357 354 356 354 357 358
320 310 313 318 322 321 328 328 328 327 326 328 329 336 339 341 340 339 338 338 342 345 349 351 351 352 354 356 353 353 353 356 358 357 356 357 356 355 356 356 361 357 357 357 357 357 352 353 354
321 316 319 320 322 328 328 328 331 327 322 327 327 332 336 338 338 338 338 338 340 345 350 351 351 352 354 354 351 351 351 353 354 353 353 353 355 353 352 354 354 356 355 356 355 353 351 350 352
318 323 325 322 322 326 327 330 327 327 325 332 333 335 337 336 337 338 338 339 341 345 348 351 352 352 351 350 350 350 350 350 350 350 350 348 349 350 350 350 353 353 354 353 353 353 351 352 352
321 323 322 324 322 328 329 327 327 327 332 334 334 335 336 337 337 340 341 341 341 343 347 349 352 352 351 348 348 348 348 349 349 348 348 348 348 349 350 351 353 352 353 354 354 352 351 351 351
315 322 321 317 318 325 326 326 327 329 332 331 332 332 335 336 338 339 340 341 341 343 345 349 350 352 350 348 345 346 347 348 348 347 348 349 349 349 349 351 352 353 353 353 353 353 351 352 352
309 306 310 316 317 322 328 321 323 330 332 329 330 332 334 335 338 338 341 341 343 344 345 347 349 351 349 346 344 345 346 347 348 349 349 352 352 350 350 351 350 351 353 352 354 350 350 344 341
300 299 296 303 316 321 324 314 325 330 330 329 330 331 332 334 337 339 342 343 345 345 345 347 350 349 348 346 345 345 345 345 347 350 350 351 352 351 351 350 350 352 353 353 350 348 343 338 335
295 293 296 301 312 313 319 309 319 329 328 329 330 331 332 333 336 339 342 343 345 345 345 345 347 347 348 347 346 347 346 347 348 350 350 351 352 353 351 350 351 353 353 352 351 346 342 336 334
293 292 295 299 303 310 310 309 317 327 327 328 329 330 332 333 334 339 341 344 344 345 346 346 347 347 348 348 348 347 347 347 348 348 349 351 352 354 353 351 351 352 351 350 347 344 338 335 335
298 296 297 300 305 308 306 308 319 325 326 326 328 329 331 332 336 339 341 343 343 345 343 344 344 345 346 346 345 345 344 345 347 348 350 352 352 354 353 351 351 351 349 348 345 340 337 333 333
297 296 296 299 303 301 301 308 321 324 325 327 329 329 331 332 334 337 339 340 341 342 342 343 344 345 345 346 347 347 347 346 348 350 350 352 352 354 353 350 349 350 347 347 344 339 333 332 333
295 296 296 297 300 302 306 304 314 323 325 327 328 331 332 332 333 335 337 339 341 340 341 342 344 345 346 347 346 346 346 347 346 347 349 350 352 354 354 351 350 349 348 345 342 336 334 331 334
291 299 300 299 295 292 304 294 306 318 320 323 325 325 328 331 333 334 336 337 340 341 342 343 344 345 347 347 346 345 344 343 345 346 348 350 353 352 355 352 350 349 348 345 339 336 333 333 333
297 302 299 298 294 291 296 296 301 314 316 320 324 326 328 329 331 331 332 338 340 343 342 342 343 345 346 347 347 345 345 344 344 346 348 347 350 353 354 352 350 348 347 345 339 336 336 332 332
302 298 295 293 291 287 293 295 293 304 316 320 324 327 329 330 331 332 332 336 338 342 342 342 343 344 345 346 346 345 344 342 342 343 345 346 348 349 352 352 349 348 346 342 338 338 338 335 335
298 292 285 284 285 289 292 293 298 306 314 320 323 325 328 331 331 332 332 332 336 338 340 341 342 342 345 345 345 345 345 344 344 343 344 344 345 347 349 351 348 344 344 342 339 337 336 337 335
295 292 285 281 282 287 291 290 295 306 315 318 322 325 326 328 331 332 333 333 333 338 340 340 341 341 344 345 345 346 347 346 346 345 345 345 346 348 351 351 350 345 342 342 338 336 334 336 335
292 292 294 286 286 284 288 294 302 306 307 315 317 319 320 324 329 330 332 333 333 335 339 339 341 342 343 345 346 347 348 347 346 346 346 346 348 349 349 351 349 344 342 340 338 336 334 335 334
296 297 290 284 282 281 285 289 293 301 305 308 311 317 320 322 325 329 331 332 333 335 338 340 341 341 343 346 347 347 347 348 348 347 345 346 347 349 348 349 349 343 341 340 338 336 336 336 333
293 291 288 291 286 284 282 288 297 302 305 307 310 315 319 321 323 326 329 332 333 334 336 339 340 341 342 346 347 347 347 348 348 347 347 346 347 348 347 348 347 344 340 339 338 336 336 335 335
302 295 290 287 285 287 285 289 300 302 306 308 309 313 318 322 324 325 328 331 332 332 334 337 339 341 342 345 347 347 348 348 347 347 348 348 346 346 347 347 346 345 341 340 338 336 336 335 334

GFSSGP_sfc_thetae_039.txt.gz
Theta_e
354 355 351 345 327 325 317 319 325 323 324 331 332 328 327 330 324 319 344 348 349 351 355 355 361 362 363 365 366 366 364 365 365 363 362 362 361 361 360 360 360 360 359 359 358 358 357 357 356
354 352 346 333 321 316 317 323 322 326 331 334 333 332 329 326 334 337 341 348 351 352 355 356 361 363 364 365 366 366 363 364 363 363 362 361 361 361 360 360 361 359 359 359 358 358 357 356 354
354 349 332 327 322 316 317 323 327 330 333 331 330 335 331 329 337 339 346 349 350 352 355 359 363 365 364 364 364 365 363 363 362 363 362 361 361 360 359 360 359 360 359 359 359 359 357 357 356
349 340 335 324 317 322 322 328 330 330 332 333 333 328 335 341 339 345 350 350 349 351 354 362 364 363 363 363 363 362 362 363 363 362 361 360 360 359 360 360 359 362 359 357 358 358 357 356 355
347 340 324 320 318 323 328 331 332 328 329 331 332 326 330 341 347 348 349 349 348 351 356 359 365 364 363 363 364 363 362 362 362 362 361 360 359 359 359 359 360 361 361 358 356 356 356 356 354
333 335 320 317 317 323 330 332 332 330 331 331 329 329 332 345 344 347 349 350 351 351 355 357 362 363 363 363 363 363 362 361 361 361 361 360 359 359 358 358 359 360 360 358 356 356 356 355 356
328 326 319 317 318 321 328 334 330 330 330 329 333 327 334 339 345 348 349 351 351 353 355 357 357 361 361 362 362 362 361 361 361 360 361 360 359 358 358 358 358 358 357 357 356 355 356 355 357
331 327 318 320 318 320 331 332 334 331 328 336 336 326 327 339 345 346 348 349 351 353 356 357 358 359 360 360 360 360 361 361 361 360 359 359 358 358 358 359 357 359 357 356 356 355 355 356 358
336 323 319 318 319 323 333 329 334 336 332 333 335 334 338 343 345 344 345 346 350 351 353 355 355 359 360 360 359 360 361 360 361 360 359 359 364 362 359 358 359 357 356 356 355 356 354 357 358
331 323 320 325 324 325 332 332 331 330 329 329 333 337 341 342 342 340 341 341 344 347 350 353 353 354 358 355 360 361 359 358 360 361 363 363 363 363 359 358 360 357 356 357 356 355 353 354 360
330 324 326 325 326 330 332 331 334 330 326 330 331 335 338 339 340 340 341 342 343 346 348 350 354 356 356 356 357 358 356 358 360 363 362 361 361 362 361 362 361 364 358 360 360 361 358 356 360
324 329 329 328 327 328 330 334 330 331 328 334 337 338 338 338 339 339 340 341 343 346 348 351 354 357 357 356 355 356 354 356 356 357 361 358 355 359 361 360 362 363 363 362 363 361 361 361 360
327 326 326 329 327 327 333 331 332 331 333 337 339 337 337 338 339 340 341 342 344 345 348 352 355 357 358 359 357 356 356 353 354 357 357 355 354 359 361 359 360 362 361 365 364 363 360 360 360
323 324 322 324 322 328 328 329 332 333 336 336 336 335 337 337 339 341 342 342 344 347 348 352 354 357 358 359 360 357 356 355 356 355 354 357 354 359 360 361 360 361 363 362 365 363 359 362 358
315 310 312 316 319 321 330 325 327 334 336 334 334 335 336 338 340 341 344 345 346 347 350 351 354 356 358 359 359 357 354 354 352 353 357 356 357 359 362 360 360 361 363 364 366 362 362 354 352
308 309 306 312 318 322 327 315 328 335 333 331 332 334 336 338 340 343 345 347 348 347 349 352 352 354 356 357 357 355 353 353 352 352 353 356 359 363 362 359 360 363 364 367 359 358 355 349 340
305 304 304 308 318 322 324 316 325 334 333 331 332 333 335 337 340 343 345 347 349 350 350 350 353 352 354 357 357 356 355 352 351 352 353 357 360 362 361 359 360 363 363 365 361 359 356 349 345
301 302 305 306 312 318 321 319 321 332 333 332 332 333 334 335 337 342 345 347 350 352 353 352 352 355 356 355 356 353 351 350 352 353 355 359 362 363 363 359 360 361 358 362 360 358 348 346 346
304 304 305 309 311 311 313 317 320 327 331 332 332 332 333 334 339 343 345 347 349 351 352 353 353 357 354 352 349 349 346 350 353 357 361 362 363 364 364 360 358 360 359 360 360 355 349 344 346
303 302 304 308 308 308 310 311 316 325 328 331 333 333 333 335 338 341 344 346 348 350 352 354 355 357 355 353 354 352 353 352 356 359 361 362 362 364 363 363 360 361 358 359 357 353 347 345 346
302 301 304 304 306 308 309 308 314 325 329 332 334 336 336 336 336 339 342 344 347 348 351 354 357 358 357 358 355 355 355 356 354 355 357 360 361 363 363 360 358 362 360 355 358 354 349 344 345
300 305 304 303 303 301 310 302 311 319 325 328 331 334 335 337 339 340 341 344 346 349 351 354 356 358 357 359 355 356 349 348 351 354 357 358 362 362 363 363 362 363 359 359 357 353 349 344 339
302 306 305 305 304 303 304 302 308 318 320 325 329 332 335 337 339 339 341 344 347 349 349 352 356 358 359 359 359 354 353 352 354 355 360 363 364 363 362 363 363 361 359 361 359 352 348 343 341
308 305 304 303 303 296 303 302 305 310 319 324 329 332 333 336 338 341 343 345 346 348 349 350 354 356 358 358 358 358 357 356 352 354 353 354 356 357 362 363 363 363 361 360 358 356 351 346 345
306 302 295 293 294 294 305 301 304 312 319 321 327 331 333 335 336 339 340 341 346 347 349 351 354 354 357 357 358 358 358 359 358 358 353 355 352 354 359 363 362 360 362 360 359 355 351 349 345
303 302 296 290 292 295 302 298 304 313 316 322 326 331 334 335 337 337 341 341 342 347 350 352 352 353 355 356 357 359 360 356 356 357 354 353 353 354 363 362 363 362 361 359 357 352 349 350 348
302 299 305 298 296 295 299 304 309 312 313 319 323 327 331 334 336 337 339 342 342 345 349 351 352 353 355 355 357 357 359 358 357 360 361 355 361 356 360 361 362 362 361 359 357 352 350 348 349
304 306 297 299 291 290 296 299 302 309 312 315 320 323 327 332 335 337 340 343 344 344 348 351 352 353 354 355 356 356 357 358 359 360 359 360 361 360 359 360 362 361 360 359 356 353 351 348 346
300 301 302 301 299 293 292 297 309 312 316 315 317 321 325 327 331 334 339 343 345 345 345 348 350 352 353 354 356 356 356 358 359 358 359 361 362 362 361 360 360 360 358 358 355 354 350 347 347
305 303 302 297 296 298 298 298 309 313 316 318 319 322 324 328 330 332 335 339 340 344 344 345 348 349 352 353 355 356 357 358 358 358 359 361 360 363 363 362 360 359 358 358 355 352 349 347 346

GFSSGP_sfc_thetae_042.txt.gz
Theta_e
355 353 353 346 328 329 321 322 327 325 327 334 335 331 331 331 328 320 343 348 345 349 357 359 362 364 364 365 367 366 364 363 363 362 362 363 361 361 361 360 361 360 360 359 359 358 358 357 357
355 354 349 340 326 316 318 326 324 329 334 337 336 334 332 327 338 338 345 351 347 354 355 359 362 365 365 365 366 365 363 363 363 363 362 362 361 361 360 361 360 360 360 358 359 358 358 356 355
356 352 337 332 328 319 319 326 329 333 336 334 333 338 335 331 341 340 347 350 354 354 356 361 361 364 364 364 365 366 365 363 363 362 362 362 361 360 360 359 360 359 360 360 359 358 357 357 356
347 345 339 329 320 325 325 329 333 333 335 336 336 332 339 344 343 346 352 352 353 354 357 360 363 363 364 363 363 363 363 363 364 362 362 361 360 360 360 361 361 360 358 358 358 358 357 356 355
350 342 329 324 322 327 331 333 334 331 332 334 335 329 333 342 348 349 350 351 351 353 357 359 365 365 364 363 363 363 363 364 363 362 360 360 360 361 360 362 360 361 359 358 357 357 357 356 355
340 337 324 319 319 326 333 336 334 332 333 334 333 333 334 346 347 348 351 350 351 351 354 358 363 364 364 364 363 363 363 362 362 362 360 360 360 360 359 359 360 361 359 358 356 356 355 356 357
336 329 322 320 320 323 330 337 332 332 333 332 338 332 338 342 347 350 350 350 350 351 353 356 358 362 363 364 363 362 362 361 361 361 361 360 359 358 358 357 358 358 358 357 356 356 356 356 358
337 331 322 322 320 322 333 335 337 332 332 340 340 331 333 341 348 350 350 349 349 351 352 355 358 358 360 362 362 362 362 362 361 361 361 360 359 358 359 359 358 358 356 356 356 356 356 357 358
339 326 321 320 321 327 336 333 337 338 335 336 338 338 343 347 349 348 346 346 347 349 351 351 353 357 358 358 359 361 361 361 362 361 360 359 362 363 360 358 359 357 356 355 356 355 357 359 360
332 325 322 327 327 328 334 334 334 332 333 333 336 341 345 345 346 345 345 345 347 348 349 350 352 354 357 353 360 360 356 356 358 361 362 362 364 366 361 360 358 359 356 356 355 355 354 357 355
330 324 327 327 329 332 334 334 337 331 328 333 334 338 342 343 344 344 345 347 348 349 348 349 352 355 355 354 356 356 354 356 359 364 363 365 365 365 365 362 360 362 358 360 357 359 358 354 355
325 328 330 329 328 329 332 336 334 333 331 337 340 341 342 341 342 343 344 346 348 349 350 351 354 356 356 354 353 354 350 353 354 356 363 363 359 363 366 361 362 363 358 361 362 361 358 358 356
327 325 328 330 329 327 332 332 332 334 336 338 342 341 341 342 343 345 346 347 348 348 350 352 355 358 358 358 354 352 352 350 352 355 358 359 359 364 363 364 361 362 363 361 360 361 358 357 352
326 326 325 327 327 326 327 330 334 336 339 337 339 339 341 341 343 345 345 345 347 348 349 352 354 357 358 358 360 357 355 352 353 353 355 360 359 365 360 359 361 362 362 361 360 358 357 355 355
324 317 318 319 323 321 329 325 329 337 339 338 337 339 340 342 344 344 346 346 347 348 350 352 355 356 359 360 360 359 353 352 351 351 357 359 360 362 367 362 358 362 363 363 359 361 358 354 352
314 315 311 319 321 322 325 318 331 338 338 337 337 338 338 341 342 344 345 346 348 349 351 354 353 355 359 360 360 356 353 351 350 350 354 358 361 365 366 360 362 363 363 358 362 361 354 350 343
311 308 311 316 320 321 323 319 328 338 337 336 338 337 337 339 341 344 346 347 348 351 352 354 355 353 356 360 359 358 357 353 350 352 355 360 362 365 366 360 363 370 365 360 360 360 356 352 350
307 308 312 313 318 321 321 321 325 333 335 336 337 337 338 338 339 343 346 348 349 351 353 355 355 357 359 357 359 355 352 351 350 352 354 359 362 366 367 362 365 366 362 360 360 360 356 352 348
311 310 310 315 319 317 318 320 323 327 332 332 336 337 338 338 341 344 346 347 348 351 352 354 355 361 357 354 352 350 347 349 349 352 359 365 367 368 369 366 365 363 362 361 360 357 355 348 350
309 308 309 315 316 315 316 316 321 324 328 332 335 337 338 339 340 342 345 346 347 350 353 356 357 360 360 356 356 352 350 349 350 355 363 367 367 369 367 367 362 365 360 364 363 360 351 351 350
307 307 309 310 314 315 314 313 316 320 325 330 334 338 339 339 339 341 342 344 346 349 352 356 360 361 362 363 357 356 353 353 351 356 359 364 366 367 369 367 366 365 363 357 361 360 356 346 344
304 309 309 309 309 306 314 306 316 319 322 327 330 335 338 340 341 341 342 343 345 348 354 357 361 363 362 364 360 362 350 346 350 356 357 360 366 365 365 368 367 368 361 363 361 359 357 354 339
305 310 308 308 307 308 309 307 312 319 318 324 329 333 337 340 341 341 342 343 345 349 351 356 360 364 366 364 365 357 357 349 353 355 366 369 369 367 364 366 367 367 364 365 365 361 360 353 342
310 308 308 307 306 300 307 308 309 313 318 322 328 332 336 339 341 343 345 344 346 348 351 355 361 367 367 365 362 367 363 358 354 358 356 356 358 359 366 364 366 367 366 366 365 364 362 357 350
308 305 298 297 298 298 309 306 310 316 319 323 325 330 335 339 341 342 344 345 345 347 350 354 363 366 366 363 364 364 366 365 366 364 357 361 354 355 364 366 365 365 369 367 367 365 361 359 353
306 305 300 294 296 299 307 302 308 318 320 322 326 328 335 338 341 342 344 346 347 347 353 356 362 363 362 363 367 369 370 359 359 364 358 356 355 355 363 363 365 367 367 367 368 362 359 359 356
306 303 308 302 304 300 304 307 313 316 318 320 321 324 328 335 339 341 344 346 348 350 355 359 362 365 366 363 368 369 368 367 360 368 369 360 367 357 361 362 365 366 366 368 367 361 359 358 358
309 310 301 303 296 295 301 303 305 311 314 318 319 323 327 332 338 340 342 345 347 350 354 358 363 365 365 362 365 364 367 369 369 369 369 369 368 366 362 363 363 365 366 368 367 362 361 359 355
306 305 306 306 303 298 297 302 313 313 317 317 320 324 328 332 336 340 342 344 347 349 350 354 358 362 362 363 365 366 366 365 367 365 369 370 370 372 367 367 364 363 365 367 366 364 360 358 357
310 307 307 301 301 303 303 304 313 314 316 320 321 324 328 331 334 337 339 343 345 347 349 350 353 355 358 362 366 366 368 367 365 367 368 370 371 371 371 370 366 363 364 366 365 362 359 357 355

GFSSGP_sfc_thetae_045.txt.gz
Theta_e
354 354 354 345 328 331 319 322 330 327 327 334 334 334 330 333 329 322 342 346 345 350 356 358 362 365 367 368 367 366 364 363 363 362 363 362 362 362 362 361 360 360 360 360 359 358 358 357 357
355 352 351 341 322 316 316 326 323 328 334 336 337 336 333 331 338 337 342 345 346 352 354 358 362 364 366 366 366 366 363 363 363 364 362 362 362 361 360 360 360 360 359 360 359 358 357 355 356
353 353 338 332 325 314 316 325 328 333 337 334 335 337 336 335 338 340 348 344 348 352 355 361 363 365 365 364 365 365 363 363 363 363 363 362 361 360 361 360 359 360 361 360 359 358 357 356 355
348 345 341 324 317 324 324 328 332 331 335 337 336 332 341 346 343 347 347 348 351 352 357 362 364 365 363 363 364 364 363 363 363 362 361 361 361 361 360 361 361 359 358 359 359 358 357 355 354
350 344 331 326 322 325 329 332 334 330 333 334 336 333 336 343 349 350 347 353 350 352 357 362 365 366 364 363 363 363 363 364 362 361 361 361 361 360 362 360 362 360 359 358 358 358 357 355 355
340 340 322 316 319 325 330 333 333 333 335 335 335 335 337 346 346 348 350 351 352 352 355 360 363 365 364 363 363 363 364 362 362 361 361 360 360 359 360 361 361 360 359 357 357 356 357 357 357
339 332 322 319 318 322 328 334 331 332 334 334 339 332 340 343 346 350 350 352 351 351 355 358 359 363 363 363 363 363 362 362 362 361 361 360 359 359 358 358 359 359 358 357 356 356 356 358 357
340 333 323 321 316 320 330 332 333 334 333 342 345 334 334 344 348 348 350 348 348 351 354 354 357 358 361 361 363 362 361 361 361 361 360 360 360 361 361 360 359 357 357 357 356 356 357 358 358
341 325 318 319 320 324 331 327 333 338 336 338 339 342 345 348 348 346 345 345 346 348 352 350 353 356 358 358 360 362 362 362 361 360 361 360 362 363 361 362 359 357 357 356 357 356 359 359 360
332 322 320 328 328 325 331 330 329 331 333 334 338 345 346 347 345 342 342 343 344 346 348 349 350 352 355 352 359 358 356 355 359 361 361 358 362 362 361 363 361 359 359 359 359 358 359 361 358
331 323 325 327 330 331 330 332 333 328 329 333 336 341 343 345 344 342 344 345 347 348 346 347 350 353 353 356 354 354 352 354 357 363 363 360 362 362 359 361 360 360 362 358 358 358 356 356 353
325 328 329 327 330 329 328 334 332 331 329 337 340 344 343 343 344 344 342 346 348 346 346 348 352 358 356 354 352 352 350 353 353 358 363 364 358 360 360 357 361 366 365 361 360 359 358 352 357
326 326 329 332 330 329 331 330 332 331 334 338 341 343 342 343 344 345 347 348 348 346 347 349 352 358 357 358 353 352 350 350 351 356 361 359 358 360 358 361 358 362 362 361 358 358 356 357 353
327 327 327 330 329 328 327 330 332 335 337 337 339 340 342 343 344 346 346 345 347 347 347 349 352 357 358 360 362 354 352 351 351 352 356 361 359 359 358 362 359 360 360 362 360 360 358 359 354
327 322 325 327 328 326 328 324 327 336 338 336 338 339 341 342 345 345 346 346 347 348 350 350 353 356 359 359 359 357 353 351 350 351 358 360 362 363 365 357 360 360 362 362 361 359 357 352 353
321 322 317 323 324 326 326 317 328 337 338 336 338 338 339 341 343 346 347 347 349 349 350 352 351 353 357 361 359 356 353 350 350 350 354 360 362 365 368 361 356 369 361 359 362 357 355 348 348
316 311 315 318 324 324 322 319 322 337 337 336 338 338 337 339 342 345 347 348 348 350 351 351 353 351 356 362 360 359 364 353 350 349 352 363 363 364 365 365 360 365 363 357 361 355 357 352 347
309 310 314 314 321 322 320 320 327 334 334 335 338 339 338 337 340 344 346 347 348 350 351 355 353 362 366 360 363 356 352 352 351 349 353 363 362 364 367 362 363 364 356 357 361 359 356 347 343
314 312 312 317 322 320 320 320 324 330 332 331 335 338 338 338 341 343 345 345 346 349 351 357 359 366 360 354 352 351 347 350 349 350 359 361 363 366 370 362 362 361 361 360 359 358 353 347 344
314 312 312 316 320 320 319 320 325 326 330 332 333 337 338 339 340 341 343 344 345 348 354 360 362 368 365 357 358 353 354 348 348 350 362 362 364 369 365 367 358 366 359 362 360 358 349 345 344
313 311 312 312 317 321 318 317 319 325 327 332 332 339 339 340 340 340 341 343 344 347 354 358 364 367 366 365 360 360 357 354 348 350 353 361 365 366 368 368 365 360 363 362 362 359 354 348 341
306 313 313 312 312 309 317 307 317 321 322 326 329 334 337 340 342 342 341 342 343 346 351 360 366 368 367 369 360 361 349 345 346 350 352 359 367 366 366 367 364 364 360 372 362 357 358 355 342
308 313 312 312 311 312 312 310 315 320 318 322 327 329 336 339 342 342 342 342 344 345 347 355 366 369 368 368 366 358 357 349 349 350 364 366 372 369 363 369 368 363 361 369 363 363 362 355 347
313 310 310 310 309 303 310 311 312 315 320 322 327 330 332 338 341 343 344 343 343 344 346 351 365 370 371 371 368 369 362 358 348 354 353 354 355 361 370 366 371 371 368 367 365 367 364 361 354
310 307 300 299 300 300 310 308 312 319 321 324 325 329 332 338 340 342 343 342 344 345 349 352 364 369 371 370 368 366 369 367 365 366 355 359 352 353 365 371 373 365 372 370 372 371 367 362 357
308 307 301 296 297 301 309 305 311 320 323 325 328 329 332 335 340 342 344 344 344 347 352 355 363 367 371 370 370 371 371 360 358 362 357 355 354 354 372 373 370 370 369 369 374 364 362 366 359
308 305 310 305 306 303 305 310 315 319 320 322 323 327 330 333 338 341 344 345 345 348 354 356 362 368 370 370 371 372 372 369 362 364 368 360 367 356 365 366 368 370 371 373 374 361 366 366 363
311 312 303 305 299 299 304 306 307 313 316 320 321 324 328 333 337 340 343 346 348 348 353 358 362 367 369 369 371 371 372 373 370 369 370 367 368 372 368 368 366 368 371 372 374 365 368 366 359
307 308 308 308 306 301 300 305 315 316 318 318 321 324 326 329 335 338 342 345 349 350 350 355 360 363 368 369 370 371 371 372 374 370 370 371 374 377 371 373 369 370 369 371 372 370 368 365 365
312 309 309 304 304 305 306 307 317 318 318 320 321 324 326 330 333 337 341 344 346 350 350 352 356 358 366 368 369 370 372 373 371 371 371 374 373 376 376 372 372 370 369 371 371 368 362 365 362

GFSSGP_sfc_thetae_048.txt.gz
Theta_e
353 350 352 344 327 326 318 320 327 326 327 333 335 332 331 333 327 319 341 346 346 351 354 359 364 366 366 366 366 367 365 365 364 365 365 363 363 363 363 362 361 361 361 361 360 359 357 357 357
352 350 348 339 325 316 317 326 325 328 333 337 336 335 334 329 336 335 339 344 349 350 354 358 364 366 367 367 367 366 364 362 363 366 364 363 363 363 361 362 360 360 361 360 360 359 357 357 356
351 350 339 330 322 314 316 327 328 332 335 334 334 338 337 333 336 336 343 344 349 351 356 361 364 366 367 367 366 366 365 363 364 363 363 362 361 362 361 360 361 362 361 360 359 359 358 356 356
349 345 340 324 318 323 325 327 332 332 334 337 336 332 339 343 338 343 343 346 350 353 356 362 364 365 366 366 366 366 365 363 364 364 362 362 362 362 362 362 360 360 360 359 359 358 357 356 355
348 342 326 321 321 326 329 332 333 331 332 334 337 331 333 343 347 345 342 348 349 354 356 359 364 366 366 366 366 365 364 363 363 362 361 361 362 362 362 362 361 360 360 359 358 358 357 356 355
337 338 317 315 318 325 329 334 334 332 335 336 335 334 335 345 341 341 347 348 351 351 353 357 363 366 366 364 365 364 363 362 362 361 361 361 361 361 362 363 361 360 359 358 358 358 358 358 358
335 329 322 322 321 321 327 333 329 333 332 334 339 330 336 340 341 342 349 349 350 351 356 359 359 361 365 365 364 364 362 362 362 361 361 360 360 360 361 361 361 361 359 358 358 357 357 357 357
338 330 320 322 317 319 329 329 331 333 333 342 342 331 331 340 344 346 347 349 349 350 355 359 359 358 360 359 363 362 362 362 362 362 360 360 360 360 361 364 363 360 359 359 357 357 358 357 356
338 324 317 319 319 321 329 328 334 338 336 339 342 339 342 345 346 345 345 346 350 349 351 351 353 359 359 359 359 361 361 361 361 360 358 357 357 363 361 364 364 361 360 359 359 358 356 358 359
330 321 319 325 325 324 327 326 330 330 331 335 339 343 343 344 344 342 342 342 342 348 347 348 350 352 357 352 360 361 357 357 359 360 351 351 358 358 359 362 366 364 363 362 362 359 358 360 359
328 322 323 327 327 330 327 326 332 329 326 337 336 339 341 342 341 341 342 343 342 348 346 346 351 355 353 354 356 356 355 356 361 363 357 355 361 364 356 358 360 360 363 359 358 358 357 355 358
323 328 328 326 330 329 328 331 326 329 329 339 341 342 342 341 340 341 341 343 344 348 346 347 354 356 358 357 352 355 352 356 357 360 366 364 352 361 350 354 354 359 357 360 358 359 360 350 356
324 327 329 330 330 331 330 326 327 327 334 340 342 342 341 341 341 343 344 345 348 347 346 349 355 359 368 361 357 354 358 357 354 362 364 366 353 361 353 354 354 361 364 358 361 357 359 352 354
326 327 327 330 328 329 328 329 328 328 334 337 339 339 341 341 342 344 345 345 347 346 346 351 355 360 365 368 373 362 366 358 363 361 363 369 367 359 358 359 352 360 362 365 361 364 361 353 351
325 320 324 326 327 326 327 324 326 331 333 333 336 338 339 342 345 344 344 347 349 347 347 350 352 356 362 365 367 367 366 355 359 362 366 368 372 371 368 355 363 356 360 369 360 361 359 352 355
320 320 315 324 326 327 325 316 328 331 330 332 334 336 338 339 341 347 348 348 348 345 348 352 348 355 359 362 364 363 359 358 362 358 361 365 370 372 374 361 353 363 368 360 360 362 358 354 355
317 311 314 317 326 324 323 317 327 332 328 333 333 334 337 339 341 344 345 347 348 349 352 351 354 354 357 363 362 361 363 365 361 361 363 365 367 369 369 362 360 364 363 357 357 353 361 351 353
310 311 314 314 321 321 319 318 326 327 328 332 334 335 336 337 339 343 344 346 348 351 354 353 354 360 360 360 362 359 359 360 360 362 361 366 369 369 372 361 358 363 353 362 360 362 359 354 348
315 314 311 315 321 318 317 320 323 326 327 328 332 336 334 336 341 344 345 346 348 350 353 353 357 362 358 357 355 356 352 357 359 361 364 368 369 369 373 365 357 368 363 363 364 363 358 354 347
314 312 311 314 319 319 318 318 325 325 324 328 333 332 337 336 338 342 344 345 346 349 352 355 357 361 360 358 357 356 358 355 355 358 364 367 366 370 367 365 367 364 353 364 362 363 353 353 350
312 311 311 311 315 320 318 314 320 327 330 326 327 337 338 338 337 340 342 344 345 348 352 355 357 363 361 360 360 362 360 362 354 353 357 361 366 369 368 369 368 367 360 361 362 362 359 345 346
306 315 314 313 311 306 318 306 318 321 323 327 331 335 335 338 340 339 341 342 343 347 352 356 359 361 362 363 358 358 349 347 349 353 355 359 364 367 368 369 366 368 366 362 363 363 362 357 345
308 314 313 313 310 310 310 310 314 322 319 322 328 330 336 337 340 339 340 342 344 347 351 355 359 360 363 360 362 355 354 350 353 352 359 359 366 368 368 369 370 367 366 365 363 364 361 363 354
313 310 310 311 309 303 308 310 310 315 320 321 326 328 335 337 340 342 342 343 344 347 350 353 358 359 362 363 359 364 354 356 349 352 353 358 363 364 368 370 369 368 366 366 366 370 365 363 362
310 306 299 298 299 300 309 308 313 319 323 323 325 327 331 338 340 342 342 342 343 344 347 351 358 359 362 363 362 359 365 357 358 364 351 356 355 359 361 366 369 365 367 369 367 370 367 364 362
307 306 300 294 296 299 308 304 310 321 324 326 327 328 331 334 340 342 344 343 343 344 347 349 356 359 362 361 363 362 362 364 355 358 358 354 356 357 365 363 365 366 365 365 370 368 365 364 362
307 303 309 303 304 300 304 308 314 319 320 323 323 328 330 331 339 342 344 344 343 344 346 348 355 360 363 362 364 365 361 362 361 357 362 364 361 360 371 365 364 366 368 367 367 363 365 365 362
310 311 302 304 297 297 302 306 307 313 317 320 321 323 328 333 336 341 343 345 345 345 346 350 355 360 363 365 365 365 365 362 361 364 358 360 366 368 372 366 366 366 365 368 366 365 365 362 363
307 307 306 306 304 299 299 303 316 317 318 320 322 324 326 331 335 339 342 346 347 346 346 349 352 360 363 365 366 365 366 365 363 359 362 361 364 366 372 370 365 364 365 365 367 364 363 362 360
310 308 309 303 302 305 305 305 317 319 321 321 322 325 326 330 336 339 342 345 347 347 346 348 351 354 362 365 366 365 367 368 366 362 362 364 366 368 367 369 367 365 363 365 365 363 359 361 359

GFSSGP_sfc_thetae_051.txt.gz
Theta_e
353 352 350 343 326 324 317 319 328 324 324 331 332 330 330 332 324 315 338 343 348 350 357 361 365 365 363 365 366 364 363 363 365 365 365 363 363 363 363 362 362 361 362 360 359 358 359 358 357
349 346 348 338 321 312 315 325 323 326 332 334 336 334 332 327 334 332 336 343 349 351 355 359 365 366 364 365 365 365 362 363 366 366 365 364 363 362 363 361 361 362 361 360 359 358 358 357 357
347 348 337 329 321 314 315 325 326 331 335 334 333 337 335 328 333 334 340 344 349 351 356 359 367 366 365 365 365 365 363 363 364 363 362 362 362 362 360 362 362 361 361 360 360 359 359 358 357
346 342 337 322 317 322 323 327 330 330 334 337 336 329 334 337 334 338 342 346 348 354 357 364 367 366 366 365 364 363 363 364 365 364 362 362 363 363 361 360 360 360 361 360 359 359 358 358 357
348 340 324 319 319 324 329 331 331 329 332 334 335 327 327 335 341 340 341 347 351 353 358 361 367 367 367 366 365 364 364 363 364 363 362 363 363 362 362 361 360 360 360 360 359 358 358 360 359
334 333 316 314 318 325 328 332 332 332 334 333 331 330 332 340 337 339 343 346 352 352 356 359 365 366 366 365 363 365 362 362 363 363 362 362 362 363 365 361 361 360 360 359 359 359 361 361 359
331 322 313 318 319 322 327 334 331 332 333 331 337 329 332 334 337 339 344 348 350 352 354 356 357 359 364 366 364 363 362 362 362 362 362 361 360 360 362 363 363 360 359 359 358 358 362 361 359
336 330 319 318 317 319 328 330 335 335 332 340 339 327 325 333 337 344 346 347 347 351 353 354 354 354 355 358 365 363 362 362 362 362 361 361 359 359 359 364 365 360 360 359 358 359 361 362 359
341 321 315 317 318 321 329 329 337 340 335 337 338 336 334 336 341 343 342 343 346 350 352 353 352 352 352 354 358 362 362 362 362 362 362 356 351 352 358 360 364 361 360 360 359 361 361 362 358
330 319 321 325 324 323 327 327 329 333 334 332 335 339 337 336 340 340 338 340 343 346 350 350 350 350 351 354 353 353 356 355 354 351 343 345 349 352 356 359 362 362 364 363 363 362 363 360 353
327 319 327 325 328 329 325 324 331 331 329 333 331 334 337 337 340 339 341 342 343 345 346 346 349 350 349 351 352 353 351 351 353 339 343 344 351 352 342 351 353 353 359 352 358 356 354 352 352
320 325 326 326 328 324 322 328 327 329 334 339 338 338 338 339 339 340 340 341 342 342 342 344 346 348 348 350 350 351 350 350 353 341 340 343 350 349 347 349 345 351 354 354 351 350 352 350 350
321 323 328 328 328 324 327 325 327 333 339 340 339 339 338 339 340 340 341 342 342 342 340 342 346 347 349 347 346 347 347 349 353 349 345 350 350 346 347 345 343 349 356 355 350 351 353 346 347
323 323 325 326 328 328 324 325 326 335 340 337 337 337 338 339 339 340 339 340 341 344 340 345 345 348 351 351 350 350 348 347 355 355 354 355 352 352 351 349 351 352 349 354 351 350 347 345 347
322 317 320 326 327 325 328 321 324 332 338 336 336 337 338 339 339 339 340 339 341 342 342 345 345 351 349 350 348 351 350 344 344 355 354 351 353 353 351 352 352 353 355 354 352 348 348 344 346
314 315 310 318 324 327 325 315 324 332 334 333 336 337 338 337 338 340 342 342 342 342 345 347 348 350 350 350 349 352 348 345 343 352 353 351 353 356 351 348 348 350 356 351 352 349 345 342 344
308 305 308 313 322 322 321 318 325 331 331 330 332 336 336 337 338 340 343 343 343 341 344 346 347 347 350 350 351 350 350 351 346 347 351 352 353 356 354 349 352 351 352 352 349 345 345 341 342
302 305 308 309 317 320 317 320 324 328 329 330 332 332 333 336 338 341 344 344 344 342 344 343 347 347 350 351 352 349 348 352 346 347 351 354 355 356 355 355 349 349 349 349 348 348 348 346 343
310 309 308 312 317 316 315 318 322 326 324 325 330 328 332 333 340 342 343 345 341 344 343 344 347 349 349 351 348 348 345 348 343 345 354 356 358 357 356 353 351 354 350 350 350 348 344 342 331
309 307 308 312 316 314 315 316 322 325 325 327 330 327 328 333 334 338 340 341 341 344 342 345 345 350 349 351 348 347 347 347 345 345 346 358 357 357 356 354 353 353 351 350 348 344 343 342 333
307 305 307 307 312 312 311 314 316 321 325 325 329 328 328 331 333 335 336 339 340 342 343 343 347 351 350 351 350 348 348 345 343 343 342 353 354 355 356 356 354 353 349 350 349 350 344 336 333
302 311 311 310 307 300 311 300 313 317 320 322 325 326 330 331 334 336 336 337 340 343 347 344 350 353 351 351 350 347 344 340 342 341 344 350 353 356 359 358 355 353 352 350 350 351 343 340 334
306 311 309 310 307 302 305 304 310 320 317 319 323 326 327 332 334 335 336 338 340 344 346 347 348 352 352 351 349 348 343 342 340 343 341 346 350 353 361 358 355 352 353 351 352 351 346 348 339
313 308 306 307 305 297 302 301 304 312 318 320 322 324 328 332 335 335 338 339 339 344 346 349 347 351 352 351 351 346 344 340 340 338 341 346 354 355 359 359 358 354 352 351 352 351 348 345 350
308 302 294 293 294 294 300 298 301 313 319 322 323 325 331 334 334 334 335 336 337 340 344 348 348 348 353 350 349 350 346 345 341 340 340 345 351 354 356 357 357 355 353 355 354 355 351 349 348
305 301 291 285 289 293 299 296 302 313 317 323 326 330 333 334 335 334 335 336 337 339 343 347 349 348 352 353 350 348 352 350 347 348 350 344 349 354 355 357 359 357 355 355 356 355 355 352 349
301 298 301 292 296 291 294 300 306 310 312 317 320 323 331 333 335 335 335 337 337 338 342 345 349 349 351 352 353 351 348 353 348 345 348 350 347 351 354 356 356 358 356 354 354 357 355 354 352
304 304 295 296 288 288 294 296 299 304 307 311 313 320 325 333 335 336 336 337 338 339 341 344 350 350 351 352 354 354 353 349 355 350 346 347 351 350 352 356 355 359 358 356 355 355 356 352 353
301 299 299 295 293 289 289 295 307 307 309 310 313 318 323 331 335 337 338 338 338 339 340 342 347 351 353 354 353 355 355 354 351 354 350 350 350 352 358 357 357 357 356 359 356 353 354 354 352
306 302 301 295 291 293 292 296 311 310 313 314 315 316 321 329 336 337 339 339 338 338 339 341 345 350 353 356 356 355 357 358 354 351 353 350 349 353 353 360 359 358 358 357 357 354 356 352 352

GFSSGP_sfc_thetae_054.txt.gz
Theta_e
354 352 349 343 325 323 317 320 327 323 323 329 332 329 328 330 323 313 336 342 348 350 357 360 365 364 362 364 364 364 363 362 363 363 363 362 362 362 362 362 361 363 360 358 358 358 358 357 355
351 349 347 338 321 313 316 325 323 325 330 331 335 333 331 325 332 331 335 345 350 355 357 358 364 364 362 363 364 364 362 363 363 363 362 361 362 361 361 362 362 361 360 358 358 358 357 357 356
348 347 336 328 320 311 315 324 325 330 333 333 333 337 333 327 332 335 341 348 352 354 357 359 365 365 362 362 363 363 362 362 362 362 362 362 362 362 363 361 362 360 360 359 358 357 357 357 357
341 340 337 321 316 322 323 326 330 330 333 336 334 327 332 337 334 338 345 349 352 355 359 364 364 362 363 363 362 364 363 363 362 362 362 362 362 360 360 361 361 360 360 359 358 357 357 357 357
345 340 322 318 317 324 327 331 331 329 332 333 333 323 325 334 339 342 344 351 351 354 359 360 365 365 364 362 363 362 363 362 362 362 362 363 363 362 361 360 360 360 360 359 358 357 355 355 356
332 330 312 312 317 324 329 333 333 332 332 328 324 324 327 336 337 340 347 351 354 355 357 359 365 366 365 363 362 364 362 361 361 362 362 363 363 364 362 361 360 360 359 359 358 358 357 357 356
325 321 314 315 317 319 327 335 331 331 331 329 334 325 328 332 337 340 349 351 354 356 356 356 357 359 364 364 364 362 361 361 361 361 361 361 361 362 362 362 361 360 359 358 358 358 358 357 356
332 324 316 318 316 316 330 331 336 334 331 339 337 325 323 332 338 340 349 349 352 353 354 352 352 353 356 357 364 362 362 362 361 361 361 360 359 359 360 362 363 359 358 358 358 358 358 357 357
342 323 316 318 318 320 330 328 336 339 333 336 337 333 334 337 337 342 344 345 348 351 352 352 351 352 353 356 359 362 362 362 362 361 361 351 350 352 356 359 360 359 358 358 357 357 358 358 357
331 319 321 325 323 322 327 331 333 332 332 331 331 336 336 336 336 338 339 340 343 346 349 350 350 350 351 357 353 352 355 356 355 350 342 345 348 351 356 358 361 360 360 360 361 359 357 356 350
328 322 326 327 326 326 325 324 334 331 327 330 326 329 332 333 339 337 339 343 343 347 349 348 349 349 349 350 350 350 351 352 351 343 341 345 349 343 345 350 351 351 357 351 355 354 353 353 350
319 326 328 328 328 325 323 326 331 333 332 336 332 332 332 336 337 337 338 342 344 346 347 347 348 348 346 349 350 350 350 350 350 337 340 346 343 345 344 349 346 349 353 351 353 349 350 350 348
316 322 327 328 328 325 326 326 327 330 337 336 332 332 332 335 337 339 341 343 344 344 344 345 347 348 347 347 346 347 347 349 351 341 340 347 348 345 342 338 341 343 353 352 348 349 350 345 345
320 320 323 326 326 327 324 324 331 334 337 334 332 330 333 337 338 339 340 340 341 342 341 344 344 347 347 345 342 345 346 346 351 347 341 348 349 346 346 344 346 347 349 352 349 347 345 345 344
314 314 319 321 326 325 327 321 329 336 337 333 332 333 336 338 339 339 340 341 341 341 341 341 343 347 346 344 344 346 347 346 351 354 350 353 350 349 347 347 346 349 352 350 349 347 346 341 344
309 309 305 314 324 326 324 315 329 335 334 332 333 334 335 337 339 339 340 341 341 343 338 341 345 348 347 348 346 349 344 342 347 352 352 350 351 350 348 348 348 349 351 351 347 344 342 339 342
301 300 303 309 324 324 322 318 330 336 333 331 332 333 334 335 338 339 340 341 340 342 339 341 342 347 345 346 346 348 347 345 344 348 348 348 352 352 349 348 350 351 349 349 349 344 341 338 338
295 299 302 306 318 321 320 319 328 331 333 332 332 333 333 334 336 339 341 341 342 340 342 342 342 347 345 347 345 345 345 346 346 343 347 348 351 354 352 350 349 345 347 345 345 345 345 344 340
303 302 303 309 315 319 319 318 323 330 330 331 332 334 334 334 338 339 340 341 341 340 343 341 342 345 346 345 343 341 340 342 344 342 348 350 351 354 351 350 348 349 346 347 346 345 340 337 331
302 302 303 309 314 312 318 317 323 326 327 330 330 329 333 335 336 337 339 341 341 339 343 342 343 343 345 345 346 343 342 343 344 341 350 352 352 354 353 350 349 348 350 347 347 342 339 339 330
302 300 303 304 310 310 318 314 318 323 324 327 331 332 333 331 334 336 338 340 341 339 341 341 344 344 345 346 345 344 345 342 341 340 340 352 354 355 354 353 352 349 348 346 346 345 340 332 331
298 306 307 307 303 299 310 304 313 318 319 324 326 330 330 332 331 337 338 339 341 339 342 342 346 346 346 348 345 344 344 342 340 338 339 348 353 352 354 352 352 350 348 347 347 349 342 336 327
303 307 306 306 302 297 303 303 310 318 315 319 325 329 329 330 332 332 338 340 341 341 340 343 347 346 346 348 346 344 342 342 340 338 339 340 349 350 355 354 353 349 349 350 347 349 345 337 332
309 305 304 304 298 293 301 298 303 312 316 319 323 327 328 325 329 332 337 340 340 341 341 342 345 346 347 348 347 345 342 339 338 337 337 338 344 347 353 355 353 351 350 348 348 349 346 346 340
308 298 293 289 291 291 300 296 300 316 320 321 322 326 328 327 327 331 334 335 337 339 341 340 344 346 347 347 347 346 344 341 340 337 336 339 343 346 349 354 353 351 350 350 349 348 346 342 344
303 302 291 286 286 292 295 292 299 317 322 325 325 327 328 327 329 331 334 335 337 340 342 342 342 344 347 347 346 346 343 345 342 339 339 337 344 349 351 355 355 354 351 350 350 350 349 347 344
303 299 300 289 289 288 292 296 302 307 317 323 324 326 326 327 329 332 335 336 337 340 341 343 342 342 347 347 348 347 347 345 344 342 340 341 343 351 352 354 356 355 353 351 352 349 350 349 346
306 302 293 289 287 283 289 291 296 301 303 314 320 324 326 327 330 333 335 336 337 340 342 344 344 343 346 349 348 346 347 351 348 343 341 346 344 347 351 352 354 356 354 352 350 350 352 351 349
298 300 297 296 290 289 285 292 300 301 303 304 313 324 326 329 331 335 335 337 337 338 341 344 345 344 345 347 350 349 347 345 350 349 343 344 344 348 346 351 352 353 354 352 350 349 350 350 350
308 297 298 294 288 288 290 295 306 306 306 308 308 322 327 332 334 335 335 336 336 336 339 342 345 345 346 348 349 350 350 349 345 348 351 347 345 345 349 353 352 352 354 354 352 350 353 352 350

GFSSGP_sfc_thetae_060.txt.gz
Theta_e
353 351 348 342 326 323 316 319 324 320 321 326 330 326 325 327 323 315 335 341 347 350 354 358 363 360 362 362 362 362 363 361 361 362 362 362 361 360 359 360 360 357 359 358 358 356 355 355 356
350 349 345 336 320 311 313 323 320 322 326 332 333 331 328 323 330 332 334 344 351 353 354 355 362 363 362 362 360 362 362 362 362 362 361 361 361 361 360 360 358 358 358 358 357 357 357 357 358
349 349 335 327 317 312 312 324 326 326 329 331 330 333 330 326 332 334 339 349 353 353 355 355 363 363 362 362 362 362 362 361 361 361 361 361 360 361 360 360 360 358 359 358 358 357 356 356 356
344 339 334 322 315 320 321 326 328 327 332 334 331 323 330 335 333 338 346 353 352 353 355 359 362 361 362 363 362 362 361 361 361 361 361 361 361 361 361 360 359 359 359 358 358 358 355 356 355
339 337 320 316 317 321 326 330 330 327 330 328 329 322 326 335 342 345 350 352 351 352 354 355 363 362 362 362 361 360 360 360 361 361 360 359 360 360 360 360 359 359 359 358 358 358 356 355 355
333 326 309 310 315 322 326 334 331 330 328 326 324 324 326 340 341 346 351 350 353 353 353 355 360 362 362 363 363 360 360 361 362 361 362 362 360 360 360 359 360 359 359 358 357 357 357 356 355
325 315 312 315 317 318 325 336 329 329 326 325 329 321 328 337 342 348 350 352 354 353 352 352 353 357 362 362 364 361 361 361 362 361 360 361 361 360 360 360 359 359 358 358 357 357 357 357 356
330 320 314 315 315 317 327 332 334 331 328 332 331 320 324 334 343 348 350 351 352 352 351 350 352 352 354 356 362 360 361 361 361 360 360 360 360 360 360 361 362 359 359 359 358 357 358 358 357
337 318 312 316 316 319 329 327 336 338 328 332 331 328 333 340 347 345 345 348 349 350 348 349 350 352 352 356 356 359 361 361 360 359 360 357 353 355 355 357 358 359 359 358 358 359 358 358 357
328 317 317 324 324 320 329 329 331 330 328 327 327 334 336 342 342 338 338 339 345 346 347 347 349 350 352 359 353 353 356 356 355 354 349 349 351 352 356 357 357 358 358 358 359 358 358 353 351
327 319 327 326 325 327 328 329 334 329 324 326 325 329 333 339 338 336 338 339 341 344 349 347 348 349 351 354 351 351 352 354 353 350 345 348 350 347 350 353 354 354 357 352 354 353 354 353 350
319 326 329 329 330 325 325 328 330 331 330 332 331 333 333 337 336 336 337 339 340 343 347 347 347 347 349 349 350 349 350 351 351 348 342 346 348 346 348 350 351 351 353 351 352 350 351 352 352
319 321 326 330 328 326 327 327 330 331 333 332 333 333 332 336 337 339 341 342 343 343 347 347 347 345 347 347 348 348 348 350 350 347 340 347 346 346 344 344 345 344 349 351 349 350 352 350 350
314 319 320 321 319 322 322 325 330 330 332 329 331 330 332 336 337 339 340 340 342 344 345 346 346 346 345 344 345 345 347 348 349 349 339 347 348 347 345 343 347 347 349 352 351 351 348 347 344
309 304 308 311 316 321 327 323 326 330 330 327 329 330 331 335 338 338 341 340 342 344 345 345 345 345 344 343 343 344 346 347 348 350 345 343 349 348 348 346 348 350 353 352 349 349 349 346 347
302 302 300 307 313 320 321 311 328 329 327 325 328 329 331 334 336 339 342 342 343 343 343 344 346 344 344 343 343 343 345 346 346 349 350 343 349 351 349 348 350 353 354 353 350 347 345 344 344
294 294 298 304 313 320 317 312 328 328 327 324 326 327 330 332 336 338 341 343 344 343 343 342 343 342 343 344 343 342 344 345 346 348 350 350 350 353 350 350 348 352 351 353 352 347 344 341 342
291 291 296 302 310 317 315 315 326 326 325 325 325 326 328 331 333 338 340 343 344 344 342 342 341 340 343 343 343 345 345 344 343 347 350 351 352 353 350 351 351 351 351 351 352 348 347 346 343
297 297 298 303 311 315 314 315 325 327 324 323 324 325 326 329 335 338 340 342 343 342 340 339 339 339 343 342 340 341 342 344 345 345 350 350 352 354 350 351 349 349 350 349 349 349 342 338 337
296 294 295 301 308 314 313 314 324 326 326 325 324 324 327 329 332 336 338 340 341 340 339 339 338 338 343 344 344 343 342 343 346 345 348 350 351 354 353 352 351 351 347 348 349 348 343 338 335
293 295 294 297 305 316 312 310 319 326 329 329 330 329 328 329 331 334 336 338 340 339 340 337 339 339 343 344 343 342 342 342 343 343 343 348 350 353 353 353 351 350 351 347 350 347 344 337 336
287 298 299 298 297 297 311 296 310 320 324 326 328 329 330 331 333 335 336 336 338 339 342 341 339 339 342 344 343 342 340 338 339 341 343 347 350 351 354 354 352 351 351 349 349 348 346 338 334
294 299 298 298 296 296 301 301 305 317 318 323 327 329 331 333 334 333 335 337 338 340 339 341 340 340 341 343 344 342 341 339 339 340 342 343 350 351 353 355 354 353 352 349 350 350 348 343 335
301 299 296 295 293 289 296 301 296 309 316 321 327 330 332 333 334 335 336 338 338 340 339 341 340 339 341 343 343 342 341 338 339 338 339 340 343 349 351 354 354 353 352 351 350 351 350 345 341
300 294 286 285 286 289 296 296 299 307 318 321 323 327 330 335 335 335 335 336 337 338 339 340 340 338 340 342 342 342 341 340 339 339 338 337 339 343 348 352 353 352 353 352 352 350 351 348 345
297 294 287 281 283 289 293 291 298 308 316 321 324 326 328 331 335 336 337 337 337 338 339 339 340 339 340 341 342 343 343 341 342 341 341 340 339 342 347 350 353 354 354 352 352 351 350 350 349
296 294 298 288 286 286 293 295 302 305 309 314 320 322 325 328 332 334 336 338 339 338 339 339 339 340 341 341 342 343 343 342 342 342 342 342 342 343 346 348 351 353 354 353 352 350 351 351 349
295 300 293 289 284 282 288 290 298 301 304 309 315 321 323 327 329 332 335 335 339 340 340 340 340 340 341 342 343 343 344 344 344 342 341 342 341 344 346 348 349 351 353 353 352 351 352 351 350
294 294 294 296 292 288 283 289 297 302 307 308 312 321 323 325 328 330 331 334 337 341 341 340 339 340 341 343 343 344 344 345 345 342 342 342 342 341 344 348 349 350 353 354 352 352 353 351 352
295 292 294 294 290 290 288 293 302 303 305 309 312 318 324 326 328 330 331 330 334 338 340 340 339 340 341 343 344 344 345 345 344 344 343 343 342 342 344 347 349 351 353 354 352 351 353 352 351

GFSSGP_sfc_thetae_063.txt.gz
Theta_e
353 353 350 342 328 323 320 322 328 324 325 331 331 328 325 329 324 321 343 348 351 352 357 358 363 364 362 361 362 363 363 363 362 362 362 362 361 361 360 360 357 359 358 357 355 354 356 357 358
352 349 345 337 321 314 319 326 324 326 329 332 333 332 329 325 333 335 340 349 349 351 355 356 362 365 362 363 362 362 362 362 362 362 362 361 361 359 359 360 359 359 358 357 357 357 357 357 358
350 350 336 328 322 315 318 326 326 329 332 332 331 333 330 328 334 337 345 350 350 353 357 358 364 364 362 361 363 362 362 362 361 362 361 361 361 360 360 358 358 359 358 357 357 357 357 357 357
347 342 335 323 318 323 324 328 328 329 334 335 333 326 331 336 336 341 349 351 350 353 355 361 362 363 361 363 362 361 360 362 361 362 361 360 360 361 361 361 359 358 358 358 357 357 357 356 355
346 338 324 321 320 324 329 331 331 329 331 331 331 324 327 337 342 347 350 351 351 351 355 359 364 364 363 363 362 362 361 361 361 361 361 361 361 361 361 360 358 357 357 358 357 356 356 357 357
335 333 318 317 318 325 330 334 333 332 332 329 328 327 328 342 343 347 350 350 354 352 352 357 362 362 362 361 360 361 362 362 362 362 361 361 361 361 361 360 360 359 358 357 357 357 356 356 356
330 323 318 318 319 321 327 337 331 332 330 329 331 324 332 338 345 349 350 352 354 352 352 356 358 361 363 363 361 361 362 362 362 361 362 362 362 361 361 361 359 358 357 356 356 357 357 356 356
338 328 320 320 319 320 331 333 337 333 329 335 334 325 326 337 347 349 350 352 354 353 353 355 359 359 362 363 361 361 361 362 362 362 362 363 362 361 361 360 359 358 358 357 356 356 357 357 359
337 325 320 320 320 323 332 330 338 337 330 332 333 332 337 343 347 347 348 349 351 351 351 352 355 358 361 363 359 360 361 361 361 360 361 360 361 361 359 358 357 359 358 359 358 357 357 358 358
332 324 321 327 327 325 330 332 335 331 329 329 331 335 340 343 344 341 341 343 346 347 349 351 354 355 358 356 360 360 360 359 360 362 360 359 360 360 359 357 356 358 358 358 359 358 357 354 354
330 322 328 328 328 331 332 331 336 331 328 331 330 333 338 340 340 338 340 343 344 345 347 350 355 357 357 356 358 357 359 359 361 363 357 359 361 361 361 360 366 362 356 356 356 357 355 352 355
324 329 331 331 333 330 328 335 332 334 334 338 336 337 338 337 337 337 340 343 344 344 346 351 356 358 360 358 356 357 357 358 358 358 354 359 357 357 358 358 360 362 363 362 363 360 361 358 356
324 325 328 331 331 329 330 331 333 334 337 338 337 336 336 336 337 339 341 344 345 343 346 351 356 356 359 362 357 356 356 356 357 357 354 355 359 357 358 359 358 359 362 362 363 360 360 359 357
319 320 325 325 326 327 324 326 333 335 336 335 335 335 337 337 337 338 340 341 343 344 345 350 354 356 358 359 360 356 356 357 357 357 350 355 358 358 355 356 356 357 363 363 362 360 353 356 356
316 312 313 314 317 322 326 323 327 335 335 333 333 334 337 337 338 338 341 341 344 346 347 350 353 353 355 358 357 355 354 353 355 357 357 354 359 361 359 356 357 360 362 363 362 360 352 351 350
305 306 302 311 315 322 325 316 330 334 333 331 332 333 335 337 338 341 343 343 346 347 349 351 350 350 352 353 354 352 351 352 355 357 359 357 354 361 361 360 360 362 368 363 359 361 355 352 350
304 298 300 304 317 322 322 317 330 334 333 331 332 332 333 336 339 342 344 345 346 348 350 350 351 348 351 353 353 353 353 353 355 357 357 360 359 359 362 361 363 364 369 369 360 358 355 352 346
298 298 303 302 313 320 320 319 329 332 331 331 332 332 332 334 337 342 344 346 347 348 350 350 350 351 353 352 354 352 351 352 354 355 357 360 360 360 362 361 362 363 365 364 361 358 352 353 348
302 302 301 308 312 316 318 319 326 330 331 329 331 332 332 333 339 342 344 346 348 348 349 349 350 352 350 349 348 349 349 353 354 355 358 361 361 362 364 359 360 360 362 362 359 354 351 350 350
301 301 302 307 312 317 317 317 323 329 329 331 330 331 331 333 337 340 342 345 346 348 349 349 350 351 351 349 352 352 353 354 356 355 359 360 361 363 362 361 360 360 364 361 360 358 350 347 348
299 298 300 303 306 313 315 313 320 329 331 331 332 333 330 333 335 338 340 343 345 347 349 349 351 352 353 354 353 353 354 354 353 354 354 359 361 362 364 364 362 361 365 366 362 358 354 342 346
296 302 301 301 302 300 314 304 316 324 327 330 331 331 331 333 336 338 339 341 343 346 349 351 352 352 352 355 354 355 349 347 351 354 355 357 361 360 362 363 363 361 360 364 363 359 355 351 342
298 302 300 301 300 301 304 306 311 321 322 327 331 333 333 334 335 336 339 341 344 347 347 349 351 354 355 355 356 352 353 352 353 353 357 359 360 361 360 362 363 363 361 364 361 361 359 353 345
303 302 301 300 298 292 301 303 307 314 321 326 332 334 336 336 336 338 341 343 343 346 347 348 351 353 355 354 355 356 356 353 349 351 350 352 354 357 361 361 363 365 363 363 361 362 362 359 355
301 298 292 291 291 289 300 300 304 314 322 325 329 334 336 338 338 338 339 341 343 344 346 348 352 351 353 353 354 355 357 357 355 354 350 353 350 352 358 362 363 362 365 364 363 363 362 360 355
301 300 293 288 290 292 299 297 303 313 316 326 330 334 337 338 340 340 341 342 344 346 348 349 350 351 353 353 355 357 358 351 351 355 351 349 349 351 359 360 362 363 365 364 364 361 360 362 360
301 297 303 296 297 295 297 301 308 313 315 317 321 329 333 337 339 340 341 342 344 346 348 348 350 352 352 352 354 355 356 356 353 357 357 351 356 351 355 358 359 361 363 364 365 361 361 362 362
302 306 297 298 290 289 296 298 299 307 311 316 317 322 329 335 337 341 342 344 346 346 348 350 351 352 352 352 353 353 355 356 356 356 356 357 355 355 353 356 357 359 361 363 364 360 363 362 360
299 298 301 302 299 293 291 297 309 309 314 314 317 321 326 330 334 338 342 346 346 346 348 348 349 351 351 352 353 354 354 354 354 353 354 356 356 356 356 357 357 358 358 360 362 361 360 362 362
298 297 300 296 296 300 298 298 310 314 314 317 318 321 325 330 332 336 339 343 345 347 347 347 348 348 350 352 353 353 355 356 353 354 354 355 355 356 356 357 358 358 358 360 360 358 357 358 360

GFSSGP_sfc_thetae_066.txt.gz
Theta_e
355 356 355 346 327 329 323 324 332 329 329 334 335 331 330 334 329 325 349 352 354 354 358 357 365 364 362 363 363 363 363 362 362 361 362 362 361 361 360 358 358 359 357 355 355 357 359 358 359
351 352 346 337 326 320 322 329 327 330 332 333 334 334 330 330 337 341 345 352 354 354 355 354 365 364 362 363 363 363 363 363 363 362 362 362 361 360 360 358 360 359 357 359 357 357 357 359 359
353 350 336 329 325 323 322 329 330 333 335 333 333 335 334 332 339 343 351 353 354 354 354 360 364 364 363 363 363 363 362 362 362 362 362 362 361 360 359 359 360 359 357 357 357 358 358 359 359
349 348 342 328 322 327 328 332 334 332 335 337 336 327 333 342 341 347 352 352 352 352 353 362 363 362 362 362 363 363 362 362 361 362 361 361 361 362 360 360 359 359 358 357 357 356 357 355 356
349 343 328 326 324 328 333 335 335 334 335 335 336 331 331 338 345 350 350 350 350 349 353 359 366 363 362 362 362 361 362 362 362 362 362 361 361 362 359 358 358 358 358 358 356 356 357 356 356
339 340 324 322 324 329 334 336 336 335 336 336 334 332 333 343 345 349 351 350 349 348 352 356 364 363 362 362 362 363 362 363 361 362 362 362 361 360 361 360 359 359 358 358 357 356 356 357 358
335 329 323 323 323 326 331 339 336 335 335 334 339 331 336 340 347 350 350 349 348 349 353 356 359 363 362 361 361 363 363 362 362 363 362 363 361 362 362 360 358 358 357 357 357 356 355 355 357
339 332 324 325 323 324 333 337 339 337 334 341 339 331 331 340 345 349 350 348 347 348 353 355 358 360 364 361 362 363 363 363 363 363 363 363 363 363 360 361 358 357 357 357 356 356 357 358 358
342 329 323 323 324 329 336 335 340 341 335 334 338 338 342 345 346 344 345 346 346 347 351 352 353 361 363 358 361 362 363 362 362 362 362 362 359 359 360 359 357 357 357 358 357 357 357 359 359
333 328 324 330 330 329 335 336 339 335 334 332 335 340 343 345 343 343 343 342 343 344 348 350 351 356 362 353 360 360 358 357 359 361 362 360 361 360 358 358 358 358 357 359 358 357 356 359 353
330 325 328 331 332 335 333 335 340 334 332 335 335 338 341 343 345 344 344 344 344 345 346 349 352 355 356 356 356 356 357 357 359 362 362 362 360 358 358 356 357 357 359 356 357 356 354 353 353
324 328 331 333 334 333 332 337 335 336 338 342 341 341 341 341 341 342 342 344 344 344 346 349 354 356 357 355 355 355 355 357 356 358 362 361 356 358 357 358 357 362 357 359 361 357 358 357 357
324 325 328 335 334 332 333 334 334 336 341 343 342 341 340 341 341 342 344 345 345 343 346 349 354 357 359 358 355 355 356 357 358 358 359 361 360 359 357 359 358 360 360 357 357 358 358 357 354
317 321 324 330 331 331 329 331 334 337 342 341 340 339 340 340 341 342 343 344 343 343 345 350 353 357 360 358 361 357 357 358 358 357 356 361 362 362 359 359 358 358 360 357 359 359 355 358 356
317 314 318 320 324 326 331 327 329 340 341 339 339 339 339 340 341 341 343 344 344 343 345 349 352 355 359 359 359 356 356 354 356 357 359 360 362 363 363 358 361 359 361 360 358 359 352 352 351
310 311 308 316 317 323 329 320 332 340 339 338 338 338 339 340 341 342 344 345 346 344 345 349 349 351 356 359 358 354 354 355 358 358 359 360 363 367 365 360 362 359 361 356 354 355 350 350 349
307 302 305 310 318 323 327 323 334 339 338 337 338 338 339 340 341 342 344 345 345 346 347 348 350 349 352 357 356 355 358 355 356 358 360 365 363 363 363 361 365 361 357 354 354 353 354 350 348
302 302 306 307 315 321 324 324 332 336 336 337 338 338 338 339 340 343 344 346 345 346 349 351 350 351 354 352 355 352 353 354 358 358 359 364 364 364 365 364 363 360 356 355 356 358 355 351 347
305 305 304 310 314 320 322 325 329 334 335 336 337 338 337 339 343 344 345 346 345 346 349 350 351 354 352 349 347 349 350 354 356 357 361 364 365 365 367 361 362 359 357 358 358 355 354 347 351
305 304 305 309 313 314 322 323 327 333 333 335 337 338 338 338 341 344 345 345 345 346 348 351 352 354 354 348 349 350 354 354 357 358 362 365 365 366 365 364 365 361 358 358 355 358 349 349 349
304 303 304 305 310 315 317 319 323 328 334 335 337 340 340 338 339 342 344 345 346 346 347 350 354 355 355 356 351 356 357 357 356 357 359 362 364 364 366 363 363 361 359 354 357 357 356 343 349
301 306 305 304 305 304 314 308 319 324 328 332 334 337 339 340 340 342 343 344 346 348 349 351 355 356 355 356 357 362 352 350 351 354 354 357 364 363 364 367 366 368 370 359 357 356 355 353 343
302 307 305 304 302 303 308 307 315 323 322 329 332 336 338 340 341 340 343 345 347 349 350 352 355 357 360 359 360 355 356 350 351 353 361 364 365 364 362 365 366 366 363 366 361 361 360 353 348
308 305 304 304 302 296 303 306 310 316 322 328 333 335 337 339 341 342 344 347 347 349 350 351 356 361 361 359 357 361 361 359 352 355 353 353 355 358 364 363 366 367 362 362 362 363 363 360 356
306 303 297 294 294 294 303 301 308 319 323 327 331 334 337 340 341 342 343 343 346 347 348 350 359 361 362 357 357 356 359 360 359 358 353 357 351 352 359 365 365 363 367 364 367 367 363 362 358
305 303 298 293 294 297 303 298 303 316 321 328 330 335 338 340 341 342 344 344 346 348 349 352 358 360 359 359 362 364 363 354 355 359 354 353 351 352 359 363 363 365 364 365 367 362 360 363 360
305 300 307 301 303 300 302 304 309 313 317 321 325 330 333 338 341 342 344 345 346 347 352 355 359 362 361 357 364 364 363 362 356 366 363 355 361 354 358 360 362 362 363 365 367 361 365 363 363
306 309 300 301 294 294 300 302 302 308 313 317 320 323 330 336 340 343 345 346 348 349 350 352 358 361 361 357 359 358 361 361 363 361 363 363 361 360 358 360 359 360 362 363 367 362 364 366 362
303 302 304 304 302 296 296 301 312 311 313 316 319 323 326 333 338 342 345 347 349 350 350 350 353 355 356 358 360 363 359 359 360 358 360 362 363 362 362 360 358 358 360 363 364 364 361 362 365
300 303 304 299 299 301 301 303 314 315 316 316 318 323 326 329 333 339 342 346 348 349 350 350 351 352 354 358 363 361 361 362 357 359 359 362 362 363 363 362 361 358 358 362 362 361 358 359 360

GFSSGP_sfc_thetae_069.txt.gz
Theta_e
355 355 354 348 328 329 321 324 330 329 330 335 337 332 332 333 329 326 349 350 352 352 356 358 362 362 362 362 362 361 361 361 362 362 361 360 361 361 359 357 359 358 357 356 358 359 359 359 359
354 353 353 339 326 317 319 326 325 330 335 338 337 336 333 331 341 342 344 351 352 353 355 355 363 365 363 364 364 363 362 362 362 363 362 362 361 361 357 359 360 358 360 358 357 358 360 359 360
355 353 338 334 329 316 319 326 330 334 336 336 334 337 337 334 342 345 350 352 354 352 352 362 363 365 364 363 363 364 363 362 362 362 361 361 360 361 360 360 359 358 358 358 358 359 359 358 357
348 348 343 329 322 325 327 329 334 333 336 338 334 331 339 346 343 347 352 351 351 350 355 363 365 363 364 364 363 363 362 361 362 361 361 361 362 358 359 359 360 358 358 359 358 357 357 357 358
349 341 329 328 322 329 332 333 335 332 334 335 335 331 333 343 349 350 350 351 349 348 355 360 365 364 364 363 363 363 362 362 362 361 361 361 361 361 359 359 358 358 358 357 357 357 356 357 357
335 339 327 322 321 329 333 335 335 333 336 337 337 334 336 346 347 349 350 349 347 347 353 357 364 363 363 363 362 362 362 362 362 362 362 363 361 361 360 360 360 358 358 358 357 356 357 358 357
334 332 323 324 323 325 331 338 334 333 335 335 340 334 339 342 348 349 349 348 346 348 352 356 360 363 362 363 362 363 363 363 362 362 362 360 359 361 361 360 359 358 357 356 357 356 355 357 358
337 334 322 324 322 324 337 336 338 336 335 343 343 333 334 343 349 347 347 346 345 350 350 355 359 357 358 360 361 363 363 362 362 363 363 362 363 361 359 360 359 358 357 357 357 356 357 358 358
337 329 323 320 324 327 337 335 341 344 337 338 339 342 344 347 348 343 343 343 344 347 350 351 353 358 357 357 362 362 363 364 363 362 363 363 357 360 358 359 357 358 358 357 356 357 360 362 359
331 329 323 329 331 331 336 336 340 337 336 335 338 344 345 345 345 340 341 340 341 345 347 349 353 358 355 352 361 362 359 359 361 360 364 357 363 361 355 358 357 358 358 358 358 358 360 360 352
329 323 330 331 334 335 335 335 339 335 332 336 337 340 342 341 342 342 342 342 341 345 346 347 355 355 355 356 356 354 356 356 359 362 363 362 356 357 356 355 356 357 359 354 355 356 354 351 353
324 329 331 332 335 334 332 337 336 336 333 341 343 343 342 341 342 342 341 342 342 344 346 349 353 357 356 353 353 352 353 354 354 358 361 360 359 361 358 354 360 357 359 356 353 356 357 355 356
324 327 327 332 336 335 335 334 331 333 341 344 344 343 342 342 343 344 343 344 344 343 345 350 353 356 358 358 355 356 352 353 355 357 360 358 355 363 358 363 359 357 358 355 356 355 353 350 350
322 325 326 329 335 332 331 333 335 337 343 342 342 342 342 342 343 344 344 343 343 344 345 350 352 356 358 358 360 358 355 356 358 359 359 362 361 363 360 360 359 359 351 353 358 359 357 357 351
319 315 320 323 332 331 333 327 330 339 342 341 341 341 342 342 343 343 344 344 344 343 346 349 352 354 358 360 358 356 355 355 359 359 362 362 364 363 369 363 360 355 361 362 359 357 355 353 349
312 315 311 319 326 329 330 321 330 342 340 339 340 340 341 342 342 344 345 346 345 343 345 350 349 352 357 359 358 355 353 354 357 355 358 362 364 363 366 360 357 357 365 353 356 356 345 351 346
309 305 309 314 324 324 324 322 324 341 339 338 340 339 340 341 342 344 345 346 345 343 346 348 350 350 355 360 358 356 361 357 359 362 361 364 363 363 365 361 359 363 359 358 354 350 349 348 348
304 304 308 310 317 319 320 322 324 337 337 338 339 339 339 340 341 344 345 346 345 344 346 349 349 358 361 357 360 354 355 355 357 358 361 365 366 363 365 362 362 361 354 355 350 357 353 353 343
309 308 306 312 317 317 317 323 328 335 336 337 338 339 338 340 343 345 345 346 345 345 345 348 353 363 355 351 350 351 349 353 360 355 362 365 362 362 365 356 361 366 362 359 358 354 351 348 348
308 307 307 310 315 315 318 318 327 333 334 337 338 339 339 341 342 343 344 345 344 345 347 353 356 363 357 352 354 354 355 352 354 355 363 363 363 364 362 358 361 362 359 359 357 359 347 348 347
307 306 306 307 311 315 314 317 323 329 335 337 339 341 342 339 341 342 343 344 345 344 348 354 359 362 360 359 355 356 358 360 352 359 356 361 362 363 366 364 365 363 361 355 358 357 362 347 345
304 309 308 307 306 304 314 305 320 322 330 332 335 338 340 341 342 343 344 344 345 345 347 356 359 362 360 364 354 360 351 348 350 354 354 358 363 362 364 364 364 365 358 362 359 356 360 359 344
305 310 308 307 305 306 309 306 314 325 322 329 333 336 340 342 341 342 344 346 347 347 346 349 360 363 362 361 361 355 357 350 351 351 366 371 370 363 360 364 364 362 359 363 363 362 365 352 351
311 307 308 308 305 298 304 306 309 316 324 327 333 335 339 341 343 343 346 348 348 348 348 348 359 363 364 363 361 364 360 360 349 353 354 353 356 358 364 361 365 370 363 364 362 364 363 364 358
308 305 298 297 297 296 305 302 309 317 323 327 331 334 338 341 343 343 343 345 347 348 350 351 358 362 363 363 359 362 366 365 366 363 353 355 349 351 366 370 368 364 367 366 366 366 363 362 358
306 305 300 294 296 298 305 300 305 316 322 326 331 335 338 339 342 344 345 345 348 350 354 356 359 361 364 363 363 362 365 353 354 362 353 350 348 351 372 365 363 364 365 364 369 362 360 368 359
306 303 308 303 306 301 304 306 311 313 315 321 326 332 334 338 340 343 345 346 347 351 355 357 360 363 365 362 364 366 364 359 354 364 367 357 362 354 359 361 364 365 365 366 372 360 365 363 364
307 311 302 302 296 296 303 305 304 309 311 317 323 328 331 338 340 341 344 346 348 349 352 358 360 364 365 363 364 364 365 365 362 365 368 364 368 366 361 362 360 363 366 367 373 366 368 368 361
303 303 305 306 303 298 298 303 314 313 313 314 320 327 330 335 338 341 343 346 348 350 350 352 357 363 362 363 365 364 363 363 362 363 367 368 370 372 368 366 363 362 363 367 371 371 366 368 369
304 304 305 301 300 303 303 304 317 317 317 317 318 322 326 331 336 340 342 346 347 349 350 351 352 354 360 362 365 364 366 364 362 359 365 369 370 372 372 370 367 363 362 368 368 362 362 361 361

GFSSGP_sfc_thetae_072.txt.gz
Theta_e
354 353 350 345 328 327 318 322 331 327 328 335 336 333 331 334 329 324 348 350 352 351 356 358 362 362 362 362 361 361 360 362 362 362 361 360 361 361 358 360 359 358 357 359 358 360 359 360 363
352 350 349 340 322 310 316 326 325 328 333 336 336 335 333 331 340 341 344 351 351 353 354 356 362 364 363 364 363 362 362 361 361 361 362 361 361 358 360 360 359 361 359 358 359 360 359 361 361
353 352 340 332 325 315 318 327 329 333 336 335 335 339 335 333 340 343 349 350 351 351 354 358 365 366 363 364 364 364 363 362 362 362 360 360 361 360 360 359 359 359 360 358 359 359 358 359 360
348 347 342 327 319 323 325 328 332 332 335 337 336 331 339 345 342 347 350 350 348 352 355 362 366 365 364 365 364 363 363 362 362 361 361 361 360 360 360 360 359 360 359 359 358 358 358 359 358
347 341 328 325 318 325 331 332 333 331 332 334 336 331 333 343 348 349 348 348 344 351 354 359 366 366 365 364 364 363 362 363 361 362 362 362 362 361 359 359 360 360 359 358 358 357 357 357 357
336 338 325 317 318 327 332 335 335 333 334 335 333 333 334 345 345 347 348 345 348 348 352 357 364 365 364 364 363 363 363 363 362 363 362 363 361 360 360 359 359 359 359 358 357 360 360 358 357
332 330 324 322 322 325 331 337 334 333 333 333 338 331 336 341 346 348 347 343 345 350 351 356 359 362 365 366 362 362 363 362 363 364 363 362 362 362 360 360 359 357 358 357 357 357 358 358 357
334 330 325 323 322 322 332 337 337 336 333 343 343 330 330 340 347 346 345 343 344 349 351 358 361 358 361 359 364 363 363 363 363 363 361 361 363 361 359 363 362 358 358 357 356 357 357 361 361
337 322 322 322 323 326 331 332 340 343 337 339 341 339 341 344 345 343 341 341 346 346 349 351 352 356 359 359 361 363 363 363 363 363 363 363 358 358 356 361 360 359 358 357 357 358 360 361 359
329 322 324 329 331 324 327 330 337 335 335 334 338 342 344 343 343 340 338 338 342 344 346 348 350 351 355 355 361 362 360 359 361 362 361 364 355 363 354 357 360 359 358 358 359 359 356 355 350
329 321 328 329 333 331 334 332 340 333 330 334 336 338 341 341 341 340 338 339 343 344 345 348 357 359 351 356 361 360 358 359 360 363 353 363 361 355 357 356 356 355 359 354 355 356 353 350 350
324 328 327 330 333 334 331 338 334 334 332 338 341 342 341 339 338 338 337 338 343 343 344 353 351 361 354 356 357 355 353 359 356 361 368 368 356 351 352 354 357 355 361 353 349 350 352 351 353
323 326 329 330 330 335 336 331 332 331 332 334 342 342 340 340 339 341 340 340 343 343 347 352 356 358 360 367 352 354 354 356 357 359 366 352 359 352 352 358 352 351 354 354 350 356 351 352 349
324 325 325 328 327 334 330 333 333 335 336 341 340 339 340 340 340 343 339 340 341 344 348 351 351 362 364 368 368 351 359 359 355 361 364 359 362 354 359 361 351 352 350 351 356 356 348 352 353
319 316 319 323 325 332 332 327 329 337 340 337 339 338 339 341 342 341 342 342 342 344 349 351 351 355 362 367 369 366 352 351 358 359 368 357 361 365 361 362 350 351 353 356 363 360 353 350 350
312 313 310 317 322 328 331 320 331 338 337 336 338 339 340 341 341 343 344 343 344 344 349 350 348 351 358 367 366 365 362 356 359 361 364 365 368 367 361 365 361 365 359 353 351 352 355 347 350
310 303 307 312 320 322 327 322 333 335 333 335 337 338 338 339 342 344 345 344 344 346 349 349 353 351 356 363 362 363 372 356 361 360 362 370 366 361 355 362 367 369 360 360 352 347 350 354 351
304 304 306 308 315 319 321 322 327 325 327 328 336 337 339 338 339 344 344 346 344 345 349 353 353 355 362 360 364 361 364 364 351 361 362 367 368 364 361 362 368 367 356 357 355 355 355 355 340
308 307 305 308 314 315 317 321 323 324 324 328 335 335 337 338 342 344 345 346 344 344 348 353 354 358 356 356 354 355 355 359 360 356 366 369 362 367 367 370 367 366 359 357 363 362 354 350 349
309 306 306 310 312 313 314 317 323 325 325 327 328 335 336 338 341 343 344 346 344 344 347 350 354 358 355 359 358 359 361 356 356 358 365 367 367 368 363 364 366 369 363 362 361 347 346 356 345
308 306 306 306 310 312 312 312 321 324 328 332 330 339 336 339 339 342 342 344 345 344 347 349 355 358 356 359 357 362 363 361 356 362 362 363 368 367 360 367 369 369 367 360 360 357 356 349 344
303 309 308 307 306 301 311 301 319 326 328 329 332 336 336 338 341 342 341 344 344 346 348 351 355 359 356 360 355 359 352 352 356 359 358 362 369 368 367 369 370 370 362 361 361 362 356 357 350
306 311 308 307 305 304 305 303 308 322 322 322 326 334 336 337 341 341 342 344 345 347 347 352 354 359 355 356 360 355 355 354 357 356 364 363 370 371 362 368 369 368 367 367 367 365 365 363 357
311 308 307 307 305 298 303 303 306 312 324 322 323 330 336 337 339 343 345 346 346 347 347 352 353 356 357 355 357 358 353 360 357 356 357 360 360 365 371 366 369 369 368 366 367 369 367 368 365
309 304 296 295 296 295 304 302 306 314 325 327 324 328 336 340 340 341 343 344 345 346 346 348 353 353 356 355 353 360 355 357 364 362 356 354 355 355 364 370 366 365 368 367 370 369 368 367 364
305 304 298 292 294 297 305 300 305 313 317 331 327 331 331 337 342 341 344 345 346 347 348 347 353 353 354 357 352 356 362 354 357 365 355 357 351 356 363 364 367 370 367 368 369 368 365 366 364
305 302 307 300 303 299 302 306 310 314 314 317 328 327 329 333 342 342 344 346 348 348 349 349 351 354 356 355 356 352 359 360 354 365 368 358 364 362 362 364 367 367 367 367 367 364 364 367 368
305 307 300 302 294 294 300 304 304 310 313 315 318 327 331 333 337 343 344 346 349 350 352 353 354 354 357 355 358 355 354 357 360 356 366 363 367 365 364 365 365 366 369 369 366 364 363 365 362
302 302 303 304 302 296 295 301 314 315 315 315 316 321 331 331 338 341 344 347 349 351 351 353 354 355 357 359 357 357 354 355 354 356 356 361 363 374 369 369 367 366 365 368 368 365 363 362 363
305 303 303 300 299 302 302 302 316 318 317 316 317 319 327 331 336 335 336 346 348 349 351 352 353 357 359 360 359 357 360 357 354 351 356 364 362 367 375 368 370 366 365 366 365 362 359 361 362

GFSSGP_sfc_thetae_075.txt.gz
Theta_e
353 352 347 344 327 323 314 315 326 325 326 333 335 333 330 333 328 319 344 348 349 348 353 358 364 362 361 362 360 361 362 362 362 361 360 362 360 359 360 360 357 358 360 359 360 360 361 362 362
349 348 347 337 320 310 312 325 325 328 332 335 336 335 331 328 338 339 341 348 349 351 353 356 363 363 361 361 361 361 362 363 362 360 362 361 359 360 360 359 360 358 358 360 359 359 361 361 361
349 350 336 326 320 311 316 325 328 332 336 335 333 336 334 331 340 341 347 349 351 350 353 356 363 364 361 361 361 362 362 362 362 361 361 361 359 360 360 359 360 360 358 359 360 359 359 360 358
347 345 338 320 314 321 324 328 331 331 334 336 334 329 337 343 340 344 348 349 348 351 354 361 365 363 364 363 364 363 363 363 362 362 362 361 362 360 359 360 360 360 358 359 359 358 359 357 357
347 338 323 314 316 322 326 330 333 329 331 334 335 329 332 341 345 346 346 349 348 350 355 359 366 365 365 364 363 363 363 363 362 362 362 359 360 360 360 361 360 359 358 358 357 357 357 356 357
334 336 320 313 316 325 330 332 332 331 333 334 332 331 333 344 342 343 346 348 350 350 355 357 363 365 365 363 363 364 363 362 362 362 362 362 360 360 360 359 360 359 358 358 358 358 357 356 357
329 324 320 320 319 323 331 336 330 331 332 330 336 328 335 339 342 345 345 347 347 352 352 356 357 361 364 364 363 363 363 362 363 363 364 362 361 361 361 361 360 359 358 357 356 356 357 356 356
335 325 319 322 321 322 332 332 336 335 331 339 339 328 328 339 344 344 344 344 346 349 352 354 355 356 355 356 363 363 363 363 363 363 361 361 362 360 359 362 361 359 358 357 355 354 356 357 358
338 321 316 321 323 321 327 327 336 342 334 336 338 336 339 342 344 339 340 341 344 347 351 354 352 353 353 356 359 362 363 363 363 361 360 360 354 352 354 361 362 358 358 357 357 358 358 357 356
325 319 321 329 329 327 327 328 330 335 334 332 334 340 341 342 341 334 338 337 340 343 348 352 348 350 353 356 355 355 357 357 355 355 355 356 351 351 353 358 361 359 358 357 358 357 352 352 347
322 318 327 329 332 333 332 324 330 331 328 333 332 335 338 339 336 335 337 337 339 343 346 346 347 350 350 351 354 355 354 353 354 354 352 353 352 349 349 349 352 351 357 352 351 351 347 346 345
317 324 326 328 334 332 329 336 334 332 333 339 338 338 338 336 335 335 336 336 339 341 341 345 346 346 347 352 354 354 352 355 351 351 350 351 345 342 346 349 349 349 346 346 346 349 348 345 349
318 321 325 328 331 332 337 334 328 332 337 340 340 338 337 336 335 334 337 338 338 340 346 347 351 347 348 350 352 349 350 353 348 351 350 349 349 347 348 349 348 347 344 343 342 343 348 348 347
320 321 321 324 324 330 332 332 328 331 338 337 338 336 337 336 334 334 334 335 336 345 344 345 346 346 351 349 350 351 348 351 353 351 350 348 352 350 347 346 348 347 346 347 346 346 346 343 347
318 310 312 316 316 323 333 327 329 337 339 336 336 336 336 336 336 334 335 334 335 344 344 346 349 349 349 352 350 349 342 348 352 355 351 348 349 352 352 348 346 348 343 346 347 346 346 344 347
307 305 301 310 314 319 327 319 332 334 336 333 335 336 336 336 335 338 336 335 336 343 342 343 349 350 347 351 350 348 346 341 351 355 355 353 354 352 350 351 348 348 348 349 346 345 345 342 342
304 295 299 305 312 315 319 322 330 328 331 332 334 333 335 336 337 337 337 337 336 343 343 341 342 348 346 350 348 350 346 350 354 352 353 356 355 347 350 350 350 353 350 345 346 343 339 342 340
299 297 299 300 307 311 312 325 329 330 330 326 332 330 334 335 336 337 337 338 337 344 342 342 343 348 348 347 347 349 352 351 355 353 354 355 357 355 351 349 352 354 350 343 343 343 342 344 340
305 304 301 303 307 306 311 322 328 331 329 331 329 328 334 335 338 340 339 338 337 343 342 342 342 348 351 348 344 344 344 344 349 353 357 356 357 355 350 350 354 352 348 349 348 348 344 344 341
304 302 302 305 308 302 305 318 324 322 323 325 327 330 333 335 336 338 338 337 338 339 343 342 345 347 350 348 347 345 346 347 349 353 356 357 354 356 353 352 352 352 349 349 348 341 337 342 339
303 300 302 302 306 306 302 313 316 321 325 328 333 334 332 334 334 336 337 337 337 338 341 344 347 347 348 346 347 348 350 345 344 348 354 355 356 357 354 353 355 353 353 346 347 342 342 336 336
296 306 306 304 300 293 301 291 312 317 319 326 329 330 331 327 336 337 336 336 335 338 341 346 349 347 346 348 343 343 343 341 346 349 351 351 356 357 354 357 354 353 354 350 347 351 349 344 337
301 307 304 303 298 294 299 292 298 319 316 320 326 326 328 328 335 336 337 338 337 340 340 344 349 347 345 347 343 344 342 344 345 348 352 350 354 357 357 358 354 352 353 352 351 350 349 350 344
308 303 302 299 295 289 295 293 296 315 318 321 326 323 330 329 333 338 338 339 339 341 340 341 349 345 346 345 348 343 341 343 345 346 349 350 353 356 357 357 355 353 353 354 351 352 351 350 351
302 295 288 287 288 289 295 294 297 304 325 326 325 321 324 328 332 337 336 337 339 339 341 340 345 347 345 344 344 349 342 343 347 345 352 349 349 348 353 356 355 354 353 355 355 352 353 352 349
299 295 289 284 285 290 296 291 298 307 320 327 327 324 326 332 333 337 337 337 339 339 341 342 342 346 346 343 343 347 345 344 347 351 347 349 350 349 350 357 354 353 354 353 355 353 354 351 351
297 295 298 291 293 291 294 298 305 307 307 324 323 324 326 332 336 338 338 338 339 340 340 344 343 344 347 346 342 344 351 342 345 348 351 349 346 350 351 356 357 356 356 356 354 352 353 352 353
298 300 291 291 285 286 291 294 296 302 304 311 323 323 329 333 334 337 335 339 340 341 341 342 346 344 347 348 345 344 348 350 347 348 352 351 347 349 353 354 358 356 355 354 355 351 354 351 350
295 293 293 292 291 289 287 292 302 305 308 309 312 324 328 329 330 333 335 338 342 342 343 342 347 346 347 347 349 343 343 349 349 346 347 352 350 356 357 356 356 356 356 355 354 350 353 350 349
297 294 295 289 289 292 292 294 310 308 313 314 310 326 329 327 328 329 336 340 339 343 343 343 346 348 348 348 350 349 343 347 349 347 344 349 350 352 356 358 357 356 354 355 354 353 353 352 351

GFSSGP_sfc_thetae_078.txt.gz
Theta_e
354 352 348 342 324 323 314 316 325 325 325 331 332 330 327 331 327 317 340 346 347 347 354 358 363 361 361 362 361 362 362 362 361 360 361 360 359 360 359 357 360 358 358 361 360 361 362 363 363
350 348 345 337 319 310 313 323 321 327 332 334 336 334 331 327 336 335 339 347 347 349 353 357 363 363 362 361 361 362 362 362 361 361 361 359 360 360 359 357 357 359 359 360 358 361 361 362 360
349 348 335 326 316 310 314 325 328 331 335 333 331 336 334 330 336 338 345 347 348 350 353 357 363 363 361 361 362 362 362 361 362 362 360 360 360 359 359 360 360 358 359 360 360 360 360 359 359
346 344 338 317 315 320 322 328 332 331 334 335 334 328 336 342 340 344 348 350 349 351 354 361 362 362 361 361 361 362 363 362 361 361 361 361 361 359 359 359 358 360 359 359 357 359 358 357 358
345 338 319 315 315 322 327 329 331 330 332 332 333 328 331 339 346 347 347 349 348 350 354 358 364 364 363 364 362 363 363 363 362 363 361 360 360 360 360 359 359 358 358 358 358 358 357 355 357
331 334 316 314 316 324 328 330 333 332 333 333 331 330 331 342 343 345 348 348 351 352 356 358 364 365 364 364 363 364 363 363 362 362 361 361 359 359 359 359 359 359 359 358 358 357 357 355 357
329 323 320 319 317 324 324 331 332 332 331 331 336 328 332 337 343 346 347 348 351 355 354 355 357 361 364 363 364 363 362 363 363 363 361 360 360 360 360 360 359 358 358 358 358 357 357 356 357
334 326 319 322 319 321 328 334 336 334 330 339 339 327 327 336 343 346 347 345 350 352 354 354 354 355 355 357 363 363 363 363 363 363 362 361 361 360 361 361 362 358 358 357 357 357 358 358 356
338 323 314 320 322 323 331 329 334 340 335 335 338 336 338 340 344 341 342 344 346 350 351 352 352 352 352 354 358 363 364 363 363 360 361 359 352 351 354 358 360 359 358 358 359 359 359 357 359
329 319 319 328 328 326 327 329 334 334 332 332 335 339 340 340 340 337 338 339 340 346 349 351 351 349 353 357 354 353 357 356 355 353 354 353 351 350 354 357 359 358 358 359 359 356 355 347 347
319 316 324 329 331 333 327 327 335 331 328 333 331 334 338 337 337 337 338 339 340 347 349 348 349 351 351 353 352 352 353 353 352 352 351 351 351 349 349 351 352 350 354 351 351 347 345 343 346
312 320 323 326 335 331 324 330 329 332 333 339 336 337 337 335 336 337 337 338 342 345 348 346 348 350 346 351 352 352 352 351 350 350 349 349 343 344 346 349 347 345 345 344 344 344 345 344 346
314 317 321 325 330 333 333 329 329 330 338 341 339 338 336 337 336 338 339 339 342 343 345 344 346 348 345 349 351 350 349 351 350 349 349 349 344 342 346 347 346 342 340 342 337 338 342 345 345
317 317 318 321 332 333 331 330 325 329 339 338 337 335 336 334 336 336 335 338 340 341 341 344 344 345 348 349 350 346 348 351 349 347 347 349 348 345 345 345 345 344 341 340 342 338 342 343 346
317 310 309 310 328 332 333 323 321 334 336 335 334 335 336 334 335 334 335 336 339 340 344 345 345 348 348 347 346 347 348 351 349 347 345 349 350 348 347 345 344 344 342 342 344 344 343 342 342
307 301 297 305 309 332 327 318 329 337 333 333 334 334 335 335 333 337 336 339 343 342 344 345 347 347 347 347 346 344 344 348 351 349 348 346 353 351 349 344 344 344 342 345 344 343 341 340 341
301 297 298 301 307 321 325 320 330 333 335 331 332 334 334 334 334 334 336 341 342 342 344 344 346 344 346 346 346 345 341 346 350 350 349 352 352 350 349 346 346 345 344 344 345 340 339 337 338
296 296 295 297 303 305 323 324 328 328 333 333 333 333 334 333 334 334 336 341 342 343 342 343 346 342 347 343 345 347 344 346 351 349 352 353 349 350 347 348 350 350 346 342 342 338 339 341 336
301 299 299 304 308 302 307 322 323 326 329 329 330 330 330 333 337 335 336 339 342 341 339 340 344 341 345 341 341 342 342 344 348 350 353 352 351 353 348 350 350 349 346 340 342 346 341 340 336
302 299 298 302 307 302 318 321 325 325 322 327 324 330 331 332 335 336 334 336 340 339 339 339 344 343 344 342 341 343 342 343 349 351 353 354 352 351 350 348 349 346 346 345 343 339 336 339 337
300 297 298 299 304 302 318 318 322 325 325 326 328 331 332 332 333 334 333 333 340 338 339 339 344 345 345 344 344 344 343 344 344 347 350 353 353 353 352 349 351 349 346 344 341 337 338 334 334
295 304 303 302 297 291 298 291 315 322 321 326 326 330 331 334 335 335 333 332 338 339 340 341 344 345 346 344 343 341 342 337 341 345 350 352 354 353 354 351 352 350 349 344 345 347 345 341 332
301 305 301 300 294 292 294 290 293 317 314 318 325 331 331 334 336 335 334 334 336 339 340 344 342 345 347 344 342 342 339 339 343 344 347 348 350 352 353 353 352 350 350 347 346 348 347 346 341
306 301 298 294 292 286 290 291 294 311 315 319 325 330 331 331 332 332 337 335 335 338 341 344 342 343 346 344 339 340 339 340 341 343 346 345 348 351 352 355 351 349 350 350 347 348 348 347 347
299 292 286 286 285 285 290 291 293 315 319 322 323 328 330 333 331 332 332 334 334 335 338 344 343 341 342 344 341 340 341 339 341 343 347 345 347 349 351 353 350 349 350 352 350 350 349 347 346
292 291 287 282 283 286 292 288 295 306 316 325 326 328 326 325 331 331 334 336 334 336 336 341 343 341 341 342 344 342 341 340 343 345 347 348 348 349 352 353 351 350 350 351 351 347 350 349 348
293 290 294 288 287 286 290 295 302 305 304 321 324 322 322 324 329 331 335 337 336 336 336 337 343 342 342 341 341 344 345 339 342 346 346 348 348 348 349 353 350 349 349 349 350 349 349 349 349
292 295 289 287 283 282 288 290 293 299 306 312 323 324 322 324 330 333 336 337 338 338 338 338 339 343 343 342 340 341 344 345 339 344 346 346 347 346 347 353 352 350 350 352 349 348 349 349 347
291 288 287 287 287 284 283 288 297 301 306 307 311 316 326 325 330 335 337 338 339 339 339 339 338 340 344 344 341 340 341 346 341 342 344 349 345 346 348 350 353 352 351 349 350 348 348 348 345
293 290 287 283 284 287 288 290 306 307 307 310 312 315 319 329 331 336 338 338 339 338 339 339 341 339 343 345 344 341 340 343 346 345 342 348 347 351 351 350 354 352 352 351 350 348 349 348 347

GFSSGP_sfc_thetae_081.txt.gz
Theta_e
353 351 347 341 323 324 313 316 325 324 324 329 329 326 324 329 324 315 336 342 343 343 352 356 362 360 360 360 361 361 361 360 359 360 360 358 360 358 356 359 357 359 359 359 360 361 361 362 361
350 347 344 336 319 308 312 322 321 325 329 330 332 333 330 327 335 332 337 344 342 349 352 355 362 362 361 360 361 362 361 361 359 360 359 360 359 359 356 358 359 359 359 359 360 361 360 360 358
349 348 333 326 316 311 313 322 326 331 332 333 332 335 333 329 334 334 343 343 348 350 353 356 362 362 361 361 361 361 362 359 360 361 359 359 359 358 359 358 359 359 359 359 359 360 359 357 357
342 342 333 317 314 320 321 326 330 330 333 335 333 328 335 339 335 342 344 345 347 351 355 360 361 361 361 361 362 361 360 360 361 359 360 360 358 358 359 359 359 359 359 358 359 358 357 357 357
344 337 318 315 316 322 327 330 332 329 331 331 333 327 330 339 344 344 344 345 348 349 353 357 363 362 361 360 360 361 361 361 361 360 360 359 360 359 359 358 358 359 358 358 357 357 357 356 358
330 334 316 313 316 324 329 329 329 331 331 332 330 329 331 342 342 344 346 347 350 351 354 355 361 362 363 362 363 362 362 362 362 359 359 360 359 359 359 359 359 358 357 357 356 355 355 357 358
329 321 319 318 318 323 326 330 332 331 331 330 334 326 334 338 343 346 347 348 350 354 354 354 356 359 363 363 363 362 362 362 362 360 360 359 359 359 360 360 359 359 359 358 357 356 356 357 358
333 327 318 321 319 319 329 334 336 334 331 338 337 325 327 337 344 346 346 348 351 351 353 353 353 355 355 355 362 362 362 362 362 361 359 359 359 359 359 360 360 358 358 357 357 356 356 359 359
338 322 315 319 320 324 334 330 336 338 334 335 337 334 337 341 344 342 342 345 347 350 350 350 351 351 352 354 358 361 362 363 362 360 360 358 351 350 353 357 359 358 358 357 357 358 358 358 358
325 319 319 327 328 324 330 331 330 328 330 332 333 336 339 342 340 338 338 339 343 347 348 349 350 349 352 357 354 354 356 356 354 353 353 350 348 349 353 355 358 358 359 360 358 356 353 351 346
322 317 324 327 331 330 328 330 331 327 326 333 330 332 337 338 338 338 338 339 341 346 349 348 348 349 351 352 351 351 352 352 352 350 349 348 349 349 349 350 349 349 355 349 348 344 341 344 344
311 319 323 324 332 328 327 333 329 330 333 339 336 336 336 336 336 337 336 338 341 345 348 348 348 349 347 351 349 349 350 350 349 349 348 346 344 344 346 346 347 345 345 340 343 342 342 342 343
312 317 320 321 331 328 331 328 328 330 336 340 339 336 335 335 336 338 338 338 343 343 345 346 346 347 345 349 349 348 348 349 348 347 348 346 341 342 345 344 344 341 341 338 338 338 341 343 344
315 316 317 317 319 328 327 326 327 329 339 338 335 334 334 335 336 336 337 337 341 343 344 343 344 346 345 347 348 348 347 349 348 347 348 348 343 341 344 344 343 340 337 338 338 335 341 341 343
315 311 311 318 328 329 329 322 322 334 336 334 333 334 334 334 336 336 337 338 341 342 342 340 342 344 345 346 348 347 347 350 347 346 345 347 347 344 344 343 342 343 342 338 341 343 341 340 340
304 301 297 309 329 332 325 315 326 335 334 332 333 333 334 334 335 337 337 338 342 340 339 342 346 345 344 345 346 345 346 348 347 346 343 347 350 347 345 344 343 343 340 341 341 341 338 338 337
299 296 298 301 327 329 322 317 329 334 333 331 331 332 334 332 334 335 337 338 341 339 341 342 343 344 344 345 344 341 343 346 348 347 345 346 351 350 346 343 343 342 340 342 343 340 337 335 336
295 295 295 297 309 315 322 320 327 331 332 331 330 332 333 330 332 334 335 339 340 341 343 343 343 343 345 344 343 343 339 344 349 347 346 351 349 349 346 344 345 343 342 341 340 336 337 337 335
301 298 296 301 305 302 313 320 323 328 330 330 329 330 331 331 332 335 335 341 341 341 342 343 342 340 343 340 340 341 338 342 347 346 350 352 347 349 346 347 347 347 343 340 340 339 335 338 334
300 298 297 301 304 300 314 318 322 323 328 329 329 330 331 331 331 332 333 339 339 340 341 343 341 340 343 340 340 342 341 342 347 348 350 352 351 350 348 348 347 345 343 339 342 339 336 336 334
298 296 297 298 302 313 317 314 318 323 325 324 328 329 332 332 331 330 331 338 339 339 339 342 342 340 344 340 340 342 340 344 343 346 348 349 350 349 350 348 347 343 344 343 340 336 337 331 333
293 303 303 301 295 291 299 288 313 320 320 324 323 327 328 332 334 330 330 336 337 339 340 342 343 341 342 341 339 340 339 336 341 344 348 350 350 351 350 349 350 347 344 343 339 341 340 339 330
300 304 301 299 293 290 293 290 295 319 318 320 323 327 329 332 334 332 330 334 338 339 339 339 342 342 343 342 341 339 339 337 340 342 345 347 348 351 352 349 348 346 348 342 344 345 343 342 338
306 299 295 291 290 286 290 290 290 310 317 320 323 326 329 331 334 335 334 332 337 339 339 339 340 342 343 342 340 339 338 339 339 340 342 344 346 348 349 351 349 347 346 345 344 345 345 345 342
296 290 285 285 284 284 288 289 293 307 318 322 322 325 328 333 332 335 332 331 333 336 338 340 339 341 343 341 339 339 339 338 339 340 342 343 344 347 348 350 348 346 348 348 346 346 345 344 344
289 290 286 282 282 285 288 288 294 301 312 321 324 325 327 332 333 334 333 333 332 335 337 340 339 340 343 342 340 338 338 339 340 341 343 345 345 349 351 350 350 348 348 350 347 348 346 348 345
290 287 291 286 285 286 288 292 299 307 309 316 319 322 325 330 333 334 334 334 333 334 337 339 339 339 341 343 342 339 338 338 338 342 343 346 345 348 349 351 350 349 348 348 348 346 345 347 345
291 292 286 285 282 281 286 288 290 300 304 308 310 318 322 324 326 329 334 335 334 335 336 339 340 339 340 342 343 342 339 338 338 340 345 345 345 345 346 350 349 348 347 346 346 345 346 346 346
289 287 286 284 285 282 282 287 297 301 304 306 308 313 317 316 324 327 332 336 336 335 336 336 340 340 340 340 342 342 342 342 337 339 342 345 345 344 344 348 349 348 347 348 347 345 346 346 345
293 287 285 282 281 283 284 287 302 303 306 308 312 320 325 325 321 326 331 334 336 335 335 335 337 340 340 341 340 339 340 342 342 339 340 342 345 344 345 345 349 349 349 347 347 347 348 345 344

GFSSGP_sfc_thetae_084.txt.gz
Theta_e
352 349 345 340 322 322 314 316 325 323 322 328 328 324 321 325 322 313 334 339 342 344 352 356 361 359 359 359 361 360 359 357 359 359 357 359 358 356 356 356 358 359 360 360 361 361 361 361 361
350 347 343 333 319 309 312 323 322 325 328 328 332 330 329 325 334 330 335 341 343 347 351 354 361 361 359 360 361 360 359 358 359 358 358 359 358 356 358 357 356 359 359 360 360 360 360 359 359
349 347 333 324 316 311 313 324 327 329 329 330 331 335 332 327 332 332 340 341 347 350 353 355 361 361 360 361 361 361 361 358 359 358 358 358 358 357 356 356 358 358 358 359 360 359 358 359 359
342 340 332 318 314 320 320 325 330 330 333 335 333 328 333 337 332 341 340 347 348 351 354 358 361 361 360 361 361 361 359 358 359 358 358 358 357 358 358 358 358 358 358 359 359 358 358 358 358
344 334 318 316 316 322 327 330 329 327 330 331 333 326 327 338 343 341 342 347 348 350 353 356 363 360 360 362 361 359 359 360 360 358 358 358 357 358 358 357 357 357 357 358 357 358 357 358 359
331 332 316 312 317 324 326 329 329 329 332 332 329 328 331 340 339 339 343 347 351 351 353 355 361 361 360 360 360 360 360 360 360 360 358 357 358 356 357 358 357 357 357 356 357 356 357 359 360
330 320 318 317 318 321 324 330 328 330 330 330 334 327 334 337 341 343 345 348 351 353 353 353 354 357 362 361 360 360 360 361 359 358 358 358 358 357 355 358 357 357 357 356 355 356 357 359 360
332 325 319 320 318 317 329 329 336 333 329 337 336 325 327 336 343 345 346 348 350 351 352 353 354 355 355 356 361 361 362 361 360 359 358 358 358 356 358 358 359 358 357 356 355 356 358 360 362
337 320 316 319 320 323 334 330 337 338 332 335 336 333 337 342 344 342 344 346 348 350 350 351 352 352 353 355 357 361 361 361 361 358 358 356 353 354 354 357 357 357 357 356 356 356 358 359 360
325 320 320 326 328 325 330 331 331 329 329 329 332 337 340 341 340 338 338 338 342 346 348 349 350 350 353 357 355 355 357 357 356 355 353 352 351 352 354 356 357 358 359 358 358 355 356 351 352
324 320 325 327 330 330 330 330 331 328 323 331 329 333 338 338 337 337 337 338 340 345 349 348 349 350 351 352 352 353 353 353 353 353 352 352 351 351 353 350 350 354 356 350 349 343 345 347 349
311 322 325 328 332 329 328 330 327 328 333 336 335 337 337 336 335 335 336 338 341 344 348 348 349 349 350 351 351 351 352 351 351 351 350 350 347 349 348 349 350 349 348 346 345 346 346 347 345
313 317 319 321 330 327 332 328 329 329 337 337 337 337 335 335 336 337 337 339 342 343 346 347 347 348 348 350 349 350 350 351 350 350 350 348 347 347 348 348 348 346 346 343 343 343 346 346 347
315 316 315 316 323 327 327 327 328 331 339 336 335 334 335 335 336 336 336 336 341 343 344 345 346 347 346 348 349 349 349 350 350 349 350 349 346 345 348 348 346 343 343 343 342 342 346 346 346
313 310 308 323 322 324 328 321 322 334 339 335 333 333 334 335 337 336 336 336 341 342 344 342 344 347 345 347 348 348 348 350 350 350 349 350 348 345 348 347 347 346 343 342 346 347 346 344 346
302 300 296 317 327 328 323 314 326 336 335 332 332 332 333 334 336 337 338 337 341 342 340 341 347 346 345 346 348 348 348 350 350 349 348 347 350 347 346 347 347 348 346 344 346 346 343 343 343
299 295 297 301 327 327 321 315 326 334 334 330 330 331 331 332 335 337 338 338 341 341 340 340 343 343 344 345 347 347 348 348 349 349 346 349 350 349 347 347 347 346 345 347 347 345 342 341 342
295 295 294 299 320 324 320 318 324 330 332 330 330 331 331 330 333 337 338 339 341 341 340 342 343 344 344 345 344 343 343 345 350 349 347 348 350 351 350 347 348 346 344 344 345 343 342 342 341
300 298 297 300 303 301 303 315 320 328 329 329 330 330 331 331 334 336 338 339 340 341 340 341 341 342 343 341 341 341 340 343 348 349 351 351 351 350 348 348 348 348 346 345 345 343 342 343 340
299 297 296 303 304 300 303 308 321 325 327 329 330 329 330 332 331 333 334 337 338 339 340 341 341 341 343 343 342 345 342 345 349 351 353 354 351 351 349 349 349 348 345 344 345 346 342 342 340
297 295 296 299 302 313 312 304 314 322 325 326 331 331 331 332 328 331 332 335 338 338 339 341 342 342 345 343 342 342 344 345 347 349 350 352 353 353 350 352 351 348 347 343 347 344 344 339 339
292 302 302 300 294 290 299 287 303 316 319 323 324 327 328 331 330 331 331 335 337 339 341 342 343 342 345 342 342 341 339 339 343 347 350 352 354 353 353 352 352 349 349 348 346 343 344 344 338
299 303 301 299 292 290 292 289 291 314 315 319 324 325 328 329 332 330 331 336 338 340 340 342 343 341 344 342 342 341 340 341 344 347 349 350 352 354 354 352 351 350 351 349 348 348 350 349 341
304 297 293 290 289 285 290 289 290 309 315 320 324 327 328 329 332 333 331 336 338 340 340 341 342 341 342 343 340 340 341 339 341 343 345 347 350 352 354 353 351 351 350 349 348 352 351 351 348
295 290 284 284 284 284 286 289 291 299 305 320 323 325 328 330 330 333 330 331 336 337 339 340 340 341 342 342 341 340 341 341 341 342 344 345 347 349 351 353 353 352 353 352 351 352 351 351 351
289 289 285 281 281 285 288 287 296 305 309 314 323 324 327 328 331 333 335 331 334 337 338 339 338 340 341 342 341 341 340 342 342 343 344 346 347 350 353 352 354 353 352 353 351 352 352 352 350
289 286 288 285 282 284 287 292 298 306 308 309 312 320 322 326 331 332 336 335 332 336 337 339 338 340 341 342 342 340 339 340 341 343 346 347 348 350 353 354 354 353 351 352 352 351 351 352 353
290 290 286 285 282 281 285 287 290 299 302 306 310 311 315 319 329 333 335 335 334 334 338 339 340 339 341 343 343 341 339 340 341 343 344 347 349 349 351 353 354 353 353 352 352 352 351 352 351
288 286 285 284 284 282 282 287 294 295 300 304 308 316 320 324 322 327 334 336 336 334 337 338 339 339 340 342 343 343 340 339 339 341 345 347 349 349 349 351 352 352 351 352 351 351 352 351 351
289 286 284 283 282 282 284 288 296 296 299 305 307 312 321 327 328 323 328 335 336 334 335 336 338 339 340 341 343 343 343 342 339 339 341 346 348 348 349 348 352 352 352 352 351 350 351 350 350

GFSSGP_sfc_thetae_087.txt.gz
Theta_e
353 350 347 342 324 323 316 318 326 324 324 329 329 325 322 325 323 321 340 343 346 348 353 355 362 359 359 360 360 360 358 358 361 359 358 358 356 355 356 358 360 361 361 362 362 362 362 362 361
351 346 346 337 320 314 316 324 324 327 329 330 330 328 329 325 335 334 336 344 348 350 353 355 362 361 360 361 360 360 359 359 360 358 359 359 356 358 358 356 359 360 360 361 361 361 360 360 361
348 348 337 325 317 315 315 324 329 329 330 330 332 336 334 329 334 335 343 346 349 352 355 358 360 361 360 361 361 360 359 359 359 358 358 358 357 356 358 358 358 358 360 360 360 360 359 359 359
344 343 334 321 315 321 321 327 329 328 334 337 335 328 334 339 335 341 344 346 348 353 354 359 361 360 360 361 361 361 359 359 359 358 357 358 357 358 358 357 358 358 358 359 359 359 359 358 359
344 337 323 318 316 322 328 330 330 329 332 332 334 327 328 340 345 343 345 346 348 350 355 358 363 361 361 361 361 361 359 360 358 358 358 358 357 358 357 358 357 357 358 358 358 358 357 358 359
333 335 322 314 317 324 327 330 329 331 333 331 330 330 332 344 340 342 345 346 349 349 355 357 361 361 361 362 359 360 360 359 359 359 359 358 357 358 358 358 358 358 358 358 357 358 358 358 360
332 328 320 319 319 319 325 331 330 331 332 331 335 328 334 337 340 343 346 348 349 352 355 358 358 361 360 361 360 360 360 359 360 358 359 358 357 357 357 358 357 357 357 357 356 358 359 360 361
336 329 321 320 317 318 329 330 337 333 330 339 339 328 327 336 341 344 347 348 350 353 356 358 358 360 361 361 361 360 360 360 359 359 359 358 357 358 357 357 358 357 357 356 357 359 359 360 360
339 323 319 320 320 323 331 330 337 338 335 336 337 335 338 340 342 343 344 347 350 351 354 355 358 361 361 361 360 361 361 360 359 359 358 359 359 358 356 357 357 357 356 356 357 358 359 359 360
329 324 321 328 329 327 332 333 333 333 332 332 335 339 341 340 339 338 340 342 344 348 351 357 357 358 359 358 362 362 361 361 362 362 361 360 361 358 356 358 359 359 357 358 358 358 356 356 358
328 323 328 328 332 333 332 332 331 330 327 333 331 334 337 337 337 337 340 342 344 348 351 355 358 359 358 360 360 359 363 365 360 362 361 360 359 358 361 363 362 360 358 354 351 351 353 355 357
320 325 328 328 333 331 330 332 328 330 334 340 339 338 336 335 335 338 340 342 345 347 351 355 357 359 359 360 357 358 359 360 357 359 361 360 355 358 361 358 359 358 354 352 352 353 355 354 354
321 321 323 325 331 331 334 329 329 332 338 340 340 337 336 336 337 340 342 344 346 345 350 354 357 359 359 360 359 358 357 356 357 359 359 359 355 356 357 358 357 356 353 352 351 354 353 353 353
320 320 321 320 323 330 329 329 331 332 337 338 338 337 338 339 339 341 342 342 343 346 350 353 355 357 359 358 361 358 357 358 357 358 360 359 357 355 355 356 354 354 354 353 351 354 353 354 355
319 313 315 327 321 327 331 324 324 334 336 335 336 338 338 339 340 339 340 340 343 347 350 352 353 355 357 358 359 357 357 356 357 359 360 359 358 358 359 358 355 352 352 353 354 356 356 354 355
312 309 306 326 326 329 328 319 328 337 334 333 334 335 336 338 339 341 342 342 343 346 349 352 349 352 356 357 358 355 356 357 360 361 362 359 360 359 357 360 355 356 352 350 353 356 352 353 353
308 308 304 318 329 328 326 321 331 338 336 333 334 334 335 337 340 343 344 343 343 346 349 350 352 351 354 357 356 356 358 359 360 362 361 360 359 359 358 358 356 357 353 353 353 353 353 351 351
305 305 304 310 325 327 324 323 329 335 335 334 334 335 334 335 339 343 345 344 343 345 349 350 350 353 356 355 356 355 357 357 360 359 360 359 362 360 359 357 357 354 352 353 354 354 354 353 351
308 307 306 308 317 312 310 312 322 331 334 333 334 333 334 336 340 343 345 345 344 345 348 349 349 354 354 352 350 351 351 354 356 359 361 358 361 360 361 357 357 354 352 353 356 352 353 351 353
308 306 305 307 308 307 308 314 325 330 332 334 334 334 335 336 338 342 344 344 344 345 346 349 350 353 354 353 354 355 354 354 357 360 361 360 360 360 360 359 357 359 355 356 356 354 350 353 351
307 306 304 305 307 320 313 312 321 327 331 334 335 336 337 337 337 339 341 343 344 345 346 347 351 353 355 356 355 355 355 355 355 357 358 361 362 359 360 361 359 360 357 352 356 354 354 347 350
305 308 307 305 305 301 307 300 310 323 327 330 333 335 335 337 339 340 340 341 343 345 347 349 352 353 354 357 355 355 351 348 352 356 358 361 363 362 360 362 362 361 357 356 357 355 355 352 346
307 309 308 306 304 302 301 301 304 320 320 327 332 335 336 338 339 339 340 342 343 345 346 348 352 353 354 355 357 354 354 353 354 356 360 362 363 363 361 362 362 360 361 360 360 356 358 356 351
309 304 302 302 302 297 301 301 301 310 313 315 328 334 336 337 339 339 341 342 343 345 346 347 350 354 354 355 355 356 356 355 352 354 355 356 358 361 363 362 362 363 361 361 359 359 361 361 359
307 303 295 294 294 295 298 299 305 311 314 318 317 330 336 338 338 339 338 339 342 343 345 346 352 353 353 353 354 354 356 357 357 357 355 357 356 357 362 364 363 361 366 363 361 361 362 361 359
305 304 297 291 292 295 298 298 304 312 317 322 325 330 333 337 339 339 341 340 341 344 345 347 350 353 351 352 356 357 357 353 353 357 354 354 355 357 364 363 364 363 363 364 364 358 360 362 360
298 298 300 296 295 296 298 300 307 310 313 318 320 325 326 331 336 339 340 341 340 343 347 348 351 353 353 351 356 356 355 355 354 359 359 355 360 358 362 362 363 364 363 363 364 357 361 361 362
300 299 297 299 292 292 295 298 299 303 306 314 317 321 328 331 334 334 339 341 341 343 346 347 351 351 354 352 353 352 353 354 355 356 357 358 359 360 360 362 363 363 363 362 363 360 362 361 360
298 297 295 299 296 294 292 295 300 303 308 314 318 321 327 332 334 336 336 341 343 342 344 346 347 349 349 350 354 355 352 351 353 351 354 357 360 361 361 362 362 362 363 364 362 361 361 360 361
297 294 295 297 294 295 298 295 304 308 312 314 315 319 323 331 336 337 333 335 342 343 342 344 345 346 348 352 354 352 353 352 350 351 352 355 357 361 362 362 362 362 362 363 362 360 358 359 359

GFSSGP_sfc_thetae_090.txt.gz
Theta_e
353 350 349 343 329 330 321 322 330 326 328 333 333 327 324 327 327 324 343 345 346 350 354 356 363 361 361 362 361 358 359 362 360 358 359 357 356 357 359 361 361 362 363 363 363 362 362 363 362
349 344 348 343 326 318 320 328 326 328 332 334 332 330 328 329 339 337 339 346 348 351 352 354 362 360 361 360 361 360 360 361 359 360 360 357 359 359 357 359 361 362 362 362 361 361 361 362 362
345 347 340 332 320 319 320 326 327 332 333 333 330 337 335 333 338 337 344 347 349 352 354 360 361 361 361 361 361 360 359 359 359 360 360 359 357 360 359 360 359 360 361 361 361 360 360 361 362
345 347 340 326 316 322 325 327 330 330 332 339 336 331 338 343 339 341 344 348 351 352 355 360 361 361 361 362 362 361 360 360 358 358 359 358 358 359 358 359 359 360 360 360 360 360 360 360 360
350 343 326 321 317 323 327 330 334 331 333 336 334 330 333 340 345 344 345 349 350 351 355 358 363 361 361 362 362 360 359 360 359 359 358 359 358 359 359 358 359 359 359 360 360 359 358 359 361
339 340 323 316 318 324 328 332 333 334 336 336 334 334 335 345 342 343 345 347 350 350 353 357 362 361 361 362 361 360 360 360 359 359 359 358 358 359 358 358 359 359 359 359 359 359 360 361 361
335 332 322 320 321 322 326 332 333 333 335 334 340 333 336 338 342 345 346 348 348 351 354 358 359 362 362 360 361 360 360 360 359 358 359 358 357 358 358 357 359 358 358 358 359 360 361 360 360
339 335 321 324 321 321 330 332 337 336 335 342 342 332 330 338 344 345 346 347 348 352 355 358 360 357 359 361 361 361 360 359 358 358 360 358 358 358 358 359 360 358 358 359 360 360 360 361 361
341 329 322 323 322 328 332 331 337 340 337 338 340 339 338 341 344 343 344 345 349 350 353 354 354 358 359 359 361 361 360 359 359 359 360 358 361 357 357 359 358 358 357 358 359 360 360 361 361
331 331 325 330 332 329 331 335 333 333 335 336 338 339 340 340 341 340 341 342 345 347 350 351 355 355 358 356 362 362 358 360 361 361 361 363 359 358 357 360 359 357 359 359 359 358 358 361 355
331 329 330 330 332 334 333 336 336 333 333 338 336 336 336 338 339 340 342 344 345 349 349 352 357 358 356 359 359 357 358 358 358 361 360 359 356 357 359 362 357 355 357 353 355 355 355 357 356
326 331 331 330 331 330 332 336 332 335 337 343 342 339 336 336 338 339 341 343 346 348 350 353 356 358 360 358 354 355 355 356 354 357 360 357 354 356 356 353 354 354 352 355 357 356 357 356 357
326 327 327 326 329 330 335 331 332 335 340 345 343 337 336 336 338 340 342 344 347 347 350 353 356 359 360 361 355 356 356 356 356 356 357 355 353 354 355 356 354 353 353 353 354 356 356 356 356
325 328 327 325 323 329 330 332 333 336 342 341 339 336 336 336 338 340 342 344 346 347 350 353 355 359 360 360 360 359 360 360 357 356 359 361 355 356 355 355 354 354 355 354 354 357 355 355 356
324 318 322 326 323 326 333 328 328 336 340 338 336 335 336 338 340 340 343 344 345 346 351 353 354 357 359 360 359 357 358 357 357 361 363 362 361 359 359 356 354 354 356 358 357 358 359 355 354
321 315 315 324 325 330 332 323 332 336 337 337 335 335 337 339 340 342 343 344 344 346 351 353 351 354 358 358 358 357 357 358 362 362 361 361 363 361 359 356 358 358 353 354 355 356 354 353 351
318 314 314 320 328 329 330 325 334 338 335 335 336 336 338 340 340 340 341 341 343 346 351 351 351 352 356 360 359 359 361 359 360 362 362 364 364 360 358 356 363 363 352 353 355 354 357 350 350
312 314 314 317 325 326 326 326 333 339 335 334 336 337 337 336 335 341 343 343 343 346 351 352 352 355 358 358 359 356 357 358 360 359 360 362 364 360 364 361 360 359 354 353 355 356 355 352 351
315 316 312 318 324 321 323 320 329 335 337 335 336 336 335 334 339 344 346 346 343 345 348 352 353 357 356 354 352 353 353 362 358 360 363 360 360 361 362 358 359 357 354 356 359 355 355 349 355
313 313 313 313 314 313 313 314 322 331 334 338 338 338 336 337 338 343 346 347 346 345 347 351 353 357 359 356 357 355 356 359 359 361 364 363 360 362 361 363 359 358 355 359 358 357 349 351 355
312 312 311 311 312 317 315 314 321 328 333 336 339 340 340 339 337 342 345 347 348 347 346 349 354 356 359 360 359 361 360 361 359 362 359 362 362 360 364 361 362 364 360 354 358 357 356 345 353
308 313 313 310 309 307 315 306 316 326 328 333 337 339 340 340 341 341 344 346 347 349 348 350 354 357 359 362 360 361 353 350 352 358 358 361 365 364 363 362 362 362 358 359 357 356 356 357 345
310 315 312 312 310 308 309 306 313 320 323 329 334 339 340 341 342 341 343 346 348 349 350 349 354 358 359 361 362 358 359 352 355 355 366 368 368 365 362 362 361 361 357 360 361 363 361 354 350
314 312 311 311 310 301 307 306 308 314 316 319 325 338 341 341 343 344 345 346 347 350 350 351 353 359 360 360 362 362 360 357 352 356 355 369 360 361 365 364 363 362 361 359 358 363 363 363 357
313 308 300 299 299 299 309 306 310 316 321 324 320 330 340 343 342 344 345 345 347 349 350 351 354 357 360 359 360 361 362 361 360 362 355 366 362 355 363 366 368 361 364 363 363 366 362 360 356
310 308 301 295 296 300 307 302 309 319 325 327 331 333 336 341 343 344 345 346 347 348 350 352 354 356 359 359 360 362 363 358 357 357 353 354 353 357 364 365 364 364 361 361 365 360 358 358 356
309 306 310 302 305 302 303 309 313 317 321 326 329 332 333 336 341 343 346 347 347 348 351 353 354 357 359 358 360 361 363 362 358 360 360 355 360 358 364 363 364 363 362 362 363 357 360 361 359
308 312 302 303 297 296 301 304 305 311 317 322 324 328 334 338 338 339 343 347 349 349 350 353 355 356 358 358 358 358 361 362 362 360 360 359 358 361 362 364 363 362 364 363 365 360 361 362 358
303 304 305 306 304 299 297 301 308 312 319 320 323 328 334 334 340 341 338 342 348 350 349 350 353 355 356 358 358 359 358 360 361 359 358 360 361 362 363 365 365 363 362 365 366 364 361 360 359
303 304 306 301 301 303 303 299 312 315 320 322 323 330 327 330 331 336 343 343 343 346 348 348 350 352 354 357 358 358 360 360 358 359 357 359 359 362 364 364 364 364 364 366 366 362 358 360 359

GFSSGP_sfc_thetae_093.txt.gz
Theta_e
353 349 350 342 326 331 322 324 331 327 327 334 331 327 328 336 330 322 344 346 350 350 353 358 363 361 361 360 358 360 363 360 359 359 357 356 358 360 361 362 363 363 364 363 363 363 362 362 362
351 344 346 344 325 319 321 329 326 329 333 335 332 330 332 331 338 337 339 347 350 350 351 354 362 362 362 361 359 360 362 360 361 361 358 360 360 357 359 362 362 363 363 362 362 363 363 363 362
355 344 339 333 326 318 321 327 329 332 334 333 331 337 338 333 337 340 344 348 350 349 351 359 362 362 361 361 361 361 360 359 361 361 359 358 360 359 360 360 361 362 362 362 361 361 362 363 362
342 348 342 327 320 327 328 330 333 331 335 336 337 333 340 343 339 343 347 348 349 350 354 360 361 362 362 362 362 360 361 359 360 360 359 359 360 359 359 360 361 361 361 362 361 359 362 361 361
348 344 326 322 318 324 331 333 331 330 335 335 335 333 334 339 343 345 347 348 348 350 354 358 362 362 362 363 362 360 360 360 360 359 360 359 360 360 359 359 360 360 361 360 360 359 361 361 361
337 341 322 318 319 325 332 335 335 332 337 335 336 335 336 344 341 345 348 348 349 350 352 356 361 362 362 362 360 361 360 360 360 359 359 359 359 359 359 360 360 360 360 360 361 361 362 361 361
336 332 322 320 319 322 328 337 335 335 334 332 339 334 337 339 342 345 348 349 349 350 353 356 358 361 362 360 361 361 361 360 359 359 358 358 360 360 359 359 359 359 360 361 361 361 361 361 361
341 336 322 323 320 320 330 335 337 335 335 343 343 332 330 338 343 345 346 346 347 351 352 355 358 360 358 361 361 360 360 359 359 359 358 359 358 359 358 361 360 359 359 361 361 360 361 362 361
343 330 321 322 324 326 332 332 337 342 339 339 341 338 337 341 343 343 343 344 347 347 350 350 353 356 360 358 361 361 361 359 360 359 359 359 356 357 356 360 359 359 360 360 360 360 362 361 360
333 331 323 329 330 332 333 334 333 334 335 336 338 339 339 341 341 340 339 340 343 346 348 350 352 354 358 354 362 361 358 361 360 359 361 365 358 358 354 358 358 359 360 359 359 360 362 363 353
333 327 329 330 335 335 332 334 336 333 333 337 334 335 337 339 340 339 340 342 344 346 346 354 355 358 356 356 355 355 357 356 358 360 362 368 354 359 354 356 354 355 359 353 354 355 356 355 349
328 332 331 331 332 334 334 337 335 336 336 343 341 338 338 337 338 338 339 342 345 347 348 353 355 359 360 355 355 356 353 354 351 354 358 357 355 360 355 354 351 353 356 355 356 356 356 355 350
327 330 330 331 332 335 338 334 334 335 342 345 343 338 336 337 337 340 342 344 346 346 348 352 356 359 361 358 356 355 354 355 352 354 356 357 355 358 359 357 353 352 353 354 361 355 355 357 350
322 331 329 329 329 335 332 333 336 338 344 342 339 336 336 336 337 340 341 343 345 347 348 352 356 359 359 360 364 362 359 356 357 356 355 357 354 358 352 352 354 351 359 353 359 358 355 359 349
325 326 328 325 326 329 335 329 330 340 342 338 337 336 336 336 337 339 342 344 346 346 349 351 353 356 359 358 358 360 359 358 359 357 362 361 362 359 360 356 358 352 358 359 357 358 357 348 348
321 325 318 325 326 330 332 321 334 339 339 335 335 335 335 336 337 340 342 345 347 347 350 352 350 354 356 357 357 354 357 361 358 358 357 360 362 361 362 355 359 356 355 353 355 357 352 350 351
318 316 316 321 328 329 329 323 335 340 337 333 334 334 335 336 338 340 342 344 344 347 351 350 352 352 355 359 358 356 364 362 359 359 358 361 360 360 363 359 359 363 351 352 356 354 351 348 346
311 316 316 318 325 327 326 328 334 337 338 335 334 334 334 335 337 340 341 342 343 347 352 352 351 356 358 358 359 355 354 360 364 362 359 361 361 360 360 357 360 361 352 352 356 357 353 356 348
316 318 316 319 326 323 324 325 334 337 336 336 336 334 334 337 340 339 339 340 342 345 350 351 352 359 356 354 350 351 352 361 364 361 364 363 361 362 366 360 359 360 358 358 358 353 355 352 351
314 315 316 319 325 323 323 325 330 336 336 334 337 336 336 337 337 338 340 341 341 344 348 352 354 359 358 354 357 354 356 356 357 358 362 362 361 363 361 365 358 362 355 360 358 358 354 349 351
314 315 315 317 317 320 317 318 323 329 334 338 340 340 337 334 333 337 340 342 342 344 346 351 356 359 361 363 361 359 362 358 356 363 358 360 362 361 363 364 366 361 362 354 359 357 357 352 349
310 317 317 315 313 310 318 308 320 325 327 333 338 340 336 336 336 338 340 342 344 344 346 350 355 359 361 363 364 362 356 350 354 357 359 360 362 361 361 363 363 363 359 365 359 355 361 351 346
310 315 315 315 312 313 313 309 314 325 324 329 334 338 337 337 339 338 340 343 345 346 343 348 355 359 364 365 365 359 359 353 356 358 360 360 368 364 361 362 363 363 361 364 362 364 363 351 353
317 314 314 314 312 304 310 310 312 315 322 324 333 337 340 339 340 340 343 344 345 346 347 346 354 361 363 362 363 364 360 360 359 356 356 356 359 360 363 362 363 364 363 361 360 362 363 367 361
315 311 302 301 302 302 311 308 314 320 323 324 325 335 339 341 340 340 341 343 346 344 347 349 358 361 362 360 361 362 363 361 359 360 356 357 354 355 366 365 365 361 365 363 365 367 364 360 357
312 311 303 297 298 302 310 306 312 323 327 330 331 334 338 340 341 341 344 344 346 347 350 350 361 362 360 359 365 368 367 359 356 359 357 353 352 356 369 363 363 363 363 362 365 360 358 364 358
311 308 313 306 307 303 308 313 318 323 326 329 331 335 337 337 342 342 343 346 347 348 353 352 360 366 363 361 366 367 368 366 361 364 364 358 363 356 363 361 364 362 363 363 369 362 362 367 361
310 315 306 307 300 298 304 307 308 317 321 326 330 334 334 338 340 341 342 346 348 349 351 354 356 362 361 362 362 361 363 365 365 364 362 363 363 362 355 362 360 363 363 363 366 363 365 363 359
308 307 310 309 307 301 300 304 317 320 322 325 327 330 332 334 336 341 344 345 348 351 350 351 354 357 359 361 364 365 363 362 365 362 362 363 363 366 362 358 365 362 362 365 366 367 364 362 365
309 309 310 304 303 306 304 303 320 322 323 328 325 323 326 329 332 336 340 344 345 346 347 350 351 353 356 360 363 361 363 364 361 362 362 364 365 367 365 364 364 364 363 369 363 360 357 360 358

GFSSGP_sfc_thetae_096.txt.gz
Theta_e
352 348 349 342 324 326 319 322 330 326 326 329 331 331 331 333 327 321 344 349 348 349 354 357 363 362 359 361 361 363 360 360 361 360 358 359 361 362 364 366 366 366 365 364 363 363 362 363 361
350 345 344 343 322 317 319 328 326 328 328 331 330 334 329 327 335 336 340 349 348 349 351 353 363 364 361 360 362 362 360 362 361 360 361 360 359 360 363 363 363 365 365 364 363 364 363 363 360
355 344 338 331 326 318 317 328 328 330 331 329 335 338 330 328 335 338 345 347 347 349 353 358 365 363 362 360 361 361 360 362 361 361 359 361 359 361 361 361 362 362 364 362 362 363 363 361 359
349 341 341 326 319 326 325 330 331 329 331 337 335 329 333 339 337 342 346 346 345 351 352 361 364 362 362 362 361 361 360 360 361 361 360 360 360 359 360 361 362 362 363 361 361 362 361 360 358
347 342 326 323 320 327 332 335 335 331 330 334 335 327 329 338 342 344 345 344 345 349 352 358 365 362 362 362 361 361 361 360 361 361 360 361 360 360 361 360 361 362 361 361 361 362 361 360 359
336 337 321 316 320 325 332 335 333 333 334 335 331 327 330 341 341 342 345 345 350 348 351 355 363 364 363 361 361 361 361 361 360 360 359 361 360 360 360 360 361 361 361 361 362 362 362 360 358
334 330 322 320 320 323 329 337 334 334 331 332 337 328 332 337 341 343 345 349 347 348 351 355 356 362 362 361 362 361 361 360 360 359 360 361 361 360 361 360 361 361 362 363 362 361 361 361 358
339 334 322 321 320 321 331 336 338 336 332 342 340 328 326 337 342 344 345 346 347 350 352 356 359 359 358 359 362 361 361 359 359 359 359 360 362 360 359 363 363 360 362 361 361 361 362 361 358
342 325 319 320 320 324 334 331 335 340 337 338 342 334 335 339 342 342 341 346 347 347 351 350 355 356 360 358 359 360 359 360 360 359 358 360 358 357 356 362 362 360 361 361 360 361 362 360 359
332 323 323 330 330 328 332 329 332 333 335 336 333 335 337 338 338 338 339 339 344 346 346 350 353 354 357 352 360 360 356 360 361 360 358 356 361 356 353 359 361 360 360 360 360 360 361 359 352
333 325 330 331 334 334 332 330 332 332 331 335 329 331 334 336 337 336 339 342 344 348 346 351 354 356 356 357 360 358 357 359 359 361 365 362 360 355 350 355 355 358 359 352 348 355 361 360 354
325 325 328 334 336 334 332 334 332 334 334 339 335 334 335 334 334 335 336 342 343 346 350 352 354 351 354 355 352 358 357 353 354 358 364 352 355 357 348 355 355 357 352 344 333 351 355 354 351
324 323 330 331 335 335 337 332 334 328 336 341 337 335 335 334 335 337 338 342 346 346 351 355 359 366 362 350 363 358 352 352 353 356 356 360 355 351 356 363 357 354 360 356 352 356 355 358 352
328 331 329 329 332 336 332 332 335 333 341 337 336 334 334 334 335 338 340 342 344 347 350 354 356 361 361 356 358 364 350 355 360 360 363 354 362 356 358 357 359 349 353 359 361 363 353 357 352
324 322 329 327 330 332 335 328 330 339 340 336 334 334 334 334 336 338 341 343 345 346 351 354 354 357 363 364 365 362 362 357 354 358 368 369 365 356 353 354 352 359 364 362 363 362 362 350 350
317 322 320 325 326 332 331 322 333 338 337 333 332 333 332 334 335 339 341 345 346 348 351 353 349 354 361 365 365 361 361 353 351 355 361 367 368 365 356 359 353 363 361 359 362 363 357 349 350
315 313 317 319 326 330 329 322 332 338 335 332 332 331 332 333 335 339 341 344 345 350 352 351 354 353 358 364 364 356 367 356 349 350 354 366 366 367 364 357 361 366 362 354 351 348 353 347 351
309 311 317 318 322 326 325 326 331 335 334 333 332 332 332 332 334 339 340 344 344 350 354 357 354 359 365 361 369 364 362 368 353 358 355 364 365 365 364 361 365 369 358 357 360 361 360 355 346
316 315 317 319 323 324 317 316 327 334 333 332 332 330 331 332 336 338 339 342 342 349 351 356 359 362 360 359 357 362 357 362 361 352 359 365 367 365 367 365 365 368 357 357 361 358 356 356 349
313 312 316 319 322 323 318 318 327 333 334 334 332 332 334 335 335 338 339 340 341 348 352 356 361 361 363 359 365 364 355 358 360 352 359 368 363 367 364 368 363 364 362 364 363 361 355 356 348
310 310 317 314 318 324 323 317 312 331 334 336 336 337 336 336 335 335 337 338 340 347 350 355 361 360 362 366 368 353 351 350 356 359 363 364 366 364 366 356 365 360 367 360 364 363 360 353 351
306 315 315 318 315 309 319 308 322 328 327 326 333 336 337 338 339 335 336 337 339 345 350 355 360 360 361 367 365 363 353 347 353 358 363 363 362 365 366 368 366 361 356 357 364 361 361 356 353
310 316 316 317 315 311 312 311 317 323 322 317 326 336 337 337 334 336 336 339 341 345 346 354 358 361 363 366 368 360 360 355 350 358 350 364 370 369 363 370 368 363 353 356 363 365 355 363 357
316 313 313 315 312 304 310 309 313 319 318 322 325 337 337 338 335 337 340 343 344 344 344 352 356 359 365 363 365 364 352 347 351 356 353 359 362 365 368 363 371 365 355 363 364 366 365 363 366
313 310 302 302 302 301 311 309 315 319 321 326 330 335 333 333 336 339 341 342 342 341 342 350 355 357 362 362 362 365 361 361 346 351 350 360 357 355 368 368 369 366 367 365 369 369 368 366 364
310 310 302 297 298 301 310 306 313 324 326 326 332 334 338 331 333 339 342 345 344 345 343 348 355 357 359 361 362 365 367 362 358 355 361 359 359 355 358 365 367 370 368 367 368 364 364 366 363
310 307 313 305 306 302 307 314 319 323 324 328 335 337 335 339 340 334 340 345 345 346 347 349 354 358 359 360 363 365 366 366 363 366 368 361 365 353 354 362 365 365 365 366 365 363 364 364 365
312 314 305 307 298 297 305 308 310 317 324 330 331 333 336 338 341 339 337 338 340 343 345 354 356 358 360 360 362 363 365 366 367 372 366 365 363 353 350 351 362 363 364 365 364 364 362 362 361
308 307 309 309 306 300 300 304 319 321 327 327 327 328 331 334 336 339 336 335 334 347 349 352 357 361 361 362 363 362 363 365 367 365 366 368 365 362 353 352 355 362 363 365 367 364 359 358 360
309 309 309 303 303 306 304 306 318 323 327 326 325 327 328 330 334 336 338 339 342 345 345 346 347 353 360 362 364 363 364 364 364 364 365 366 366 365 359 354 357 361 365 365 364 363 360 358 359

GFSSGP_sfc_thetae_099.txt.gz
Theta_e
351 348 345 338 321 323 317 321 329 326 323 330 334 329 326 330 325 316 343 346 348 350 356 358 363 360 359 362 363 360 360 359 358 359 361 362 363 364 367 366 365 364 366 364 363 363 362 361 361
348 344 340 336 319 314 316 329 326 327 331 332 331 329 327 324 335 337 339 347 350 352 352 354 362 362 360 362 362 361 363 360 360 362 360 361 362 363 364 364 364 364 365 365 364 363 361 360 360
351 351 333 325 319 315 316 326 329 327 336 334 327 330 329 328 337 338 343 347 349 348 352 357 364 364 360 362 361 361 361 362 359 362 360 360 361 362 362 363 363 363 364 364 363 361 360 359 360
346 337 335 322 319 322 324 331 333 329 330 330 329 324 332 339 338 341 345 345 348 350 354 361 363 362 361 361 361 361 361 360 360 362 361 360 361 361 362 362 363 362 362 363 361 360 359 358 360
346 339 324 320 319 326 332 335 335 330 329 329 329 324 327 337 342 343 343 348 347 350 355 358 365 363 362 362 361 361 360 361 360 363 361 361 361 361 361 362 362 362 361 362 362 360 359 360 360
333 334 319 316 319 326 331 335 335 331 329 329 327 326 328 338 339 340 346 345 349 350 354 356 361 363 362 362 360 362 362 361 361 361 360 360 360 361 361 362 362 361 362 362 362 361 359 359 358
331 327 320 319 319 323 330 339 334 333 326 325 331 323 328 333 339 343 345 346 347 351 352 355 356 360 362 363 361 361 360 360 360 360 361 361 360 360 361 362 362 361 362 362 362 361 360 358 358
337 328 321 319 319 320 332 334 337 334 333 335 334 323 323 332 343 345 345 343 346 348 350 351 355 354 353 356 362 361 360 360 360 361 361 363 361 360 361 363 364 362 362 361 360 360 360 359 358
341 323 318 319 321 326 334 330 337 340 335 336 334 331 334 337 343 341 341 343 344 347 348 352 353 352 353 354 357 359 361 361 360 359 359 359 352 351 355 360 362 362 362 360 359 359 359 357 357
332 320 322 329 328 328 332 329 330 332 332 334 329 334 336 338 338 338 339 338 340 344 347 350 351 352 352 354 353 351 354 352 352 352 351 350 350 347 354 358 361 361 361 360 358 358 357 356 351
332 318 327 329 331 333 329 329 332 331 328 329 326 329 333 335 336 337 338 339 340 344 346 348 349 350 351 352 354 351 352 352 351 351 350 351 348 348 350 350 352 352 354 346 349 351 356 354 352
324 329 329 328 334 331 327 330 329 334 333 340 331 332 331 330 335 336 338 340 340 344 348 350 350 351 350 351 351 351 353 351 350 352 353 349 349 346 346 348 349 347 346 341 336 338 349 350 345
323 327 330 332 335 334 333 331 333 330 339 339 333 332 330 329 330 339 339 341 341 342 347 347 347 347 350 347 348 351 348 351 347 352 351 350 346 341 343 346 351 347 345 344 340 337 347 342 341
328 324 326 331 333 333 330 329 328 328 335 334 331 330 330 329 330 337 340 341 343 345 349 350 351 348 350 346 351 348 349 347 349 350 352 351 348 346 348 347 345 345 351 348 348 347 343 344 339
329 324 329 329 331 331 334 328 324 331 333 333 331 330 330 330 334 336 341 341 342 347 348 347 347 351 350 351 352 349 352 352 349 349 352 354 350 347 346 346 346 343 351 349 348 350 347 344 342
310 314 314 323 331 332 330 319 330 334 333 331 330 330 330 331 334 337 338 340 344 347 345 344 350 351 348 351 351 353 350 344 345 349 350 354 354 346 344 350 350 350 347 348 351 349 347 340 338
306 301 310 319 330 328 327 318 322 335 335 328 329 329 328 330 332 337 339 338 343 345 346 344 346 350 347 349 353 352 345 337 341 341 351 353 354 355 352 352 351 348 349 348 342 342 341 343 342
301 303 309 314 326 326 320 320 329 335 330 328 328 327 326 329 330 337 339 339 344 343 342 347 347 348 345 349 353 353 348 345 345 343 350 354 353 354 353 354 350 354 350 349 347 345 346 344 339
308 307 308 318 326 323 321 320 327 332 330 328 327 325 326 327 331 336 339 340 343 345 341 348 346 350 346 347 347 348 347 344 347 351 352 353 354 354 351 352 351 354 348 343 347 344 345 344 344
306 305 313 320 323 321 318 321 328 332 330 329 327 326 326 329 330 333 336 339 341 342 343 348 349 349 346 346 350 350 351 349 350 351 352 354 355 355 351 351 351 353 352 347 347 346 343 343 340
303 300 311 314 319 322 318 315 317 326 332 330 329 330 330 330 330 331 333 335 341 342 345 350 348 348 351 348 348 348 344 342 347 343 349 355 356 355 354 349 352 351 351 347 347 348 346 343 342
296 307 310 316 311 309 322 304 311 321 327 329 328 330 330 332 334 332 331 333 340 342 346 351 350 348 349 354 347 342 338 333 343 348 350 355 357 354 355 353 352 349 347 346 347 352 345 341 339
302 308 316 314 310 309 311 307 308 318 320 326 331 331 332 332 334 331 331 333 342 344 345 350 351 348 347 353 351 345 344 346 348 348 349 350 354 354 356 354 353 350 346 345 348 348 343 350 343
309 306 313 313 307 301 306 307 308 314 320 321 328 333 335 335 334 333 332 334 340 343 345 348 351 349 349 351 351 348 343 343 344 344 341 347 349 352 354 355 352 352 348 349 348 351 349 350 349
306 300 293 296 298 297 304 306 309 320 322 322 323 325 331 336 335 333 331 333 337 339 343 346 349 349 350 351 351 352 345 344 344 343 343 345 347 350 351 353 353 351 351 352 353 350 351 349 349
301 299 294 291 293 297 306 305 309 320 326 326 327 327 332 331 335 333 335 336 336 338 342 345 347 348 348 352 352 354 351 345 345 346 346 348 350 350 353 352 354 355 353 353 353 350 351 351 349
301 299 303 296 297 294 304 309 317 320 320 327 323 328 331 333 335 337 334 337 339 339 339 344 346 347 349 352 352 353 353 349 344 342 348 349 352 354 352 351 352 355 354 353 351 349 350 349 350
305 307 297 296 291 289 301 303 305 316 323 328 329 331 334 336 328 331 337 338 338 345 345 344 348 348 350 351 354 353 354 354 354 352 352 350 349 350 351 350 349 354 353 353 350 349 351 349 349
302 300 301 298 298 292 295 303 318 320 322 323 326 329 331 327 327 330 336 338 338 342 341 345 345 346 351 351 353 354 354 354 352 355 353 354 348 346 343 346 349 352 354 353 350 349 351 348 348
303 302 300 294 293 302 301 300 321 323 322 322 323 325 328 332 334 336 339 340 338 339 338 341 344 347 347 346 350 353 355 355 354 354 355 354 349 348 344 346 346 350 353 353 352 351 351 350 347

GFSSGP_sfc_thetae_102.txt.gz
Theta_e
355 348 346 335 322 322 316 319 329 323 324 329 330 327 326 329 324 313 342 346 350 352 355 358 363 361 360 362 360 359 358 358 361 362 363 364 364 364 364 364 363 364 365 363 362 361 362 360 359
347 345 339 334 318 312 315 327 321 323 327 329 330 329 327 324 334 337 339 347 351 354 354 355 361 362 363 362 361 362 359 359 358 360 361 363 364 363 364 364 363 363 364 363 361 361 360 358 358
349 345 330 324 320 313 315 327 324 327 329 327 326 331 330 329 337 338 344 349 352 351 352 354 362 362 363 361 361 361 360 361 361 359 362 362 362 363 362 363 363 363 364 362 360 361 360 359 358
344 337 332 322 318 322 324 329 326 323 327 330 330 326 335 341 337 343 348 350 348 351 354 361 361 361 363 360 362 361 360 359 362 362 360 362 362 363 363 363 363 362 363 361 360 360 359 360 360
345 337 322 319 320 325 330 334 328 325 327 327 329 325 328 338 344 345 346 347 348 351 355 357 364 361 362 360 361 361 361 361 360 361 360 361 362 362 362 362 362 362 362 360 360 359 360 361 361
333 333 319 315 319 325 331 336 328 325 327 328 327 327 327 340 340 342 346 347 350 352 354 357 362 361 362 360 361 360 361 361 361 361 360 361 361 362 362 362 361 362 363 361 360 359 360 360 362
330 326 319 320 320 323 330 337 331 326 326 326 331 324 329 335 340 344 346 348 351 354 353 354 355 358 362 360 362 361 361 360 361 360 360 360 361 362 363 361 362 362 363 361 360 358 359 359 362
336 326 320 319 319 321 332 333 336 333 327 333 333 323 323 333 342 344 345 347 349 351 353 353 353 353 354 354 361 360 360 360 361 361 360 361 361 361 362 363 365 362 361 359 359 359 359 359 360
341 322 317 319 321 325 333 330 336 337 331 331 333 331 333 338 343 340 341 343 345 349 349 352 350 350 352 353 356 360 360 360 361 361 361 359 350 352 354 361 364 361 360 359 359 360 359 358 357
329 317 319 327 328 329 331 331 331 329 331 333 329 332 338 341 339 337 338 338 341 343 347 350 350 349 351 355 352 350 354 352 349 351 351 349 347 349 354 358 362 360 360 359 357 357 357 355 349
326 320 324 328 332 334 330 329 333 327 324 328 326 329 337 337 336 337 338 340 341 344 348 349 349 350 349 351 350 349 349 350 349 349 347 347 346 350 350 351 352 352 354 347 347 349 352 352 351
320 326 327 330 334 331 328 331 325 327 330 333 332 333 336 336 336 337 337 339 342 343 346 347 347 349 349 351 350 349 350 350 347 348 347 345 344 344 346 346 348 346 344 340 335 336 344 346 348
325 328 327 333 332 330 331 329 332 330 337 339 333 333 334 335 337 337 339 341 342 342 345 347 345 348 348 348 349 349 349 348 348 350 348 346 341 341 343 346 347 344 339 338 338 333 343 341 337
324 327 328 331 332 331 329 330 329 331 337 336 331 329 332 336 336 337 339 340 342 345 345 346 345 347 348 346 347 347 346 348 348 349 347 344 342 340 343 344 345 344 344 344 344 342 339 340 336
316 319 326 328 332 330 330 322 325 332 335 331 329 328 328 333 337 337 339 339 343 345 345 345 347 346 347 345 348 345 349 348 347 350 348 347 344 347 345 343 343 344 347 346 346 347 343 341 337
306 318 313 326 330 331 329 314 325 331 332 330 328 328 328 334 337 340 341 342 345 346 346 347 349 346 345 348 346 349 348 346 346 348 350 351 347 345 345 345 342 342 346 344 347 346 341 338 336
300 297 312 321 331 329 325 315 327 333 332 331 330 327 327 333 336 339 341 343 345 346 345 341 347 345 346 349 349 347 343 337 343 346 348 350 351 348 349 346 346 345 344 345 341 340 339 340 340
295 299 306 315 325 325 320 319 326 330 331 332 330 326 325 331 333 338 341 345 345 344 343 343 346 344 345 348 349 344 343 338 341 343 348 352 351 353 350 349 347 350 344 345 343 341 342 341 338
300 300 315 321 326 321 319 317 322 327 330 331 326 323 325 331 333 336 341 344 344 343 341 342 344 341 343 345 344 341 340 340 342 344 349 351 351 352 350 349 348 351 346 341 345 343 341 338 340
300 300 314 319 324 321 321 320 327 328 329 328 325 322 325 328 332 334 338 340 340 339 343 343 345 342 342 345 346 346 346 345 345 347 349 351 352 351 351 349 347 348 347 342 343 344 338 341 338
298 297 312 313 319 321 319 315 320 325 329 328 327 325 327 327 330 332 336 338 339 341 343 344 345 342 341 347 346 342 341 344 344 343 345 351 352 352 351 349 349 349 347 343 343 345 344 339 341
292 302 314 316 312 308 317 300 312 318 323 326 327 326 325 326 331 333 334 336 338 341 345 346 345 344 346 346 342 340 337 334 342 342 346 351 353 352 352 349 351 349 347 345 344 347 341 339 337
299 305 311 315 309 310 312 305 306 318 320 324 328 328 329 329 330 331 333 337 339 344 346 346 345 344 346 350 344 340 337 340 345 348 346 348 351 350 353 351 348 345 345 343 347 346 342 345 341
306 311 311 309 305 298 306 307 308 313 320 324 328 328 331 332 331 332 334 339 339 343 347 345 344 342 343 349 348 343 342 342 344 344 342 343 347 350 352 351 350 348 345 343 344 349 347 347 347
302 296 290 294 298 296 307 306 307 319 325 327 329 331 333 333 335 330 331 337 338 339 344 348 344 341 344 347 347 346 342 342 344 342 340 342 344 346 349 351 348 348 347 348 348 346 348 345 345
297 297 291 289 291 294 307 302 309 320 323 326 329 329 332 333 337 334 334 336 338 340 342 347 346 342 345 348 346 349 344 342 343 344 342 343 345 346 350 351 352 350 349 350 349 349 348 347 346
296 294 299 294 293 296 302 307 314 322 321 323 322 329 332 332 335 335 337 340 342 342 341 343 347 345 345 349 348 349 347 343 343 343 344 343 347 349 350 350 351 352 351 351 349 346 344 347 345
300 302 298 294 289 288 299 301 303 313 322 326 323 327 330 328 333 336 337 338 340 340 341 343 346 345 344 348 350 350 350 347 344 342 342 347 348 350 350 345 348 350 352 351 348 346 346 346 344
300 298 297 296 293 291 293 298 319 320 324 325 328 329 327 327 329 332 334 340 339 341 340 342 340 347 346 346 349 350 351 352 350 350 349 347 347 348 348 347 346 349 350 349 348 346 346 347 345
302 299 296 293 291 299 297 303 322 321 323 324 325 326 329 330 332 335 333 334 340 337 338 339 340 342 345 346 347 346 347 352 350 350 352 351 346 345 345 344 346 348 349 349 348 345 349 347 345

GFSSGP_sfc_thetae_105.txt.gz
Theta_e
354 347 345 335 321 320 313 317 327 321 320 327 327 324 322 326 323 310 339 344 350 351 355 356 361 361 359 359 358 358 361 363 362 363 364 363 363 363 363 363 363 363 364 361 361 359 359 357 357
347 344 339 333 315 310 314 325 323 322 325 328 329 329 326 323 335 336 338 348 352 352 353 355 362 361 361 359 358 358 357 360 361 362 363 363 363 363 363 363 362 363 364 361 360 359 358 358 357
345 343 328 325 318 311 314 325 322 326 328 327 327 332 330 329 335 337 343 350 352 351 352 354 360 362 361 361 361 358 359 358 359 360 362 362 363 363 362 363 363 363 362 361 360 359 358 357 357
343 337 329 320 317 320 323 326 325 323 327 331 331 326 334 340 337 342 348 351 350 349 351 357 361 362 360 361 361 359 359 360 358 360 361 361 361 363 363 363 363 362 361 361 360 359 358 357 358
345 335 321 317 319 324 327 333 327 324 326 328 329 324 327 339 344 345 347 348 347 349 353 354 362 362 360 360 360 360 358 360 359 360 360 359 361 362 362 362 362 360 359 360 360 360 358 362 362
331 333 317 314 319 325 330 334 328 326 327 328 327 326 327 341 342 344 346 347 351 351 353 355 360 361 360 360 360 360 360 359 360 359 359 360 361 362 362 362 361 361 360 359 359 358 361 363 363
329 325 319 319 319 323 327 334 327 325 325 325 330 323 330 335 341 344 345 348 350 353 352 353 353 358 360 360 359 359 359 359 359 359 359 361 361 362 361 362 362 362 360 359 359 358 359 362 364
334 326 318 320 319 320 328 332 335 330 326 333 332 323 324 333 342 344 345 347 348 350 350 352 351 353 351 353 359 359 360 360 359 359 359 360 361 361 361 361 364 362 360 359 358 358 358 360 362
337 320 315 319 321 324 329 326 334 337 330 331 332 331 334 340 343 341 342 343 346 349 348 349 349 350 351 351 355 358 359 360 360 359 358 356 350 351 353 361 362 361 359 358 358 358 358 358 359
326 317 317 325 326 328 329 329 330 329 328 327 329 333 338 340 339 337 337 338 342 344 346 348 347 348 350 355 351 350 352 351 350 350 349 347 347 349 354 359 361 360 359 357 358 357 356 354 349
326 319 324 326 330 332 329 328 331 327 326 326 325 329 336 336 336 335 336 339 341 344 348 348 346 349 349 349 348 348 347 347 347 347 346 346 346 349 350 349 349 349 353 344 346 346 349 350 348
318 325 327 329 333 332 328 331 326 329 331 334 331 334 335 334 334 335 336 338 339 342 346 347 347 348 347 349 347 347 347 348 345 346 345 344 343 344 345 346 346 345 342 339 336 336 338 345 347
321 327 328 334 332 331 331 328 326 328 336 335 336 336 334 334 335 337 339 340 341 342 345 345 347 347 347 348 347 346 347 348 345 345 346 344 342 342 343 345 345 343 338 337 337 334 340 336 338
326 327 328 331 331 329 328 327 331 330 338 333 334 333 334 335 335 336 337 339 340 342 343 345 345 347 347 345 346 346 346 346 346 346 346 343 340 340 342 342 343 342 340 343 343 341 339 336 336
315 321 326 328 330 327 329 322 324 332 335 329 330 332 334 336 336 335 339 339 341 343 344 343 343 347 346 345 346 345 345 347 345 347 346 342 340 340 343 342 342 343 344 344 344 344 341 335 334
305 316 316 325 330 328 327 314 326 332 332 329 327 330 333 335 335 337 340 341 343 344 343 343 346 345 344 343 346 346 346 346 345 348 349 346 345 345 343 342 340 341 345 343 344 342 338 335 333
298 298 312 319 330 327 323 316 326 332 331 329 326 325 330 333 335 338 340 342 344 344 342 344 344 344 344 347 346 346 342 342 343 347 348 349 345 346 345 343 342 343 341 343 340 338 337 338 337
294 296 307 317 325 327 320 318 325 329 330 330 329 324 329 331 334 338 340 343 344 344 343 344 343 342 343 347 344 343 335 338 340 345 347 349 348 350 347 345 344 347 342 343 341 340 341 340 337
299 299 315 320 323 319 317 319 322 327 329 330 331 321 328 330 336 338 340 344 344 343 339 342 342 340 344 344 341 339 335 338 339 341 347 349 348 351 348 347 345 348 343 341 343 341 338 336 337
299 307 313 319 324 321 316 318 323 326 327 329 330 321 327 329 333 337 340 342 341 340 339 341 342 339 342 343 343 343 342 342 342 343 347 348 349 348 349 346 345 346 343 340 343 342 336 339 337
294 297 312 313 318 322 319 315 319 324 328 330 333 323 329 329 331 335 338 340 340 338 340 341 342 339 340 345 344 342 343 343 342 342 344 348 350 349 349 348 346 347 344 342 342 344 341 336 339
290 300 314 315 310 304 317 301 312 321 324 328 328 323 327 329 331 334 337 338 337 339 342 342 342 339 341 345 342 341 339 338 341 341 343 347 351 350 349 347 347 346 345 343 342 345 340 337 336
298 303 311 315 309 308 312 303 304 320 319 323 327 324 326 330 331 332 336 337 337 342 342 344 342 340 343 343 342 339 336 337 341 343 342 345 348 349 351 349 348 345 344 341 344 345 341 343 340
306 311 310 307 304 297 308 305 305 312 318 322 327 327 326 330 331 333 337 338 337 344 342 344 342 340 345 346 342 339 337 339 343 343 342 344 346 348 350 349 347 345 343 342 342 345 343 345 345
299 300 293 294 295 295 303 304 304 317 322 325 326 327 328 329 331 332 334 336 337 342 342 342 341 338 341 345 346 342 340 340 342 342 342 342 343 344 347 348 346 346 345 344 343 345 345 343 343
295 297 290 288 291 294 304 298 305 319 324 327 331 331 333 333 332 332 334 336 337 341 343 342 340 337 340 343 345 345 342 341 342 343 341 341 344 345 348 349 348 347 347 347 347 345 346 346 344
295 293 297 292 291 296 300 304 313 320 319 325 327 330 332 332 334 334 335 336 340 341 340 345 343 339 341 343 344 345 343 341 340 343 342 340 343 346 347 350 350 349 347 348 347 345 344 345 343
297 300 294 291 287 287 297 298 302 314 318 319 324 325 328 332 334 335 338 338 339 341 341 341 344 341 342 344 345 346 347 344 342 342 341 343 343 346 348 348 349 347 348 348 346 344 343 344 344
299 297 294 293 291 291 292 298 318 318 324 324 325 326 328 331 332 334 337 338 338 340 340 339 337 343 342 344 345 346 347 347 345 343 342 342 345 345 346 346 343 346 348 348 347 344 344 343 342
298 297 295 291 291 294 296 301 322 323 325 325 325 327 328 327 328 331 334 338 338 337 338 338 339 340 341 343 343 343 344 344 345 345 346 350 345 346 347 346 344 344 347 348 346 345 346 344 344

GFSSGP_sfc_thetae_108.txt.gz
Theta_e
345 346 344 335 319 319 312 316 326 316 315 323 325 321 321 326 322 309 337 343 348 350 353 355 359 360 359 359 360 361 361 361 362 362 362 362 362 361 361 361 362 363 362 360 357 357 358 359 357
347 344 338 333 314 310 313 324 321 321 323 325 328 328 326 323 334 335 336 347 350 352 352 354 362 359 358 357 357 359 361 361 362 362 363 363 362 361 362 361 362 362 361 361 360 359 358 359 360
344 343 328 324 316 310 314 323 322 325 326 325 327 333 330 327 334 336 343 350 351 351 353 354 360 360 358 359 357 356 357 359 360 361 361 362 362 362 362 362 362 362 359 361 359 359 358 358 358
339 337 328 318 313 320 321 325 324 324 328 332 330 325 333 337 336 342 349 351 350 349 351 358 361 360 360 359 357 358 359 356 358 359 360 360 362 361 362 361 361 361 360 360 358 358 358 358 357
343 333 319 317 318 322 326 331 330 324 326 328 329 323 326 338 343 347 348 349 348 348 350 353 360 360 359 359 358 358 359 357 358 359 360 361 361 361 360 362 361 361 360 359 359 358 358 359 360
329 332 316 312 318 324 328 331 328 327 328 327 326 325 329 340 342 345 347 347 350 350 351 353 360 359 359 359 359 359 359 358 359 359 359 360 361 360 361 362 359 360 360 359 358 359 363 360 359
329 324 317 318 319 322 325 332 326 326 326 325 330 323 332 336 342 344 345 349 350 352 352 352 353 357 359 359 359 359 358 358 358 358 359 360 360 360 360 360 361 359 359 359 357 357 360 361 357
334 326 318 320 318 320 328 332 334 328 325 333 332 322 322 335 342 344 346 346 348 350 351 350 352 352 352 353 359 359 358 358 358 358 360 359 360 360 360 362 364 360 359 357 357 357 359 360 358
336 318 314 319 321 321 329 326 334 337 328 331 332 330 334 340 342 341 343 345 346 349 348 349 348 350 351 352 355 356 359 359 359 357 358 355 350 353 355 361 362 360 359 357 357 357 358 356 358
325 316 318 324 327 324 327 328 330 327 326 326 328 334 338 340 339 337 338 338 342 344 347 348 348 349 350 356 351 350 353 352 352 351 350 350 351 354 356 360 360 359 359 359 358 357 357 353 353
325 318 325 327 330 329 328 328 331 326 322 325 326 331 335 336 336 335 337 340 341 344 348 347 347 350 350 350 349 349 349 348 348 349 348 349 349 350 351 351 352 351 351 344 349 348 352 352 351
319 326 326 328 334 332 327 329 327 329 329 331 333 335 335 334 333 333 335 339 340 343 347 347 347 348 348 349 348 348 348 348 346 347 348 347 347 348 348 348 348 346 345 342 342 341 341 346 351
319 326 329 333 334 332 331 327 326 328 334 332 335 335 333 333 334 334 336 338 340 341 345 346 347 348 347 348 347 348 348 348 347 347 348 347 346 346 346 347 348 347 342 344 345 343 343 341 343
321 325 329 331 331 331 327 326 327 329 336 330 333 332 333 333 334 335 337 337 339 342 343 346 347 348 347 347 346 346 348 349 348 348 348 347 346 345 346 347 347 347 347 349 348 348 346 341 343
319 320 326 328 328 328 329 321 324 333 333 328 331 332 333 333 336 335 338 338 340 342 344 344 346 348 346 346 347 347 349 349 347 349 348 345 344 345 347 346 347 347 348 350 350 348 346 342 342
309 317 314 325 328 329 325 314 327 333 331 328 330 331 332 333 335 337 339 340 341 343 343 344 348 347 346 345 347 347 347 348 348 349 348 346 344 344 346 347 346 347 349 349 347 345 342 341 340
297 302 312 319 328 326 323 315 325 332 331 326 328 330 331 333 334 336 340 341 343 344 343 342 344 345 345 345 346 346 347 347 346 349 351 348 349 349 347 346 347 348 347 348 345 345 344 344 343
292 294 310 316 324 326 321 319 325 329 330 328 327 329 331 331 332 336 340 343 343 343 343 343 344 344 345 346 344 341 338 342 345 349 350 350 348 349 350 348 349 351 348 348 347 348 347 346 342
298 311 314 320 322 320 317 316 322 327 328 328 325 324 328 330 334 338 340 343 343 342 342 343 341 342 345 344 341 341 337 341 342 346 350 351 351 352 350 350 349 352 348 348 349 347 344 342 342
304 312 313 319 323 317 316 317 323 326 327 329 329 320 326 329 333 336 339 342 342 341 341 342 341 341 345 346 345 344 342 343 344 346 350 352 352 352 349 349 349 351 348 348 349 348 345 344 343
294 307 311 312 319 319 317 314 319 325 328 330 332 324 328 330 331 334 337 340 340 340 339 342 341 341 344 346 345 344 345 345 344 345 348 350 353 352 353 350 350 351 349 348 349 349 347 343 344
290 301 317 315 308 303 315 301 314 320 322 326 328 323 326 329 333 334 336 338 339 340 341 343 342 340 342 346 345 344 343 340 343 344 347 350 353 353 353 352 352 351 350 350 349 348 347 346 345
297 302 316 314 308 305 311 302 306 320 318 322 326 325 327 330 332 334 336 339 340 341 341 341 342 339 342 345 345 344 342 342 344 346 346 349 352 353 353 352 352 350 350 350 351 352 351 347 348
309 311 309 306 304 297 305 304 304 313 317 321 325 328 327 329 332 335 338 340 340 341 341 342 341 340 343 344 343 342 340 340 343 344 343 347 351 352 352 353 351 350 349 349 350 351 349 351 352
300 299 294 293 294 294 300 303 303 315 322 324 324 326 326 330 331 333 336 337 337 340 341 342 340 339 343 344 342 342 341 341 343 345 344 345 347 350 351 353 351 350 350 349 349 352 352 351 350
296 298 294 288 290 294 302 299 304 319 322 326 327 329 325 328 331 332 336 336 336 341 342 342 340 339 342 345 346 345 343 342 344 346 346 345 348 349 352 353 352 352 350 351 349 349 351 352 351
294 294 298 293 289 294 298 304 312 320 322 325 327 329 327 328 331 333 336 338 338 341 342 341 339 339 340 343 345 346 343 344 344 346 347 344 347 349 351 353 353 353 352 352 352 351 351 352 351
296 299 292 290 286 287 296 298 302 314 317 324 325 328 329 330 331 333 335 338 341 341 343 345 343 341 342 343 345 347 344 345 344 345 345 345 346 348 350 351 353 353 352 352 352 351 349 350 350
297 294 293 293 291 291 291 297 317 317 318 322 326 329 330 331 332 332 334 337 340 341 340 340 341 343 344 345 346 348 349 346 344 345 345 345 345 348 347 350 350 350 349 351 351 350 350 348 349
296 295 294 291 292 293 295 298 323 323 326 324 325 328 329 331 334 336 336 337 339 339 339 337 339 342 341 341 345 346 347 348 349 349 348 348 348 348 347 349 349 347 350 352 351 350 351 349 348

GFSSGP_sfc_thetae_111.txt.gz
Theta_e
349 348 348 341 324 323 315 319 327 316 318 324 325 323 323 329 324 316 342 347 348 351 355 358 361 361 361 362 361 361 362 363 362 362 362 362 362 362 361 362 361 360 362 359 359 360 359 360 359
350 344 343 335 317 313 315 324 320 318 323 327 329 329 329 327 335 335 340 348 350 352 355 357 362 360 358 358 361 361 361 362 361 362 362 362 360 361 361 362 362 362 364 361 358 359 360 360 360
345 345 335 329 317 311 315 324 325 325 326 328 330 335 332 328 334 338 346 349 352 353 356 360 359 359 358 357 357 359 360 361 360 361 362 361 361 362 362 362 361 361 363 360 360 359 359 359 360
342 342 335 322 314 320 322 324 327 323 327 333 333 327 333 338 337 344 349 350 352 355 356 359 361 359 361 358 358 358 357 359 359 360 361 361 362 361 362 363 362 360 360 359 358 359 359 358 358
348 338 321 318 317 323 327 330 327 325 327 330 331 324 327 340 347 348 349 350 350 352 355 360 362 360 361 360 358 359 358 357 360 359 361 361 360 361 361 362 362 361 360 360 359 360 361 361 360
333 332 316 312 317 324 329 332 329 327 330 329 327 326 330 344 346 347 349 349 350 350 351 359 361 360 360 360 358 359 358 358 359 359 360 361 359 361 363 361 361 360 360 359 361 359 360 360 358
330 324 316 317 318 321 326 333 327 328 328 326 330 324 334 339 346 348 349 351 351 349 354 360 357 361 360 360 359 358 359 358 359 359 359 361 358 360 361 363 361 360 360 358 359 359 359 357 358
335 328 319 321 318 320 328 332 332 329 327 335 333 324 326 337 346 348 349 349 348 351 355 357 360 358 359 359 359 358 358 358 359 360 359 360 359 359 361 363 363 360 359 358 358 358 359 357 359
336 322 317 319 320 323 329 327 333 335 329 331 333 332 337 342 345 344 343 345 349 351 352 356 358 358 359 359 358 358 358 359 359 360 361 360 362 361 360 362 362 360 358 357 357 358 359 359 359
330 323 318 325 327 325 327 328 328 327 329 329 331 337 340 342 342 338 337 341 345 349 352 355 355 356 357 356 360 361 360 360 360 361 362 363 363 360 360 362 361 360 358 358 358 358 357 354 357
327 321 326 328 329 330 327 327 332 327 324 329 328 333 337 339 339 335 338 342 345 349 350 353 356 357 356 358 358 358 359 357 358 360 359 359 360 364 362 359 358 357 353 353 353 354 356 354 358
323 327 328 330 332 328 327 329 328 330 330 333 334 336 337 336 334 334 337 341 345 348 350 354 357 358 359 358 354 355 354 354 352 356 358 357 356 358 358 354 354 354 352 353 354 354 354 355 358
323 326 330 333 331 331 331 327 327 327 333 335 336 336 335 335 334 336 339 343 347 347 350 353 356 358 359 358 358 356 354 353 354 355 356 355 354 356 355 356 354 351 356 357 357 355 353 352 354
322 328 331 332 329 330 326 326 328 329 334 333 334 333 334 334 335 336 339 341 344 347 349 352 353 357 357 356 358 357 358 357 357 356 355 357 355 355 355 355 353 355 359 359 359 358 354 353 354
326 325 327 330 330 328 328 322 323 331 331 330 331 332 334 336 338 336 338 340 344 347 351 351 353 355 356 355 356 357 358 357 357 357 358 356 356 356 358 357 356 357 360 361 361 358 353 352 351
320 323 316 327 330 329 327 317 327 333 330 329 330 332 334 337 339 339 341 342 345 347 351 353 352 355 356 356 356 357 358 357 358 359 357 355 356 355 359 358 355 359 360 360 356 354 350 349 350
310 309 315 321 329 327 324 319 328 333 328 330 331 333 334 336 339 341 343 344 346 349 352 352 354 354 355 357 357 358 359 359 360 360 359 358 356 356 360 356 356 360 359 359 355 354 355 355 354
302 305 317 318 325 326 322 319 324 330 328 330 332 333 334 335 338 342 344 345 347 350 353 353 353 356 357 356 357 356 355 357 359 359 359 358 359 358 361 357 359 360 358 359 358 358 357 352 352
306 312 317 321 325 323 319 317 323 328 330 330 331 332 334 336 340 343 344 346 348 350 351 353 352 355 354 353 351 350 349 353 354 359 360 360 358 359 362 359 358 362 357 359 360 356 356 352 355
321 318 317 321 323 321 319 319 324 327 328 330 331 332 334 336 338 341 343 346 347 349 351 353 353 354 356 355 355 354 351 353 354 357 360 359 359 361 361 362 359 361 356 359 360 359 353 353 355
308 312 317 317 320 322 321 317 321 327 329 331 332 332 334 336 336 340 342 345 347 349 351 352 354 355 356 357 356 355 355 354 349 351 356 358 360 360 361 361 359 363 362 355 359 358 357 349 354
302 309 320 317 314 309 317 304 314 322 324 327 329 331 330 335 338 340 342 344 346 348 351 353 355 355 356 358 356 355 357 353 353 351 356 357 361 360 359 361 361 363 360 360 359 357 358 359 351
304 309 320 317 314 313 312 308 312 321 320 324 329 331 331 334 337 339 341 344 346 349 349 351 354 354 356 358 359 361 358 361 353 353 357 359 361 361 360 361 361 361 359 361 362 361 362 358 355
313 318 318 316 314 301 309 309 310 316 318 324 328 331 333 333 336 339 343 345 345 349 349 350 353 353 355 357 357 357 357 355 352 353 357 362 363 364 361 360 362 362 361 360 360 363 360 361 361
311 309 302 302 302 300 310 310 311 321 324 326 327 330 332 335 335 338 341 343 345 345 348 349 352 353 354 354 355 356 356 356 356 359 353 355 356 360 360 362 361 358 361 360 361 362 361 361 359
312 308 301 294 296 301 311 306 312 324 327 330 331 331 332 334 335 338 341 343 342 345 344 349 350 352 353 353 355 356 357 354 354 357 355 353 356 366 361 364 361 360 361 360 360 357 359 361 360
302 300 309 304 304 304 309 312 318 325 324 328 329 330 331 332 335 337 341 342 344 346 346 349 350 351 352 353 357 356 357 355 354 355 358 356 358 359 360 360 362 362 362 362 362 356 359 361 361
305 308 299 302 298 297 305 307 312 318 321 325 327 328 331 334 335 338 341 341 343 346 345 351 351 352 352 353 356 357 358 357 357 356 356 355 356 357 360 359 360 362 362 362 362 360 360 360 359
303 302 303 304 303 300 300 307 320 321 324 326 329 330 333 333 335 339 339 340 342 345 345 347 351 352 351 352 354 355 356 357 357 356 357 356 357 358 358 359 359 359 360 361 361 361 360 358 359
307 305 307 300 301 307 307 309 325 327 328 329 329 332 333 334 336 338 338 342 344 342 342 346 350 351 353 354 355 355 358 358 357 357 358 357 355 357 360 357 358 359 359 361 360 358 358 358 357

GFSSGP_sfc_thetae_114.txt.gz
Theta_e
349 348 352 346 330 328 319 321 324 320 320 326 328 325 329 333 327 321 340 344 351 352 356 358 363 362 363 361 362 363 363 363 363 363 362 362 362 362 363 362 362 365 362 362 360 360 360 360 360
347 346 346 344 325 316 319 326 319 323 326 328 330 331 330 329 335 335 339 346 352 353 355 357 363 360 361 363 362 362 363 363 363 363 361 362 362 362 363 361 364 363 363 361 362 361 361 360 360
347 349 341 333 320 316 319 327 323 327 328 331 331 337 335 330 334 336 344 348 352 354 357 360 359 358 358 360 362 361 362 362 363 363 361 361 362 363 363 362 362 362 362 361 361 360 361 361 360
346 347 341 324 317 322 325 330 328 326 330 335 335 331 336 340 337 343 347 349 351 353 357 359 359 360 358 357 357 357 360 361 362 362 361 362 362 362 363 362 361 360 360 359 360 360 360 360 359
353 338 322 320 321 326 330 332 330 326 330 333 334 330 330 339 345 346 348 349 350 353 355 359 362 361 360 359 360 359 357 361 361 363 362 361 361 362 363 362 362 361 362 361 361 362 362 361 358
333 337 318 313 319 327 332 334 331 330 332 333 331 330 333 344 343 346 349 349 351 351 355 358 360 361 361 360 360 359 359 360 361 362 360 360 363 363 363 363 362 361 362 361 361 360 359 358 358
333 326 321 317 319 324 330 335 329 332 332 331 334 327 336 340 346 348 349 350 350 350 354 356 356 361 360 360 360 360 359 361 361 361 359 360 361 362 362 362 362 361 360 360 359 359 358 360 358
342 335 322 321 318 321 330 332 333 333 331 337 336 328 330 340 347 348 349 349 348 350 355 356 357 359 358 359 359 360 359 360 360 359 359 359 360 362 361 364 364 361 360 359 359 359 358 360 358
341 328 321 320 321 324 332 328 334 337 334 333 335 334 341 345 346 345 346 346 346 347 350 354 352 355 357 357 358 359 360 360 361 360 359 359 359 360 361 363 361 360 358 357 358 359 359 360 359
334 328 322 329 329 326 329 329 330 331 332 332 333 339 342 343 342 340 339 340 342 346 349 353 351 354 355 353 361 361 358 357 361 360 361 359 361 363 359 361 360 359 358 359 358 358 356 359 352
330 325 329 331 332 331 328 330 332 331 329 332 332 335 339 339 339 336 338 342 344 349 349 351 353 355 355 359 356 356 355 355 358 362 360 360 359 359 357 355 355 354 355 356 358 357 356 355 354
326 330 331 330 332 328 326 329 330 331 332 337 337 339 339 337 335 334 339 343 346 348 349 352 354 357 358 354 352 351 350 351 351 356 360 359 355 355 354 351 354 357 356 360 358 354 357 357 357
328 329 333 332 330 331 330 330 328 330 335 337 337 337 336 335 334 337 341 344 346 347 349 352 354 357 358 359 353 351 350 350 352 355 357 355 352 354 354 356 354 357 361 355 356 353 356 353 354
326 329 332 330 329 330 327 327 329 332 336 335 335 333 335 334 335 337 340 342 345 347 348 352 353 356 357 360 360 355 352 354 353 353 356 359 355 356 356 355 354 357 360 356 356 356 353 352 352
327 324 330 329 329 326 328 320 324 332 334 331 331 334 335 336 337 337 340 342 346 348 350 352 353 354 357 359 358 353 352 352 352 353 359 360 360 361 359 356 357 356 360 364 357 356 354 348 348
322 323 319 327 327 328 325 317 327 332 329 328 331 333 335 336 338 339 341 343 347 349 351 353 349 353 357 358 357 353 354 353 353 353 355 358 361 361 362 356 356 360 363 357 354 353 351 350 349
320 313 316 322 329 326 323 319 327 331 327 328 330 332 336 338 340 341 342 344 347 351 354 353 353 353 356 360 362 358 358 359 354 355 355 360 360 362 359 356 357 363 361 356 357 355 357 351 351
311 312 320 318 324 326 325 321 326 330 330 329 331 334 336 338 340 343 343 346 348 352 355 355 355 357 359 358 363 358 356 356 355 354 355 361 360 361 360 357 360 360 357 355 356 360 356 354 353
313 312 319 323 326 324 322 320 325 328 328 328 329 333 335 337 343 345 345 346 349 351 354 355 356 359 358 357 351 351 350 353 355 357 361 363 360 362 365 356 357 358 357 360 363 359 356 350 355
315 313 320 325 329 324 323 322 328 328 326 331 331 332 335 336 338 344 345 347 349 352 354 355 357 360 362 359 360 356 354 354 355 358 361 361 361 363 360 363 357 361 356 363 362 362 352 350 356
319 316 319 318 324 326 323 320 324 326 329 332 333 336 335 335 338 342 345 346 348 351 354 356 358 360 362 360 364 357 362 357 354 355 356 359 362 361 361 362 360 359 359 355 362 360 361 347 354
310 315 320 322 319 312 325 305 321 324 326 330 331 333 335 336 338 342 344 346 347 350 354 357 359 360 359 364 359 361 357 354 352 352 355 357 361 360 359 362 360 360 360 361 360 359 360 362 348
310 316 319 320 318 317 316 307 314 325 321 324 329 332 333 335 336 339 343 346 348 351 352 355 359 361 361 361 362 355 354 352 354 354 360 362 364 362 359 362 360 360 354 364 363 365 363 358 353
312 315 316 316 316 305 313 313 313 320 323 328 330 331 333 335 335 339 342 345 348 351 352 353 357 360 361 361 360 359 357 354 357 359 358 355 356 356 361 362 364 365 363 362 361 365 363 362 361
314 313 304 303 304 304 312 310 315 323 326 329 330 331 335 335 334 337 340 343 348 349 351 352 356 358 360 359 359 359 357 358 356 357 352 353 357 355 362 363 365 360 363 364 366 364 365 363 360
310 311 304 298 302 305 314 307 314 324 329 332 334 333 337 337 336 337 342 345 345 349 352 352 356 357 358 358 359 362 362 355 354 357 362 354 357 354 361 360 360 363 364 363 365 360 358 362 360
309 307 314 307 310 306 310 315 321 326 327 330 332 333 332 336 336 338 342 345 349 350 352 353 356 358 358 357 360 360 361 360 363 359 359 357 361 356 359 359 360 361 361 364 365 357 360 363 362
309 315 307 308 301 300 307 309 314 321 325 329 330 332 331 335 336 340 342 346 349 345 353 353 357 358 358 357 359 356 359 360 362 364 362 362 363 363 362 361 359 361 361 363 364 360 362 362 359
306 305 308 309 307 303 302 308 326 326 328 329 332 331 333 335 336 340 344 348 351 351 351 353 355 356 355 355 357 356 357 358 361 360 362 363 365 365 363 364 362 361 360 362 362 362 360 361 360
309 307 308 303 304 307 308 312 328 330 331 331 334 334 336 339 338 341 346 347 349 350 349 348 352 354 356 357 358 359 358 359 357 358 360 362 362 364 364 364 364 360 360 362 360 358 357 359 358

GFSSGP_sfc_thetae_117.txt.gz
Theta_e
348 350 352 345 328 329 318 319 324 321 322 327 328 329 330 334 326 320 341 348 351 352 356 359 364 362 362 362 363 364 363 363 362 361 363 362 363 362 362 363 362 362 361 361 361 361 361 361 361
350 347 349 344 324 317 315 323 320 324 326 331 332 332 330 327 333 334 340 349 350 350 353 357 364 363 363 362 363 364 363 364 362 360 361 363 363 362 363 360 361 363 362 362 361 361 360 361 361
350 350 344 332 321 316 316 323 325 327 329 332 332 338 333 328 334 337 346 349 350 353 357 360 359 361 362 363 363 363 363 363 363 361 362 363 364 363 363 362 362 362 361 361 361 361 361 361 361
346 345 340 325 319 324 323 324 328 326 334 337 336 331 334 339 337 341 346 349 349 352 353 357 358 357 357 358 359 361 361 363 363 361 362 364 363 362 361 361 360 360 360 361 361 361 361 360 359
348 343 328 322 321 327 329 328 329 329 333 334 335 329 329 339 342 344 346 348 349 349 353 355 362 359 359 362 359 359 361 362 362 362 362 363 363 362 362 362 362 362 361 361 362 361 359 359 358
333 340 323 319 321 328 332 332 328 331 335 335 333 330 333 341 340 343 346 347 348 350 353 356 360 362 360 361 361 359 360 362 362 361 362 363 364 363 362 362 362 362 361 360 360 359 359 359 358
335 331 321 321 323 325 330 336 330 331 332 332 335 329 334 337 342 345 346 347 348 351 352 353 357 360 360 361 360 360 360 362 362 360 361 363 362 363 363 363 362 362 361 360 360 360 360 359 356
342 335 322 323 320 323 332 333 336 332 330 338 337 328 329 338 344 346 346 346 347 350 351 354 358 357 357 358 361 361 361 360 361 360 360 363 363 362 362 361 363 361 360 360 360 359 360 359 356
342 329 322 322 322 325 333 330 337 341 334 335 337 336 339 343 345 345 344 343 345 346 350 350 353 357 357 356 359 360 361 361 361 360 360 359 358 358 360 364 361 359 358 359 359 359 360 360 359
335 329 325 330 332 329 332 331 333 334 333 333 335 339 341 342 342 341 341 339 340 343 347 349 348 350 354 351 359 360 356 356 358 361 361 359 363 365 355 360 360 358 358 359 359 359 362 362 355
331 327 329 332 334 333 330 329 336 333 330 333 334 336 338 339 340 339 339 339 342 344 346 348 352 356 353 355 355 354 354 355 356 361 359 363 357 357 351 355 356 356 360 356 357 357 354 352 348
325 330 335 333 333 332 329 333 331 332 334 338 339 338 337 336 335 336 338 341 343 344 347 347 353 358 357 355 353 350 348 350 352 355 361 360 356 352 353 352 353 355 354 357 356 352 354 351 352
326 330 335 335 329 329 331 330 330 333 336 339 339 337 335 335 334 338 340 343 345 344 347 349 353 362 357 356 349 348 347 349 351 355 362 357 352 353 353 357 355 354 355 353 353 351 352 351 352
331 331 333 331 331 331 329 330 332 332 336 336 336 334 334 334 335 339 340 342 343 345 347 349 352 357 358 357 357 352 353 350 351 353 355 357 354 355 355 354 353 358 357 358 354 356 350 351 351
329 326 330 329 328 326 329 321 326 334 334 333 332 332 333 334 336 338 341 342 344 345 349 349 351 354 359 359 353 351 349 350 350 353 358 359 358 364 364 361 357 357 355 361 356 354 351 347 347
326 326 319 325 326 327 325 313 327 333 332 329 329 331 332 334 336 339 342 343 346 347 348 350 348 353 357 360 352 349 349 349 350 353 355 360 362 361 364 359 358 354 362 350 352 349 347 347 347
322 313 320 319 328 325 324 317 329 332 329 327 329 331 333 334 336 339 341 343 347 349 351 352 350 351 356 357 356 354 359 351 351 353 354 360 359 361 365 356 355 363 355 351 351 349 352 350 347
313 314 320 317 323 324 320 320 327 331 327 327 329 331 333 334 336 339 341 344 347 351 353 357 352 356 361 358 359 356 351 358 350 352 356 360 358 359 364 357 357 363 352 354 353 365 353 350 350
317 315 318 323 327 321 319 320 323 327 326 326 328 330 332 334 338 340 344 345 346 349 352 355 356 359 365 354 351 352 353 357 355 353 359 360 359 360 361 360 356 359 364 359 359 357 355 347 353
316 314 319 323 325 319 320 322 326 321 323 332 327 328 331 333 337 339 342 343 345 347 352 355 358 359 358 355 357 363 357 361 357 358 358 359 358 361 360 360 358 359 356 359 360 364 352 347 353
315 314 318 319 322 322 321 319 322 323 321 325 331 332 332 334 337 337 341 343 345 347 349 353 358 360 361 364 360 358 359 359 355 356 356 362 359 358 361 360 366 359 365 354 361 358 361 345 351
311 322 321 320 320 312 323 310 320 324 320 324 327 329 331 336 334 341 340 341 346 348 351 353 358 360 361 363 362 360 355 349 354 355 357 358 364 362 359 360 360 363 359 366 358 357 362 363 346
312 317 317 317 318 313 317 311 320 325 316 319 324 330 332 334 337 338 341 343 343 348 350 352 356 360 363 365 362 355 357 353 352 355 362 367 362 366 357 361 360 360 356 363 364 362 366 357 356
317 314 318 318 316 308 312 312 318 315 317 322 330 332 334 336 334 338 342 343 344 347 349 351 355 359 361 361 359 359 358 357 355 357 354 352 356 356 361 360 362 363 363 362 361 363 363 367 366
315 311 305 304 304 304 316 312 315 326 328 329 327 331 333 333 334 336 338 339 347 345 347 350 355 358 359 358 359 359 359 360 357 359 355 354 350 352 364 363 363 360 364 364 365 365 365 362 362
313 312 307 301 303 307 315 308 316 329 333 334 333 335 332 333 336 336 339 344 344 347 346 349 355 357 358 357 359 361 361 355 354 358 362 352 351 353 364 362 362 364 362 363 365 361 358 367 360
312 309 318 309 312 304 311 319 325 328 329 332 333 333 332 334 333 335 339 343 343 347 349 349 356 358 357 357 363 360 360 359 356 361 361 357 362 356 360 360 360 362 362 363 366 359 360 363 363
311 316 308 311 303 301 308 308 314 322 325 329 330 334 335 338 338 335 339 340 348 348 349 351 356 357 357 357 359 358 359 359 359 360 359 363 366 363 364 360 359 361 362 362 366 364 363 361 359
307 307 311 311 310 302 303 306 327 326 328 328 331 335 336 336 336 340 339 347 345 351 353 353 355 357 356 355 357 357 356 357 359 357 358 361 364 366 364 363 362 360 361 362 363 365 364 361 361
311 308 311 306 307 309 305 309 329 331 331 332 332 336 338 339 338 339 342 343 349 352 352 349 357 356 356 355 359 357 357 357 355 355 359 361 362 371 365 363 363 362 361 364 362 358 356 357 357

GFSSGP_sfc_thetae_120.txt.gz
Theta_e
347 346 346 342 326 325 316 316 322 318 319 329 332 331 327 329 324 318 342 347 348 350 355 357 363 363 363 364 365 363 364 363 363 365 365 364 362 364 363 363 361 365 363 361 362 361 361 362 360
342 346 348 339 320 313 315 321 319 322 326 332 334 330 326 323 332 336 340 347 349 350 353 356 364 364 364 363 366 365 363 362 364 365 365 363 364 365 362 362 362 361 362 362 360 361 362 361 358
342 347 336 327 320 314 314 320 322 325 329 333 332 331 328 327 335 339 345 346 348 352 355 360 365 364 363 365 364 364 363 363 364 365 363 363 364 364 364 362 362 362 363 363 362 361 361 361 359
343 344 338 321 317 322 322 323 324 328 333 334 329 324 331 337 337 344 348 352 352 350 351 359 362 360 361 362 363 363 365 364 365 364 364 364 363 361 361 360 361 362 362 363 362 359 360 358 356
345 341 326 319 320 326 329 326 329 328 331 330 329 325 328 336 342 346 346 348 348 347 349 357 362 361 360 359 362 364 364 365 365 363 363 365 364 362 362 363 362 362 362 361 360 359 359 357 355
335 338 322 318 320 325 328 328 331 331 332 330 327 327 329 338 339 345 347 347 348 346 352 357 361 361 362 361 360 363 362 364 365 365 363 364 364 363 364 364 362 361 361 361 359 358 358 355 353
334 331 320 321 322 325 332 335 329 330 329 327 333 325 330 335 342 346 348 349 351 352 352 356 357 359 362 361 361 362 364 363 366 366 366 364 364 365 363 365 363 362 361 360 361 359 358 354 351
337 334 321 321 320 322 333 334 335 332 328 336 336 324 325 335 344 345 346 350 347 349 349 355 358 357 356 358 362 362 362 363 364 365 366 366 367 362 362 361 365 361 361 360 360 360 359 356 352
341 327 321 320 323 325 333 331 336 338 333 333 336 332 335 339 343 342 343 345 348 346 349 351 353 356 357 357 358 362 361 363 363 362 363 364 357 358 360 362 364 360 360 360 360 360 360 357 357
332 327 325 330 331 328 332 332 334 333 332 332 332 335 337 339 340 338 337 339 341 343 347 346 349 352 353 351 360 360 357 359 358 362 362 362 363 361 356 360 361 360 360 360 363 363 362 359 354
332 326 330 333 333 335 332 331 335 331 328 331 330 332 336 337 338 337 338 338 343 345 348 348 355 354 352 357 357 357 358 355 360 363 366 359 358 355 354 356 355 359 361 358 359 359 358 359 355
327 332 334 332 334 331 328 332 330 333 333 337 336 335 335 335 335 337 334 337 343 343 345 351 356 360 360 356 355 352 353 354 355 357 356 363 357 362 349 353 360 356 362 359 356 355 359 352 351
329 331 335 335 333 331 332 331 330 332 337 338 337 335 334 334 334 335 339 340 346 344 346 353 357 361 353 366 361 353 350 349 354 357 358 363 358 362 351 351 355 350 354 355 356 358 355 353 354
329 331 331 331 330 329 329 330 333 332 336 335 335 332 333 332 333 337 339 341 343 344 345 352 352 361 356 366 364 360 347 353 352 353 352 366 355 362 356 356 351 349 355 360 358 359 353 352 353
330 326 329 329 328 328 329 322 326 331 333 332 332 331 332 332 335 336 339 341 343 345 346 350 352 358 361 362 360 350 355 352 355 357 360 358 357 359 356 362 350 358 366 364 362 360 358 351 349
326 327 319 323 327 327 326 316 328 332 331 329 329 329 331 332 335 338 340 343 345 344 347 350 351 355 358 359 361 353 352 352 353 358 362 366 365 357 362 359 363 366 369 363 357 357 354 352 353
321 315 317 319 327 324 324 318 329 333 329 328 327 328 329 331 335 338 340 343 345 347 348 348 355 354 356 364 355 357 366 355 356 357 358 366 366 354 357 354 362 363 364 351 360 353 353 355 352
312 315 319 317 322 323 320 319 325 332 327 326 327 328 329 330 332 337 339 346 346 350 352 352 350 353 359 358 367 364 364 351 359 360 359 364 364 356 354 361 362 363 356 349 360 363 361 355 345
317 317 317 320 324 320 319 319 321 330 326 324 327 327 329 330 335 337 340 346 346 349 351 355 352 359 360 357 346 356 359 365 357 360 364 368 364 362 354 365 362 352 352 363 364 363 361 358 361
317 319 316 321 324 320 318 318 323 326 327 327 326 328 329 331 332 337 340 344 348 351 347 355 357 361 360 358 361 351 363 359 362 363 364 365 364 364 366 365 366 366 364 363 364 366 363 354 359
317 316 318 317 319 319 317 314 320 324 323 327 331 332 331 332 330 338 338 339 344 352 352 355 358 362 360 349 351 354 360 352 360 355 360 364 364 364 361 368 368 363 355 355 365 367 360 357 356
313 323 322 319 314 308 319 306 316 319 319 323 328 331 328 333 333 336 337 339 342 347 356 359 360 361 360 364 357 350 348 348 354 358 361 357 362 364 360 364 367 362 346 351 364 364 366 357 356
315 324 322 320 316 314 314 311 316 320 316 318 323 330 331 331 333 337 338 342 341 347 348 359 361 360 362 365 363 358 363 356 346 360 358 367 369 363 357 364 367 368 359 363 364 367 368 365 361
319 319 319 316 312 302 312 313 315 318 322 321 324 330 333 331 335 334 339 343 344 346 348 352 359 360 363 360 361 363 361 353 357 354 357 357 361 363 367 363 366 370 369 360 365 368 367 369 368
316 311 303 303 302 302 314 312 315 325 327 324 325 329 332 333 336 334 335 341 342 346 349 351 358 358 360 360 361 361 364 355 360 359 359 353 352 355 364 364 367 366 366 367 367 369 366 366 366
314 312 305 300 300 304 314 307 314 329 330 327 328 331 333 334 332 336 335 344 342 346 350 350 357 357 358 360 361 363 361 359 361 364 363 363 352 355 363 367 367 368 369 368 370 368 365 366 365
312 307 314 309 311 306 310 313 325 328 325 324 327 331 332 333 332 336 342 341 339 346 347 354 357 357 358 358 361 362 367 362 354 365 357 365 363 360 364 366 367 366 361 367 369 365 365 366 368
312 315 307 309 302 299 306 310 312 320 322 326 329 331 333 334 336 336 340 343 341 343 345 355 359 357 358 358 359 359 361 362 363 366 368 364 362 371 363 366 363 366 364 368 368 363 364 364 364
307 306 309 311 309 302 301 305 323 319 320 329 331 332 334 333 338 342 342 345 341 342 346 355 358 358 357 359 358 359 358 360 362 362 364 367 367 365 364 364 363 365 365 366 364 363 362 362 361
310 307 308 303 304 308 307 308 320 319 326 328 331 335 334 337 339 343 341 341 342 347 344 355 354 356 356 356 358 359 360 360 358 360 361 366 369 364 365 367 364 363 364 364 365 363 360 360 359

GFSSGP_sfc_thetae_123.txt.gz
Theta_e
346 346 346 343 325 322 315 312 317 322 322 327 329 327 325 329 321 315 342 347 351 353 356 358 364 364 363 364 364 364 364 363 365 363 364 365 363 362 362 364 362 363 364 362 362 362 360 358 358
339 339 343 336 319 312 312 318 317 326 328 328 327 326 325 324 335 336 338 348 351 352 354 358 363 364 363 363 364 365 362 363 363 363 364 365 363 365 363 362 362 364 364 362 362 361 358 358 359
340 341 334 324 318 312 312 319 320 330 330 326 325 329 329 327 336 337 344 348 350 351 355 357 366 366 363 363 363 366 365 363 363 364 365 363 364 363 362 362 363 362 364 362 362 361 360 359 360
335 342 337 319 316 322 322 320 327 324 326 328 327 324 333 339 338 342 347 350 350 352 357 362 364 364 364 363 364 363 365 363 364 365 365 364 363 361 361 361 362 362 362 360 361 358 357 357 359
339 337 321 318 315 321 328 327 330 327 326 325 327 323 329 339 344 348 347 346 345 347 352 355 363 362 362 363 363 364 364 364 363 364 364 365 363 361 362 363 363 362 361 359 359 358 357 356 356
330 333 317 313 315 322 327 332 331 329 327 327 325 326 330 342 343 344 345 343 345 350 351 353 362 363 361 362 363 363 362 363 364 366 364 364 364 363 366 363 361 361 360 359 357 356 356 354 352
331 324 318 318 316 319 330 334 329 325 324 325 329 321 329 337 342 344 344 344 349 353 353 353 354 359 360 363 363 362 362 363 364 364 365 363 363 363 364 365 362 361 361 359 357 356 354 353 350
335 329 320 320 315 319 333 333 334 327 325 332 331 321 326 338 343 346 344 340 346 350 351 351 352 353 353 356 363 363 362 363 364 364 364 364 363 363 363 365 365 361 360 360 358 355 354 354 356
342 321 318 319 320 322 334 330 337 338 329 330 331 329 336 341 344 343 341 341 343 345 349 350 351 350 352 353 357 361 362 363 365 363 365 364 353 353 357 360 364 361 360 359 360 358 357 356 356
330 320 323 329 330 328 333 334 334 330 330 327 327 335 339 340 341 339 338 337 341 343 345 348 350 349 350 353 353 352 356 354 353 354 356 354 352 351 355 358 360 358 361 360 360 360 358 358 352
331 324 330 332 332 334 332 332 336 330 325 327 325 329 337 335 335 338 339 338 338 343 345 345 346 347 347 349 352 350 352 352 353 354 353 350 351 351 351 352 351 351 357 353 359 359 358 355 355
325 330 333 333 333 331 330 333 331 333 330 331 330 331 335 334 331 334 337 338 341 341 345 347 347 346 348 350 351 349 349 349 351 352 351 351 349 347 347 348 347 348 351 350 350 352 353 351 350
327 332 333 333 330 331 332 331 330 331 334 334 333 333 333 334 334 337 339 338 336 340 344 347 348 349 349 350 350 348 345 348 349 350 349 349 352 350 342 346 342 346 350 347 344 345 347 344 344
330 331 329 331 329 330 329 330 332 333 335 332 331 328 331 333 332 337 338 338 339 344 346 348 350 346 345 350 350 345 346 347 346 342 347 348 347 343 344 346 342 344 348 348 345 343 343 343 344
330 324 326 328 329 328 329 324 324 333 333 330 329 328 328 328 335 336 339 339 341 343 346 345 349 351 348 344 343 343 349 350 346 340 347 351 346 350 343 340 345 344 346 347 344 343 345 342 345
325 324 315 324 327 327 326 316 326 333 330 326 327 328 328 330 334 336 340 340 341 344 343 346 350 350 348 347 345 345 347 346 349 348 355 353 353 349 347 344 345 351 353 356 350 344 343 340 340
321 310 315 317 327 324 324 317 327 333 329 325 324 325 327 330 333 336 340 340 341 344 343 345 350 347 348 350 350 346 346 348 348 348 351 353 347 349 346 348 349 350 350 347 347 348 345 340 340
311 313 317 316 321 323 320 320 325 328 328 324 323 325 325 329 330 336 340 342 341 345 345 349 349 348 349 349 351 348 349 346 348 349 350 352 351 349 346 347 339 340 345 349 351 350 346 337 340
316 316 316 320 324 320 318 319 321 325 327 322 322 324 324 326 330 336 340 342 343 345 347 346 345 348 350 346 341 343 343 350 349 350 352 354 348 339 345 346 331 336 339 344 350 351 350 341 335
317 316 315 320 323 320 318 317 323 325 324 326 322 323 324 327 329 333 339 342 342 342 346 347 348 348 347 346 345 346 349 348 352 350 353 352 351 352 354 350 340 339 348 347 348 350 351 344 344
316 315 314 314 319 319 316 313 317 322 324 326 325 328 325 327 327 333 338 340 341 341 344 348 346 346 346 344 348 346 348 344 345 348 346 351 352 350 353 354 351 346 344 345 351 353 350 348 348
309 321 319 317 312 305 316 303 313 318 319 321 322 328 328 327 329 333 337 340 342 341 343 348 348 348 345 342 343 341 340 338 345 346 348 348 351 352 354 350 351 344 336 335 349 356 354 351 347
315 317 320 317 312 310 310 307 312 318 315 319 321 327 328 329 332 332 334 342 345 344 346 350 348 348 349 346 345 342 342 343 346 348 352 352 350 349 352 349 352 349 341 347 350 353 353 355 349
322 318 317 315 310 301 308 308 309 311 316 320 320 324 329 330 331 334 334 339 345 348 350 351 349 348 350 348 347 345 344 345 343 346 349 348 349 349 353 353 350 352 352 348 351 353 350 354 352
319 309 298 296 299 297 308 305 309 318 321 322 319 322 329 331 330 332 333 334 338 345 350 352 351 349 351 348 348 347 346 344 344 345 344 346 347 347 348 353 351 350 350 352 352 351 350 353 351
305 309 300 293 296 302 310 305 309 323 328 327 323 324 329 330 330 332 335 335 339 340 350 351 349 350 350 351 350 350 348 345 346 346 348 349 348 347 352 353 354 354 355 352 352 352 352 350 351
302 302 310 302 307 301 306 312 322 326 326 326 325 325 328 330 330 332 335 335 339 341 345 349 349 347 349 352 350 349 350 348 348 349 349 351 351 353 354 354 354 354 353 354 353 350 350 349 352
303 307 298 297 297 296 304 307 309 318 319 321 321 323 327 329 329 333 333 334 339 344 345 350 350 349 350 350 350 350 350 349 350 351 350 348 351 351 354 353 353 352 353 354 352 350 351 350 350
301 298 299 298 299 296 296 303 320 319 323 320 323 325 325 328 331 332 334 339 338 342 347 350 349 349 349 350 350 349 351 350 351 351 350 351 352 354 353 353 351 352 353 353 351 348 350 348 348
303 300 299 294 293 298 301 302 324 323 318 324 324 326 328 332 332 336 336 337 338 338 348 349 349 349 349 350 350 349 350 352 349 350 350 352 351 353 354 352 352 352 353 351 351 351 350 349 346

GFSSGP_sfc_thetae_126.txt.gz
Theta_e
347 348 348 344 322 321 313 316 322 319 320 327 328 326 323 326 320 313 341 349 353 353 355 358 364 362 362 362 362 362 363 363 362 363 363 362 361 362 362 362 362 362 362 362 361 360 360 360 360
340 339 346 334 317 310 311 321 317 320 323 329 329 329 327 324 336 337 341 351 354 354 355 357 363 364 363 362 362 363 363 363 363 364 363 363 362 363 362 362 361 362 362 361 359 359 359 359 358
338 346 333 323 317 312 312 322 321 323 326 326 326 332 330 328 337 338 347 351 352 353 355 357 364 365 363 363 363 364 364 362 362 362 362 362 363 363 362 362 362 361 361 361 359 360 360 359 358
337 343 337 318 315 321 322 321 323 324 328 330 329 325 333 339 338 344 349 351 351 353 355 363 365 363 364 363 362 363 363 363 363 363 363 363 361 361 361 361 361 361 361 360 359 359 359 359 359
336 335 320 316 315 321 326 324 324 322 326 328 330 325 328 338 344 347 349 352 351 352 355 358 365 364 363 363 363 363 363 363 363 364 362 361 361 362 363 362 363 361 358 359 357 358 358 359 358
330 332 315 311 315 322 327 330 326 324 327 329 328 328 330 342 342 345 347 348 350 349 351 353 361 362 362 363 363 362 363 364 363 364 363 363 363 362 364 361 359 357 357 356 355 356 356 356 356
329 323 317 315 317 319 327 330 324 325 327 327 333 326 333 338 341 343 343 346 349 350 350 353 352 356 362 363 362 363 363 364 363 363 362 363 363 362 361 361 360 358 356 354 353 352 353 355 356
334 328 318 317 315 318 330 332 329 325 324 334 335 325 326 336 340 341 345 349 349 349 350 350 351 351 353 355 362 362 363 364 363 363 362 363 362 362 361 364 363 358 358 355 353 351 352 353 355
341 321 315 315 317 322 332 328 334 333 328 331 331 333 336 341 341 338 340 341 346 349 347 349 349 349 351 353 357 361 363 363 363 362 362 362 352 353 354 359 361 358 357 356 356 355 355 356 356
328 319 319 326 326 325 332 329 328 326 326 328 332 337 340 340 338 335 336 338 340 344 346 347 347 348 350 355 352 352 355 355 354 354 354 351 350 349 355 357 359 357 358 358 359 360 360 358 351
328 323 330 330 332 332 333 329 332 326 323 329 329 333 337 339 336 334 336 339 341 344 346 347 347 347 346 351 350 350 351 351 351 352 352 350 350 349 350 348 345 348 355 351 355 357 357 354 352
325 332 332 333 333 332 331 333 329 331 325 334 335 336 337 336 335 335 335 337 339 341 344 344 345 346 346 347 349 347 348 349 349 350 348 346 345 345 345 341 347 347 349 348 348 350 352 349 348
327 331 331 331 331 331 334 331 330 328 335 336 336 335 336 336 337 338 338 339 340 340 343 345 345 345 346 348 347 347 345 347 348 350 347 348 342 344 343 343 342 342 346 345 344 345 348 347 342
332 331 329 329 330 332 329 330 331 332 332 331 333 332 333 333 337 336 338 338 339 341 343 345 347 348 347 347 346 344 344 346 346 344 347 350 347 341 343 344 341 339 341 343 344 342 341 340 340
327 323 326 327 328 327 330 323 325 332 331 327 328 332 333 336 336 336 337 335 340 343 344 346 344 345 345 346 346 344 347 346 336 341 345 347 348 343 338 339 342 343 345 349 344 342 342 341 344
324 322 314 323 327 328 326 315 327 333 329 324 325 329 331 334 336 338 338 339 342 343 343 346 350 346 344 341 341 345 344 336 341 343 348 348 347 344 341 343 345 349 351 349 349 345 340 339 339
319 312 315 317 327 325 323 317 326 331 330 324 323 324 330 333 336 337 340 341 342 342 341 343 345 345 345 346 346 345 344 340 345 347 349 346 347 349 345 345 347 346 345 345 347 343 340 337 340
308 310 315 314 321 323 318 319 323 328 328 324 322 323 328 332 334 337 339 340 342 342 342 344 345 343 347 346 347 343 344 343 344 347 347 346 341 345 343 346 340 337 342 345 347 347 340 336 338
308 312 312 319 324 319 318 318 320 325 327 322 320 323 328 330 336 337 338 340 342 342 343 346 344 344 347 344 343 340 342 344 344 346 347 352 345 342 345 346 329 336 344 346 347 348 347 335 334
307 315 314 319 322 320 317 316 323 323 324 325 322 322 325 326 332 336 337 340 341 341 344 343 343 345 345 344 344 344 345 348 346 346 349 349 344 344 350 345 336 345 345 345 349 349 347 343 343
313 314 314 314 319 318 317 313 317 322 323 324 326 327 326 328 331 333 335 338 341 342 342 343 344 344 343 343 343 343 344 345 347 347 345 348 349 349 349 350 347 343 341 343 348 350 348 344 339
304 321 314 312 312 306 317 302 313 317 319 320 323 322 327 328 332 334 336 336 340 342 344 345 344 344 343 340 341 339 337 335 340 343 343 347 348 348 352 351 347 340 333 339 346 354 351 346 344
312 317 317 317 312 310 310 306 308 317 315 317 320 322 328 327 333 334 336 337 339 342 345 344 345 344 343 338 341 340 339 339 342 344 345 347 347 348 351 348 347 344 339 348 350 350 350 351 345
319 316 316 316 310 299 307 308 308 311 314 316 319 323 327 327 333 336 338 339 338 341 345 345 344 343 343 341 341 341 339 339 339 341 345 344 345 344 349 348 349 348 348 345 349 349 349 350 347
313 306 300 299 298 297 307 306 307 315 318 320 320 322 328 328 330 334 337 338 339 339 344 345 343 343 344 344 343 342 341 342 342 341 343 343 344 344 344 349 347 349 348 349 350 346 347 349 348
308 307 301 295 296 300 309 302 308 319 322 323 324 325 328 329 328 330 335 339 341 342 346 347 344 343 345 344 344 344 344 343 342 344 344 344 344 345 346 350 348 349 348 348 350 349 348 347 348
303 302 310 302 304 300 304 309 318 323 324 323 323 323 326 330 327 330 334 338 342 343 347 347 346 346 346 345 346 345 345 344 342 344 345 347 347 348 348 351 349 349 350 351 349 347 346 346 348
301 304 299 298 294 293 303 305 306 315 320 322 320 320 326 328 328 330 332 335 338 345 348 349 348 347 346 347 348 347 346 346 346 347 347 347 347 349 350 351 350 351 350 350 350 346 348 346 347
298 295 296 296 298 296 297 301 316 316 321 319 320 321 325 328 328 330 333 332 338 342 348 347 347 345 345 348 347 347 347 347 348 347 346 348 349 350 350 351 349 349 349 349 347 347 348 344 346
299 298 295 292 291 297 299 298 322 321 323 324 324 325 326 327 327 330 332 335 338 340 347 346 347 346 346 348 346 347 347 346 347 347 349 349 348 350 350 351 349 349 350 349 347 346 350 345 344